<?xml version="1.0" encoding="UTF-8" standalone="no" ?>
<gpx xmlns="http://www.topografix.com/GPX/1/1" xmlns:xsi="http://www.w3.org/2001/XMLSchema-instance" xsi:schemaLocation="http://www.topografix.com/GPX/1/1 http://www.topografix.com/GPX/1/1/gpx.xsd" version="1.1" creator="VisuGPX - https://www.visugpx.com">
  <metadata>
    <name>GR 34 Boucle du Cap Frehel </name>
    <desc><![CDATA[Boucle du cap Fréhel (Côtes d'Armor- sur le GR34 et retour par les terres ]]></desc>
  </metadata>
  <trk>
    <name><![CDATA[27 oct. 2019 à 09:31:38]]></name>
    <cmt><![CDATA[27 oct. 2019 à 09:31:38]]></cmt>
    <trkseg>
      <trkpt lat="48.65161" lon="-2.36871">
        <ele>52</ele>
        <time>2019-10-27T08:31:39Z</time>
      </trkpt>
      <trkpt lat="48.65161" lon="-2.36871">
        <ele>52</ele>
        <time>2019-10-27T08:31:40Z</time>
      </trkpt>
      <trkpt lat="48.65174" lon="-2.36876">
        <ele>52</ele>
        <time>2019-10-27T08:32:18Z</time>
      </trkpt>
      <trkpt lat="48.65172" lon="-2.36883">
        <ele>52</ele>
        <time>2019-10-27T08:32:30Z</time>
      </trkpt>
      <trkpt lat="48.65165" lon="-2.36879">
        <ele>53</ele>
        <time>2019-10-27T08:33:49Z</time>
      </trkpt>
      <trkpt lat="48.65159" lon="-2.3688">
        <ele>53</ele>
        <time>2019-10-27T08:33:55Z</time>
      </trkpt>
      <trkpt lat="48.65155" lon="-2.36878">
        <ele>54</ele>
        <time>2019-10-27T08:34:03Z</time>
      </trkpt>
      <trkpt lat="48.65156" lon="-2.36878">
        <ele>54</ele>
        <time>2019-10-27T08:34:20Z</time>
      </trkpt>
      <trkpt lat="48.65154" lon="-2.36892">
        <ele>54</ele>
        <time>2019-10-27T08:34:53Z</time>
      </trkpt>
      <trkpt lat="48.65154" lon="-2.36899">
        <ele>53</ele>
        <time>2019-10-27T08:34:57Z</time>
      </trkpt>
      <trkpt lat="48.65153" lon="-2.3691">
        <ele>53</ele>
        <time>2019-10-27T08:35:13Z</time>
      </trkpt>
      <trkpt lat="48.65155" lon="-2.36918">
        <ele>53</ele>
        <time>2019-10-27T08:35:17Z</time>
      </trkpt>
      <trkpt lat="48.6517" lon="-2.36968">
        <ele>50</ele>
        <time>2019-10-27T08:35:50Z</time>
      </trkpt>
      <trkpt lat="48.65181" lon="-2.3702">
        <ele>46</ele>
        <time>2019-10-27T08:36:19Z</time>
      </trkpt>
      <trkpt lat="48.65185" lon="-2.37029">
        <ele>46</ele>
        <time>2019-10-27T08:36:26Z</time>
      </trkpt>
      <trkpt lat="48.65192" lon="-2.37088">
        <ele>41</ele>
        <time>2019-10-27T08:36:59Z</time>
      </trkpt>
      <trkpt lat="48.65193" lon="-2.371">
        <ele>40</ele>
        <time>2019-10-27T08:37:09Z</time>
      </trkpt>
      <trkpt lat="48.65191" lon="-2.37109">
        <ele>39</ele>
        <time>2019-10-27T08:37:35Z</time>
      </trkpt>
      <trkpt lat="48.65193" lon="-2.37117">
        <ele>37</ele>
        <time>2019-10-27T08:37:39Z</time>
      </trkpt>
      <trkpt lat="48.65195" lon="-2.37124">
        <ele>37</ele>
        <time>2019-10-27T08:37:43Z</time>
      </trkpt>
      <trkpt lat="48.65201" lon="-2.37153">
        <ele>34</ele>
        <time>2019-10-27T08:37:59Z</time>
      </trkpt>
      <trkpt lat="48.6521" lon="-2.37172">
        <ele>32</ele>
        <time>2019-10-27T08:38:11Z</time>
      </trkpt>
      <trkpt lat="48.65218" lon="-2.37181">
        <ele>30</ele>
        <time>2019-10-27T08:38:20Z</time>
      </trkpt>
      <trkpt lat="48.65223" lon="-2.37187">
        <ele>30</ele>
        <time>2019-10-27T08:38:24Z</time>
      </trkpt>
      <trkpt lat="48.65254" lon="-2.37225">
        <ele>24</ele>
        <time>2019-10-27T08:38:56Z</time>
      </trkpt>
      <trkpt lat="48.65281" lon="-2.37256">
        <ele>18</ele>
        <time>2019-10-27T08:39:26Z</time>
      </trkpt>
      <trkpt lat="48.65284" lon="-2.37263">
        <ele>17</ele>
        <time>2019-10-27T08:39:31Z</time>
      </trkpt>
      <trkpt lat="48.65285" lon="-2.37272">
        <ele>16</ele>
        <time>2019-10-27T08:39:41Z</time>
      </trkpt>
      <trkpt lat="48.65288" lon="-2.37277">
        <ele>15</ele>
        <time>2019-10-27T08:39:45Z</time>
      </trkpt>
      <trkpt lat="48.65292" lon="-2.37282">
        <ele>16</ele>
        <time>2019-10-27T08:39:50Z</time>
      </trkpt>
      <trkpt lat="48.65295" lon="-2.37288">
        <ele>15</ele>
        <time>2019-10-27T08:39:58Z</time>
      </trkpt>
      <trkpt lat="48.65301" lon="-2.37291">
        <ele>15</ele>
        <time>2019-10-27T08:40:22Z</time>
      </trkpt>
      <trkpt lat="48.65306" lon="-2.3729">
        <ele>16</ele>
        <time>2019-10-27T08:40:27Z</time>
      </trkpt>
      <trkpt lat="48.6531" lon="-2.37289">
        <ele>17</ele>
        <time>2019-10-27T08:40:32Z</time>
      </trkpt>
      <trkpt lat="48.65316" lon="-2.37284">
        <ele>18</ele>
        <time>2019-10-27T08:40:40Z</time>
      </trkpt>
      <trkpt lat="48.65325" lon="-2.37283">
        <ele>21</ele>
        <time>2019-10-27T08:40:54Z</time>
      </trkpt>
      <trkpt lat="48.65329" lon="-2.37273">
        <ele>23</ele>
        <time>2019-10-27T08:41:13Z</time>
      </trkpt>
      <trkpt lat="48.6533" lon="-2.37265">
        <ele>23</ele>
        <time>2019-10-27T08:41:18Z</time>
      </trkpt>
      <trkpt lat="48.65333" lon="-2.37257">
        <ele>25</ele>
        <time>2019-10-27T08:41:25Z</time>
      </trkpt>
      <trkpt lat="48.65338" lon="-2.37253">
        <ele>26</ele>
        <time>2019-10-27T08:41:30Z</time>
      </trkpt>
      <trkpt lat="48.65343" lon="-2.37251">
        <ele>27</ele>
        <time>2019-10-27T08:41:35Z</time>
      </trkpt>
      <trkpt lat="48.65349" lon="-2.37255">
        <ele>27</ele>
        <time>2019-10-27T08:41:40Z</time>
      </trkpt>
      <trkpt lat="48.65353" lon="-2.37253">
        <ele>28</ele>
        <time>2019-10-27T08:41:45Z</time>
      </trkpt>
      <trkpt lat="48.65359" lon="-2.37255">
        <ele>30</ele>
        <time>2019-10-27T08:41:53Z</time>
      </trkpt>
      <trkpt lat="48.65367" lon="-2.37253">
        <ele>31</ele>
        <time>2019-10-27T08:42:01Z</time>
      </trkpt>
      <trkpt lat="48.65371" lon="-2.37252">
        <ele>31</ele>
        <time>2019-10-27T08:42:06Z</time>
      </trkpt>
      <trkpt lat="48.65377" lon="-2.37256">
        <ele>32</ele>
        <time>2019-10-27T08:42:13Z</time>
      </trkpt>
      <trkpt lat="48.6538" lon="-2.37261">
        <ele>32</ele>
        <time>2019-10-27T08:42:17Z</time>
      </trkpt>
      <trkpt lat="48.65384" lon="-2.37262">
        <ele>33</ele>
        <time>2019-10-27T08:42:21Z</time>
      </trkpt>
      <trkpt lat="48.65389" lon="-2.37261">
        <ele>33</ele>
        <time>2019-10-27T08:42:26Z</time>
      </trkpt>
      <trkpt lat="48.65404" lon="-2.3725">
        <ele>35</ele>
        <time>2019-10-27T08:42:41Z</time>
      </trkpt>
      <trkpt lat="48.65409" lon="-2.3725">
        <ele>35</ele>
        <time>2019-10-27T08:42:46Z</time>
      </trkpt>
      <trkpt lat="48.65423" lon="-2.37256">
        <ele>38</ele>
        <time>2019-10-27T08:43:01Z</time>
      </trkpt>
      <trkpt lat="48.65433" lon="-2.37255">
        <ele>39</ele>
        <time>2019-10-27T08:43:10Z</time>
      </trkpt>
      <trkpt lat="48.65438" lon="-2.37251">
        <ele>40</ele>
        <time>2019-10-27T08:43:15Z</time>
      </trkpt>
      <trkpt lat="48.65443" lon="-2.37249">
        <ele>40</ele>
        <time>2019-10-27T08:43:19Z</time>
      </trkpt>
      <trkpt lat="48.65452" lon="-2.37244">
        <ele>41</ele>
        <time>2019-10-27T08:43:28Z</time>
      </trkpt>
      <trkpt lat="48.65457" lon="-2.37242">
        <ele>40</ele>
        <time>2019-10-27T08:43:33Z</time>
      </trkpt>
      <trkpt lat="48.65462" lon="-2.37242">
        <ele>40</ele>
        <time>2019-10-27T08:43:37Z</time>
      </trkpt>
      <trkpt lat="48.65466" lon="-2.37238">
        <ele>40</ele>
        <time>2019-10-27T08:43:41Z</time>
      </trkpt>
      <trkpt lat="48.6547" lon="-2.37232">
        <ele>40</ele>
        <time>2019-10-27T08:43:45Z</time>
      </trkpt>
      <trkpt lat="48.65482" lon="-2.37236">
        <ele>38</ele>
        <time>2019-10-27T08:44:13Z</time>
      </trkpt>
      <trkpt lat="48.65492" lon="-2.3724">
        <ele>38</ele>
        <time>2019-10-27T08:44:21Z</time>
      </trkpt>
      <trkpt lat="48.65496" lon="-2.37244">
        <ele>38</ele>
        <time>2019-10-27T08:44:25Z</time>
      </trkpt>
      <trkpt lat="48.65501" lon="-2.37246">
        <ele>37</ele>
        <time>2019-10-27T08:44:30Z</time>
      </trkpt>
      <trkpt lat="48.65512" lon="-2.37247">
        <ele>36</ele>
        <time>2019-10-27T08:44:39Z</time>
      </trkpt>
      <trkpt lat="48.65516" lon="-2.37242">
        <ele>35</ele>
        <time>2019-10-27T08:45:02Z</time>
      </trkpt>
      <trkpt lat="48.65532" lon="-2.37224">
        <ele>34</ele>
        <time>2019-10-27T08:45:19Z</time>
      </trkpt>
      <trkpt lat="48.65536" lon="-2.3722">
        <ele>34</ele>
        <time>2019-10-27T08:45:23Z</time>
      </trkpt>
      <trkpt lat="48.65541" lon="-2.37215">
        <ele>34</ele>
        <time>2019-10-27T08:45:28Z</time>
      </trkpt>
      <trkpt lat="48.65546" lon="-2.37202">
        <ele>33</ele>
        <time>2019-10-27T08:45:36Z</time>
      </trkpt>
      <trkpt lat="48.65551" lon="-2.3719">
        <ele>33</ele>
        <time>2019-10-27T08:45:44Z</time>
      </trkpt>
      <trkpt lat="48.65555" lon="-2.37185">
        <ele>33</ele>
        <time>2019-10-27T08:45:48Z</time>
      </trkpt>
      <trkpt lat="48.65558" lon="-2.3718">
        <ele>32</ele>
        <time>2019-10-27T08:45:52Z</time>
      </trkpt>
      <trkpt lat="48.65562" lon="-2.37174">
        <ele>33</ele>
        <time>2019-10-27T08:45:56Z</time>
      </trkpt>
      <trkpt lat="48.65565" lon="-2.37168">
        <ele>33</ele>
        <time>2019-10-27T08:46:01Z</time>
      </trkpt>
      <trkpt lat="48.65568" lon="-2.37159">
        <ele>32</ele>
        <time>2019-10-27T08:46:07Z</time>
      </trkpt>
      <trkpt lat="48.65569" lon="-2.37152">
        <ele>31</ele>
        <time>2019-10-27T08:46:11Z</time>
      </trkpt>
      <trkpt lat="48.6557" lon="-2.37145">
        <ele>31</ele>
        <time>2019-10-27T08:46:15Z</time>
      </trkpt>
      <trkpt lat="48.6557" lon="-2.37128">
        <ele>31</ele>
        <time>2019-10-27T08:46:24Z</time>
      </trkpt>
      <trkpt lat="48.65568" lon="-2.37095">
        <ele>31</ele>
        <time>2019-10-27T08:46:44Z</time>
      </trkpt>
      <trkpt lat="48.65567" lon="-2.37087">
        <ele>32</ele>
        <time>2019-10-27T08:46:48Z</time>
      </trkpt>
      <trkpt lat="48.65566" lon="-2.3708">
        <ele>32</ele>
        <time>2019-10-27T08:46:52Z</time>
      </trkpt>
      <trkpt lat="48.65565" lon="-2.37072">
        <ele>31</ele>
        <time>2019-10-27T08:46:56Z</time>
      </trkpt>
      <trkpt lat="48.65566" lon="-2.37064">
        <ele>31</ele>
        <time>2019-10-27T08:47:00Z</time>
      </trkpt>
      <trkpt lat="48.65565" lon="-2.37056">
        <ele>31</ele>
        <time>2019-10-27T08:47:04Z</time>
      </trkpt>
      <trkpt lat="48.65563" lon="-2.3705">
        <ele>31</ele>
        <time>2019-10-27T08:47:08Z</time>
      </trkpt>
      <trkpt lat="48.65561" lon="-2.37043">
        <ele>31</ele>
        <time>2019-10-27T08:47:13Z</time>
      </trkpt>
      <trkpt lat="48.6556" lon="-2.37034">
        <ele>31</ele>
        <time>2019-10-27T08:47:20Z</time>
      </trkpt>
      <trkpt lat="48.65558" lon="-2.37027">
        <ele>33</ele>
        <time>2019-10-27T08:47:25Z</time>
      </trkpt>
      <trkpt lat="48.65555" lon="-2.37014">
        <ele>31</ele>
        <time>2019-10-27T08:47:33Z</time>
      </trkpt>
      <trkpt lat="48.65556" lon="-2.37006">
        <ele>31</ele>
        <time>2019-10-27T08:47:37Z</time>
      </trkpt>
      <trkpt lat="48.65559" lon="-2.36999">
        <ele>31</ele>
        <time>2019-10-27T08:47:41Z</time>
      </trkpt>
      <trkpt lat="48.6556" lon="-2.36991">
        <ele>31</ele>
        <time>2019-10-27T08:47:45Z</time>
      </trkpt>
      <trkpt lat="48.65562" lon="-2.36984">
        <ele>30</ele>
        <time>2019-10-27T08:47:49Z</time>
      </trkpt>
      <trkpt lat="48.65566" lon="-2.3697">
        <ele>30</ele>
        <time>2019-10-27T08:47:57Z</time>
      </trkpt>
      <trkpt lat="48.65568" lon="-2.36963">
        <ele>31</ele>
        <time>2019-10-27T08:48:01Z</time>
      </trkpt>
      <trkpt lat="48.6557" lon="-2.36955">
        <ele>31</ele>
        <time>2019-10-27T08:48:06Z</time>
      </trkpt>
      <trkpt lat="48.65573" lon="-2.36945">
        <ele>33</ele>
        <time>2019-10-27T08:48:15Z</time>
      </trkpt>
      <trkpt lat="48.65576" lon="-2.3694">
        <ele>33</ele>
        <time>2019-10-27T08:48:20Z</time>
      </trkpt>
      <trkpt lat="48.65581" lon="-2.36938">
        <ele>33</ele>
        <time>2019-10-27T08:48:24Z</time>
      </trkpt>
      <trkpt lat="48.65595" lon="-2.36928">
        <ele>34</ele>
        <time>2019-10-27T08:48:37Z</time>
      </trkpt>
      <trkpt lat="48.65607" lon="-2.36912">
        <ele>35</ele>
        <time>2019-10-27T08:48:52Z</time>
      </trkpt>
      <trkpt lat="48.65613" lon="-2.3691">
        <ele>36</ele>
        <time>2019-10-27T08:48:58Z</time>
      </trkpt>
      <trkpt lat="48.65618" lon="-2.36911">
        <ele>36</ele>
        <time>2019-10-27T08:49:03Z</time>
      </trkpt>
      <trkpt lat="48.65628" lon="-2.36912">
        <ele>35</ele>
        <time>2019-10-27T08:49:11Z</time>
      </trkpt>
      <trkpt lat="48.65632" lon="-2.36911">
        <ele>34</ele>
        <time>2019-10-27T08:49:15Z</time>
      </trkpt>
      <trkpt lat="48.65647" lon="-2.36902">
        <ele>34</ele>
        <time>2019-10-27T08:49:28Z</time>
      </trkpt>
      <trkpt lat="48.65651" lon="-2.369">
        <ele>33</ele>
        <time>2019-10-27T08:49:32Z</time>
      </trkpt>
      <trkpt lat="48.65661" lon="-2.36895">
        <ele>34</ele>
        <time>2019-10-27T08:49:42Z</time>
      </trkpt>
      <trkpt lat="48.6567" lon="-2.3689">
        <ele>34</ele>
        <time>2019-10-27T08:49:50Z</time>
      </trkpt>
      <trkpt lat="48.65675" lon="-2.36888">
        <ele>33</ele>
        <time>2019-10-27T08:49:54Z</time>
      </trkpt>
      <trkpt lat="48.65679" lon="-2.36885">
        <ele>34</ele>
        <time>2019-10-27T08:49:59Z</time>
      </trkpt>
      <trkpt lat="48.65684" lon="-2.36885">
        <ele>34</ele>
        <time>2019-10-27T08:50:04Z</time>
      </trkpt>
      <trkpt lat="48.65683" lon="-2.36887">
        <ele>33</ele>
        <time>2019-10-27T08:51:51Z</time>
      </trkpt>
      <trkpt lat="48.65673" lon="-2.36879">
        <ele>32</ele>
        <time>2019-10-27T08:52:01Z</time>
      </trkpt>
      <trkpt lat="48.65669" lon="-2.36877">
        <ele>32</ele>
        <time>2019-10-27T08:52:05Z</time>
      </trkpt>
      <trkpt lat="48.6563" lon="-2.36859">
        <ele>37</ele>
        <time>2019-10-27T08:52:37Z</time>
      </trkpt>
      <trkpt lat="48.65621" lon="-2.36853">
        <ele>39</ele>
        <time>2019-10-27T08:52:45Z</time>
      </trkpt>
      <trkpt lat="48.65603" lon="-2.3684">
        <ele>38</ele>
        <time>2019-10-27T08:53:05Z</time>
      </trkpt>
      <trkpt lat="48.65599" lon="-2.36836">
        <ele>38</ele>
        <time>2019-10-27T08:53:09Z</time>
      </trkpt>
      <trkpt lat="48.65597" lon="-2.36829">
        <ele>38</ele>
        <time>2019-10-27T08:53:13Z</time>
      </trkpt>
      <trkpt lat="48.65596" lon="-2.36822">
        <ele>39</ele>
        <time>2019-10-27T08:53:17Z</time>
      </trkpt>
      <trkpt lat="48.65594" lon="-2.36814">
        <ele>39</ele>
        <time>2019-10-27T08:53:21Z</time>
      </trkpt>
      <trkpt lat="48.6559" lon="-2.36801">
        <ele>39</ele>
        <time>2019-10-27T08:53:29Z</time>
      </trkpt>
      <trkpt lat="48.65584" lon="-2.36787">
        <ele>39</ele>
        <time>2019-10-27T08:53:38Z</time>
      </trkpt>
      <trkpt lat="48.65581" lon="-2.3678">
        <ele>40</ele>
        <time>2019-10-27T08:53:42Z</time>
      </trkpt>
      <trkpt lat="48.6558" lon="-2.36773">
        <ele>40</ele>
        <time>2019-10-27T08:53:46Z</time>
      </trkpt>
      <trkpt lat="48.65579" lon="-2.36766">
        <ele>40</ele>
        <time>2019-10-27T08:53:50Z</time>
      </trkpt>
      <trkpt lat="48.65576" lon="-2.36759">
        <ele>40</ele>
        <time>2019-10-27T08:53:54Z</time>
      </trkpt>
      <trkpt lat="48.65569" lon="-2.36746">
        <ele>39</ele>
        <time>2019-10-27T08:54:02Z</time>
      </trkpt>
      <trkpt lat="48.65567" lon="-2.3674">
        <ele>40</ele>
        <time>2019-10-27T08:54:06Z</time>
      </trkpt>
      <trkpt lat="48.65561" lon="-2.36727">
        <ele>37</ele>
        <time>2019-10-27T08:54:39Z</time>
      </trkpt>
      <trkpt lat="48.65551" lon="-2.36728">
        <ele>35</ele>
        <time>2019-10-27T08:54:49Z</time>
      </trkpt>
      <trkpt lat="48.65545" lon="-2.36725">
        <ele>35</ele>
        <time>2019-10-27T08:54:57Z</time>
      </trkpt>
      <trkpt lat="48.65542" lon="-2.36718">
        <ele>35</ele>
        <time>2019-10-27T08:55:02Z</time>
      </trkpt>
      <trkpt lat="48.65542" lon="-2.3671">
        <ele>34</ele>
        <time>2019-10-27T08:55:06Z</time>
      </trkpt>
      <trkpt lat="48.65543" lon="-2.36695">
        <ele>31</ele>
        <time>2019-10-27T08:55:15Z</time>
      </trkpt>
      <trkpt lat="48.65542" lon="-2.36688">
        <ele>30</ele>
        <time>2019-10-27T08:55:21Z</time>
      </trkpt>
      <trkpt lat="48.65529" lon="-2.36671">
        <ele>27</ele>
        <time>2019-10-27T08:55:36Z</time>
      </trkpt>
      <trkpt lat="48.65515" lon="-2.36658">
        <ele>25</ele>
        <time>2019-10-27T08:55:47Z</time>
      </trkpt>
      <trkpt lat="48.65476" lon="-2.36636">
        <ele>19</ele>
        <time>2019-10-27T08:56:21Z</time>
      </trkpt>
      <trkpt lat="48.65466" lon="-2.36626">
        <ele>19</ele>
        <time>2019-10-27T08:56:29Z</time>
      </trkpt>
      <trkpt lat="48.65453" lon="-2.36604">
        <ele>16</ele>
        <time>2019-10-27T08:56:45Z</time>
      </trkpt>
      <trkpt lat="48.65443" lon="-2.36578">
        <ele>12</ele>
        <time>2019-10-27T08:57:02Z</time>
      </trkpt>
      <trkpt lat="48.65444" lon="-2.3657">
        <ele>12</ele>
        <time>2019-10-27T08:57:06Z</time>
      </trkpt>
      <trkpt lat="48.65449" lon="-2.36556">
        <ele>11</ele>
        <time>2019-10-27T08:57:14Z</time>
      </trkpt>
      <trkpt lat="48.65451" lon="-2.3655">
        <ele>11</ele>
        <time>2019-10-27T08:57:18Z</time>
      </trkpt>
      <trkpt lat="48.65453" lon="-2.36544">
        <ele>11</ele>
        <time>2019-10-27T08:57:22Z</time>
      </trkpt>
      <trkpt lat="48.65454" lon="-2.36532">
        <ele>12</ele>
        <time>2019-10-27T08:57:32Z</time>
      </trkpt>
      <trkpt lat="48.65436" lon="-2.36495">
        <ele>6</ele>
        <time>2019-10-27T08:57:58Z</time>
      </trkpt>
      <trkpt lat="48.65431" lon="-2.36487">
        <ele>7</ele>
        <time>2019-10-27T08:58:07Z</time>
      </trkpt>
      <trkpt lat="48.6543" lon="-2.36476">
        <ele>8</ele>
        <time>2019-10-27T08:58:14Z</time>
      </trkpt>
      <trkpt lat="48.65427" lon="-2.3647">
        <ele>8</ele>
        <time>2019-10-27T08:58:19Z</time>
      </trkpt>
      <trkpt lat="48.65423" lon="-2.36465">
        <ele>8</ele>
        <time>2019-10-27T08:58:49Z</time>
      </trkpt>
      <trkpt lat="48.6542" lon="-2.3646">
        <ele>9</ele>
        <time>2019-10-27T08:58:54Z</time>
      </trkpt>
      <trkpt lat="48.65406" lon="-2.36445">
        <ele>10</ele>
        <time>2019-10-27T08:59:15Z</time>
      </trkpt>
      <trkpt lat="48.65403" lon="-2.36438">
        <ele>10</ele>
        <time>2019-10-27T08:59:19Z</time>
      </trkpt>
      <trkpt lat="48.65399" lon="-2.36425">
        <ele>10</ele>
        <time>2019-10-27T08:59:27Z</time>
      </trkpt>
      <trkpt lat="48.65397" lon="-2.36419">
        <ele>10</ele>
        <time>2019-10-27T08:59:31Z</time>
      </trkpt>
      <trkpt lat="48.65395" lon="-2.36412">
        <ele>10</ele>
        <time>2019-10-27T08:59:35Z</time>
      </trkpt>
      <trkpt lat="48.65393" lon="-2.36406">
        <ele>10</ele>
        <time>2019-10-27T08:59:39Z</time>
      </trkpt>
      <trkpt lat="48.65386" lon="-2.36397">
        <ele>10</ele>
        <time>2019-10-27T08:59:47Z</time>
      </trkpt>
      <trkpt lat="48.65383" lon="-2.3639">
        <ele>11</ele>
        <time>2019-10-27T08:59:52Z</time>
      </trkpt>
      <trkpt lat="48.65385" lon="-2.36381">
        <ele>11</ele>
        <time>2019-10-27T08:59:57Z</time>
      </trkpt>
      <trkpt lat="48.65392" lon="-2.36369">
        <ele>13</ele>
        <time>2019-10-27T09:00:07Z</time>
      </trkpt>
      <trkpt lat="48.65396" lon="-2.36365">
        <ele>14</ele>
        <time>2019-10-27T09:00:12Z</time>
      </trkpt>
      <trkpt lat="48.65396" lon="-2.36356">
        <ele>15</ele>
        <time>2019-10-27T09:00:19Z</time>
      </trkpt>
      <trkpt lat="48.65387" lon="-2.36348">
        <ele>15</ele>
        <time>2019-10-27T09:00:27Z</time>
      </trkpt>
      <trkpt lat="48.65382" lon="-2.36346">
        <ele>16</ele>
        <time>2019-10-27T09:00:32Z</time>
      </trkpt>
      <trkpt lat="48.65368" lon="-2.36335">
        <ele>17</ele>
        <time>2019-10-27T09:00:48Z</time>
      </trkpt>
      <trkpt lat="48.65367" lon="-2.36328">
        <ele>17</ele>
        <time>2019-10-27T09:01:02Z</time>
      </trkpt>
      <trkpt lat="48.65359" lon="-2.36318">
        <ele>16</ele>
        <time>2019-10-27T09:01:10Z</time>
      </trkpt>
      <trkpt lat="48.65357" lon="-2.36311">
        <ele>16</ele>
        <time>2019-10-27T09:01:14Z</time>
      </trkpt>
      <trkpt lat="48.65357" lon="-2.36303">
        <ele>16</ele>
        <time>2019-10-27T09:01:18Z</time>
      </trkpt>
      <trkpt lat="48.65358" lon="-2.36296">
        <ele>16</ele>
        <time>2019-10-27T09:01:22Z</time>
      </trkpt>
      <trkpt lat="48.65358" lon="-2.36289">
        <ele>16</ele>
        <time>2019-10-27T09:01:26Z</time>
      </trkpt>
      <trkpt lat="48.65358" lon="-2.36281">
        <ele>16</ele>
        <time>2019-10-27T09:01:30Z</time>
      </trkpt>
      <trkpt lat="48.65355" lon="-2.36267">
        <ele>15</ele>
        <time>2019-10-27T09:01:38Z</time>
      </trkpt>
      <trkpt lat="48.65355" lon="-2.36259">
        <ele>14</ele>
        <time>2019-10-27T09:01:42Z</time>
      </trkpt>
      <trkpt lat="48.65355" lon="-2.36252">
        <ele>15</ele>
        <time>2019-10-27T09:01:46Z</time>
      </trkpt>
      <trkpt lat="48.65356" lon="-2.36245">
        <ele>14</ele>
        <time>2019-10-27T09:01:50Z</time>
      </trkpt>
      <trkpt lat="48.65361" lon="-2.36224">
        <ele>16</ele>
        <time>2019-10-27T09:02:04Z</time>
      </trkpt>
      <trkpt lat="48.65362" lon="-2.36216">
        <ele>17</ele>
        <time>2019-10-27T09:02:09Z</time>
      </trkpt>
      <trkpt lat="48.65363" lon="-2.36209">
        <ele>17</ele>
        <time>2019-10-27T09:02:13Z</time>
      </trkpt>
      <trkpt lat="48.65362" lon="-2.36201">
        <ele>18</ele>
        <time>2019-10-27T09:02:17Z</time>
      </trkpt>
      <trkpt lat="48.65361" lon="-2.36192">
        <ele>19</ele>
        <time>2019-10-27T09:03:05Z</time>
      </trkpt>
      <trkpt lat="48.65359" lon="-2.36185">
        <ele>19</ele>
        <time>2019-10-27T09:03:09Z</time>
      </trkpt>
      <trkpt lat="48.6536" lon="-2.3617">
        <ele>20</ele>
        <time>2019-10-27T09:03:17Z</time>
      </trkpt>
      <trkpt lat="48.6536" lon="-2.36162">
        <ele>20</ele>
        <time>2019-10-27T09:03:21Z</time>
      </trkpt>
      <trkpt lat="48.65359" lon="-2.36154">
        <ele>21</ele>
        <time>2019-10-27T09:03:25Z</time>
      </trkpt>
      <trkpt lat="48.65365" lon="-2.36133">
        <ele>23</ele>
        <time>2019-10-27T09:03:38Z</time>
      </trkpt>
      <trkpt lat="48.65365" lon="-2.36118">
        <ele>24</ele>
        <time>2019-10-27T09:03:46Z</time>
      </trkpt>
      <trkpt lat="48.65366" lon="-2.36111">
        <ele>24</ele>
        <time>2019-10-27T09:03:50Z</time>
      </trkpt>
      <trkpt lat="48.65373" lon="-2.36075">
        <ele>23</ele>
        <time>2019-10-27T09:04:10Z</time>
      </trkpt>
      <trkpt lat="48.65375" lon="-2.36068">
        <ele>23</ele>
        <time>2019-10-27T09:04:14Z</time>
      </trkpt>
      <trkpt lat="48.65383" lon="-2.36046">
        <ele>20</ele>
        <time>2019-10-27T09:04:27Z</time>
      </trkpt>
      <trkpt lat="48.65391" lon="-2.35999">
        <ele>18</ele>
        <time>2019-10-27T09:04:53Z</time>
      </trkpt>
      <trkpt lat="48.65399" lon="-2.35965">
        <ele>19</ele>
        <time>2019-10-27T09:05:13Z</time>
      </trkpt>
      <trkpt lat="48.65401" lon="-2.35959">
        <ele>19</ele>
        <time>2019-10-27T09:05:17Z</time>
      </trkpt>
      <trkpt lat="48.65406" lon="-2.35946">
        <ele>20</ele>
        <time>2019-10-27T09:05:26Z</time>
      </trkpt>
      <trkpt lat="48.65412" lon="-2.35931">
        <ele>21</ele>
        <time>2019-10-27T09:05:35Z</time>
      </trkpt>
      <trkpt lat="48.65419" lon="-2.35912">
        <ele>21</ele>
        <time>2019-10-27T09:05:48Z</time>
      </trkpt>
      <trkpt lat="48.65423" lon="-2.35907">
        <ele>22</ele>
        <time>2019-10-27T09:05:53Z</time>
      </trkpt>
      <trkpt lat="48.65428" lon="-2.35907">
        <ele>21</ele>
        <time>2019-10-27T09:05:57Z</time>
      </trkpt>
      <trkpt lat="48.65443" lon="-2.35909">
        <ele>20</ele>
        <time>2019-10-27T09:06:09Z</time>
      </trkpt>
      <trkpt lat="48.65458" lon="-2.35913">
        <ele>19</ele>
        <time>2019-10-27T09:06:21Z</time>
      </trkpt>
      <trkpt lat="48.65462" lon="-2.35914">
        <ele>19</ele>
        <time>2019-10-27T09:06:25Z</time>
      </trkpt>
      <trkpt lat="48.65472" lon="-2.35917">
        <ele>20</ele>
        <time>2019-10-27T09:06:33Z</time>
      </trkpt>
      <trkpt lat="48.65477" lon="-2.35915">
        <ele>20</ele>
        <time>2019-10-27T09:06:37Z</time>
      </trkpt>
      <trkpt lat="48.65482" lon="-2.35912">
        <ele>20</ele>
        <time>2019-10-27T09:06:41Z</time>
      </trkpt>
      <trkpt lat="48.6549" lon="-2.35903">
        <ele>19</ele>
        <time>2019-10-27T09:06:49Z</time>
      </trkpt>
      <trkpt lat="48.65512" lon="-2.35872">
        <ele>19</ele>
        <time>2019-10-27T09:07:12Z</time>
      </trkpt>
      <trkpt lat="48.65525" lon="-2.3586">
        <ele>18</ele>
        <time>2019-10-27T09:07:23Z</time>
      </trkpt>
      <trkpt lat="48.65539" lon="-2.35849">
        <ele>18</ele>
        <time>2019-10-27T09:07:35Z</time>
      </trkpt>
      <trkpt lat="48.65547" lon="-2.35839">
        <ele>18</ele>
        <time>2019-10-27T09:07:43Z</time>
      </trkpt>
      <trkpt lat="48.6555" lon="-2.35833">
        <ele>18</ele>
        <time>2019-10-27T09:07:47Z</time>
      </trkpt>
      <trkpt lat="48.65552" lon="-2.35825">
        <ele>18</ele>
        <time>2019-10-27T09:07:51Z</time>
      </trkpt>
      <trkpt lat="48.65556" lon="-2.35816">
        <ele>18</ele>
        <time>2019-10-27T09:07:58Z</time>
      </trkpt>
      <trkpt lat="48.65561" lon="-2.35817">
        <ele>17</ele>
        <time>2019-10-27T09:08:03Z</time>
      </trkpt>
      <trkpt lat="48.65567" lon="-2.35811">
        <ele>17</ele>
        <time>2019-10-27T09:08:09Z</time>
      </trkpt>
      <trkpt lat="48.65571" lon="-2.35809">
        <ele>17</ele>
        <time>2019-10-27T09:08:13Z</time>
      </trkpt>
      <trkpt lat="48.65579" lon="-2.35798">
        <ele>15</ele>
        <time>2019-10-27T09:08:22Z</time>
      </trkpt>
      <trkpt lat="48.6558" lon="-2.35789">
        <ele>13</ele>
        <time>2019-10-27T09:08:29Z</time>
      </trkpt>
      <trkpt lat="48.65598" lon="-2.3574">
        <ele>9</ele>
        <time>2019-10-27T09:08:55Z</time>
      </trkpt>
      <trkpt lat="48.65603" lon="-2.35735">
        <ele>9</ele>
        <time>2019-10-27T09:08:59Z</time>
      </trkpt>
      <trkpt lat="48.65611" lon="-2.35719">
        <ele>10</ele>
        <time>2019-10-27T09:09:14Z</time>
      </trkpt>
      <trkpt lat="48.65623" lon="-2.35695">
        <ele>12</ele>
        <time>2019-10-27T09:09:32Z</time>
      </trkpt>
      <trkpt lat="48.65627" lon="-2.3569">
        <ele>13</ele>
        <time>2019-10-27T09:09:37Z</time>
      </trkpt>
      <trkpt lat="48.65633" lon="-2.35686">
        <ele>13</ele>
        <time>2019-10-27T09:12:34Z</time>
      </trkpt>
      <trkpt lat="48.65642" lon="-2.35679">
        <ele>14</ele>
        <time>2019-10-27T09:12:42Z</time>
      </trkpt>
      <trkpt lat="48.65647" lon="-2.35677">
        <ele>14</ele>
        <time>2019-10-27T09:12:46Z</time>
      </trkpt>
      <trkpt lat="48.65654" lon="-2.35673">
        <ele>14</ele>
        <time>2019-10-27T09:12:54Z</time>
      </trkpt>
      <trkpt lat="48.65669" lon="-2.35666">
        <ele>16</ele>
        <time>2019-10-27T09:13:08Z</time>
      </trkpt>
      <trkpt lat="48.65679" lon="-2.35659">
        <ele>18</ele>
        <time>2019-10-27T09:13:18Z</time>
      </trkpt>
      <trkpt lat="48.65686" lon="-2.35649">
        <ele>19</ele>
        <time>2019-10-27T09:13:26Z</time>
      </trkpt>
      <trkpt lat="48.65689" lon="-2.35641">
        <ele>19</ele>
        <time>2019-10-27T09:13:31Z</time>
      </trkpt>
      <trkpt lat="48.65689" lon="-2.35633">
        <ele>21</ele>
        <time>2019-10-27T09:13:36Z</time>
      </trkpt>
      <trkpt lat="48.65694" lon="-2.35603">
        <ele>21</ele>
        <time>2019-10-27T09:13:52Z</time>
      </trkpt>
      <trkpt lat="48.65698" lon="-2.35589">
        <ele>21</ele>
        <time>2019-10-27T09:14:00Z</time>
      </trkpt>
      <trkpt lat="48.65702" lon="-2.35568">
        <ele>23</ele>
        <time>2019-10-27T09:14:12Z</time>
      </trkpt>
      <trkpt lat="48.65703" lon="-2.3556">
        <ele>23</ele>
        <time>2019-10-27T09:14:16Z</time>
      </trkpt>
      <trkpt lat="48.65704" lon="-2.35552">
        <ele>23</ele>
        <time>2019-10-27T09:14:20Z</time>
      </trkpt>
      <trkpt lat="48.65708" lon="-2.35537">
        <ele>23</ele>
        <time>2019-10-27T09:14:29Z</time>
      </trkpt>
      <trkpt lat="48.65711" lon="-2.35532">
        <ele>23</ele>
        <time>2019-10-27T09:14:33Z</time>
      </trkpt>
      <trkpt lat="48.65715" lon="-2.35526">
        <ele>23</ele>
        <time>2019-10-27T09:14:37Z</time>
      </trkpt>
      <trkpt lat="48.65719" lon="-2.35524">
        <ele>23</ele>
        <time>2019-10-27T09:14:41Z</time>
      </trkpt>
      <trkpt lat="48.65726" lon="-2.35527">
        <ele>24</ele>
        <time>2019-10-27T09:14:49Z</time>
      </trkpt>
      <trkpt lat="48.65729" lon="-2.35533">
        <ele>23</ele>
        <time>2019-10-27T09:14:59Z</time>
      </trkpt>
      <trkpt lat="48.65732" lon="-2.35539">
        <ele>23</ele>
        <time>2019-10-27T09:15:03Z</time>
      </trkpt>
      <trkpt lat="48.65741" lon="-2.35546">
        <ele>22</ele>
        <time>2019-10-27T09:15:11Z</time>
      </trkpt>
      <trkpt lat="48.65746" lon="-2.35545">
        <ele>21</ele>
        <time>2019-10-27T09:15:15Z</time>
      </trkpt>
      <trkpt lat="48.65751" lon="-2.35546">
        <ele>22</ele>
        <time>2019-10-27T09:15:25Z</time>
      </trkpt>
      <trkpt lat="48.65755" lon="-2.35541">
        <ele>21</ele>
        <time>2019-10-27T09:15:43Z</time>
      </trkpt>
      <trkpt lat="48.65757" lon="-2.35533">
        <ele>21</ele>
        <time>2019-10-27T09:15:48Z</time>
      </trkpt>
      <trkpt lat="48.65762" lon="-2.35519">
        <ele>23</ele>
        <time>2019-10-27T09:15:56Z</time>
      </trkpt>
      <trkpt lat="48.65765" lon="-2.35504">
        <ele>25</ele>
        <time>2019-10-27T09:16:05Z</time>
      </trkpt>
      <trkpt lat="48.6577" lon="-2.3549">
        <ele>25</ele>
        <time>2019-10-27T09:16:13Z</time>
      </trkpt>
      <trkpt lat="48.65773" lon="-2.35483">
        <ele>26</ele>
        <time>2019-10-27T09:16:17Z</time>
      </trkpt>
      <trkpt lat="48.65776" lon="-2.35478">
        <ele>26</ele>
        <time>2019-10-27T09:16:21Z</time>
      </trkpt>
      <trkpt lat="48.65786" lon="-2.35471">
        <ele>24</ele>
        <time>2019-10-27T09:16:29Z</time>
      </trkpt>
      <trkpt lat="48.6579" lon="-2.35467">
        <ele>24</ele>
        <time>2019-10-27T09:16:33Z</time>
      </trkpt>
      <trkpt lat="48.65795" lon="-2.35468">
        <ele>24</ele>
        <time>2019-10-27T09:16:37Z</time>
      </trkpt>
      <trkpt lat="48.65801" lon="-2.35475">
        <ele>25</ele>
        <time>2019-10-27T09:16:45Z</time>
      </trkpt>
      <trkpt lat="48.65812" lon="-2.35502">
        <ele>24</ele>
        <time>2019-10-27T09:17:01Z</time>
      </trkpt>
      <trkpt lat="48.65816" lon="-2.35516">
        <ele>23</ele>
        <time>2019-10-27T09:17:09Z</time>
      </trkpt>
      <trkpt lat="48.6582" lon="-2.3552">
        <ele>23</ele>
        <time>2019-10-27T09:17:14Z</time>
      </trkpt>
      <trkpt lat="48.65829" lon="-2.3554">
        <ele>22</ele>
        <time>2019-10-27T09:17:27Z</time>
      </trkpt>
      <trkpt lat="48.6584" lon="-2.35558">
        <ele>22</ele>
        <time>2019-10-27T09:17:39Z</time>
      </trkpt>
      <trkpt lat="48.65848" lon="-2.35567">
        <ele>22</ele>
        <time>2019-10-27T09:17:47Z</time>
      </trkpt>
      <trkpt lat="48.65852" lon="-2.3557">
        <ele>22</ele>
        <time>2019-10-27T09:17:51Z</time>
      </trkpt>
      <trkpt lat="48.65862" lon="-2.35575">
        <ele>22</ele>
        <time>2019-10-27T09:17:59Z</time>
      </trkpt>
      <trkpt lat="48.65867" lon="-2.35574">
        <ele>22</ele>
        <time>2019-10-27T09:18:03Z</time>
      </trkpt>
      <trkpt lat="48.65872" lon="-2.35571">
        <ele>22</ele>
        <time>2019-10-27T09:18:07Z</time>
      </trkpt>
      <trkpt lat="48.65876" lon="-2.35567">
        <ele>22</ele>
        <time>2019-10-27T09:18:11Z</time>
      </trkpt>
      <trkpt lat="48.65879" lon="-2.3556">
        <ele>22</ele>
        <time>2019-10-27T09:18:15Z</time>
      </trkpt>
      <trkpt lat="48.65887" lon="-2.3554">
        <ele>21</ele>
        <time>2019-10-27T09:18:27Z</time>
      </trkpt>
      <trkpt lat="48.65891" lon="-2.35535">
        <ele>20</ele>
        <time>2019-10-27T09:18:31Z</time>
      </trkpt>
      <trkpt lat="48.65922" lon="-2.35496">
        <ele>19</ele>
        <time>2019-10-27T09:19:04Z</time>
      </trkpt>
      <trkpt lat="48.65942" lon="-2.35482">
        <ele>16</ele>
        <time>2019-10-27T09:19:20Z</time>
      </trkpt>
      <trkpt lat="48.65944" lon="-2.35475">
        <ele>16</ele>
        <time>2019-10-27T09:19:24Z</time>
      </trkpt>
      <trkpt lat="48.65945" lon="-2.35468">
        <ele>16</ele>
        <time>2019-10-27T09:19:28Z</time>
      </trkpt>
      <trkpt lat="48.65944" lon="-2.3543">
        <ele>18</ele>
        <time>2019-10-27T09:19:48Z</time>
      </trkpt>
      <trkpt lat="48.65944" lon="-2.35423">
        <ele>17</ele>
        <time>2019-10-27T09:19:52Z</time>
      </trkpt>
      <trkpt lat="48.65939" lon="-2.35408">
        <ele>18</ele>
        <time>2019-10-27T09:20:01Z</time>
      </trkpt>
      <trkpt lat="48.65936" lon="-2.35402">
        <ele>18</ele>
        <time>2019-10-27T09:20:05Z</time>
      </trkpt>
      <trkpt lat="48.65929" lon="-2.35393">
        <ele>18</ele>
        <time>2019-10-27T09:20:13Z</time>
      </trkpt>
      <trkpt lat="48.65926" lon="-2.35388">
        <ele>19</ele>
        <time>2019-10-27T09:20:18Z</time>
      </trkpt>
      <trkpt lat="48.65923" lon="-2.35381">
        <ele>19</ele>
        <time>2019-10-27T09:20:23Z</time>
      </trkpt>
      <trkpt lat="48.65926" lon="-2.35374">
        <ele>20</ele>
        <time>2019-10-27T09:20:27Z</time>
      </trkpt>
      <trkpt lat="48.65936" lon="-2.35356">
        <ele>19</ele>
        <time>2019-10-27T09:20:39Z</time>
      </trkpt>
      <trkpt lat="48.65938" lon="-2.3535">
        <ele>20</ele>
        <time>2019-10-27T09:20:43Z</time>
      </trkpt>
      <trkpt lat="48.65951" lon="-2.35334">
        <ele>20</ele>
        <time>2019-10-27T09:20:56Z</time>
      </trkpt>
      <trkpt lat="48.65956" lon="-2.3533">
        <ele>20</ele>
        <time>2019-10-27T09:21:01Z</time>
      </trkpt>
      <trkpt lat="48.65979" lon="-2.35319">
        <ele>18</ele>
        <time>2019-10-27T09:21:21Z</time>
      </trkpt>
      <trkpt lat="48.65984" lon="-2.35311">
        <ele>18</ele>
        <time>2019-10-27T09:21:34Z</time>
      </trkpt>
      <trkpt lat="48.65985" lon="-2.35304">
        <ele>18</ele>
        <time>2019-10-27T09:21:38Z</time>
      </trkpt>
      <trkpt lat="48.65985" lon="-2.35292">
        <ele>18</ele>
        <time>2019-10-27T09:21:48Z</time>
      </trkpt>
      <trkpt lat="48.65987" lon="-2.35279">
        <ele>18</ele>
        <time>2019-10-27T09:21:57Z</time>
      </trkpt>
      <trkpt lat="48.65988" lon="-2.35272">
        <ele>17</ele>
        <time>2019-10-27T09:22:01Z</time>
      </trkpt>
      <trkpt lat="48.65998" lon="-2.35258">
        <ele>15</ele>
        <time>2019-10-27T09:22:14Z</time>
      </trkpt>
      <trkpt lat="48.66003" lon="-2.35255">
        <ele>14</ele>
        <time>2019-10-27T09:22:18Z</time>
      </trkpt>
      <trkpt lat="48.66008" lon="-2.35255">
        <ele>14</ele>
        <time>2019-10-27T09:22:22Z</time>
      </trkpt>
      <trkpt lat="48.66014" lon="-2.35258">
        <ele>13</ele>
        <time>2019-10-27T09:22:26Z</time>
      </trkpt>
      <trkpt lat="48.66019" lon="-2.35258">
        <ele>12</ele>
        <time>2019-10-27T09:22:30Z</time>
      </trkpt>
      <trkpt lat="48.66023" lon="-2.35255">
        <ele>12</ele>
        <time>2019-10-27T09:22:33Z</time>
      </trkpt>
      <trkpt lat="48.6603" lon="-2.35246">
        <ele>11</ele>
        <time>2019-10-27T09:22:41Z</time>
      </trkpt>
      <trkpt lat="48.66036" lon="-2.35247">
        <ele>11</ele>
        <time>2019-10-27T09:22:46Z</time>
      </trkpt>
      <trkpt lat="48.66045" lon="-2.3525">
        <ele>9</ele>
        <time>2019-10-27T09:22:55Z</time>
      </trkpt>
      <trkpt lat="48.66055" lon="-2.3524">
        <ele>8</ele>
        <time>2019-10-27T09:23:21Z</time>
      </trkpt>
      <trkpt lat="48.66058" lon="-2.35229">
        <ele>8</ele>
        <time>2019-10-27T09:23:40Z</time>
      </trkpt>
      <trkpt lat="48.66062" lon="-2.35223">
        <ele>8</ele>
        <time>2019-10-27T09:23:44Z</time>
      </trkpt>
      <trkpt lat="48.66062" lon="-2.35213">
        <ele>8</ele>
        <time>2019-10-27T09:23:51Z</time>
      </trkpt>
      <trkpt lat="48.66057" lon="-2.35203">
        <ele>10</ele>
        <time>2019-10-27T09:24:02Z</time>
      </trkpt>
      <trkpt lat="48.66052" lon="-2.35201">
        <ele>11</ele>
        <time>2019-10-27T09:24:08Z</time>
      </trkpt>
      <trkpt lat="48.66037" lon="-2.35188">
        <ele>15</ele>
        <time>2019-10-27T09:24:34Z</time>
      </trkpt>
      <trkpt lat="48.66038" lon="-2.3518">
        <ele>15</ele>
        <time>2019-10-27T09:24:39Z</time>
      </trkpt>
      <trkpt lat="48.66047" lon="-2.35165">
        <ele>17</ele>
        <time>2019-10-27T09:24:53Z</time>
      </trkpt>
      <trkpt lat="48.66051" lon="-2.35161">
        <ele>17</ele>
        <time>2019-10-27T09:24:58Z</time>
      </trkpt>
      <trkpt lat="48.66051" lon="-2.35137">
        <ele>21</ele>
        <time>2019-10-27T09:25:16Z</time>
      </trkpt>
      <trkpt lat="48.66054" lon="-2.35109">
        <ele>26</ele>
        <time>2019-10-27T09:25:36Z</time>
      </trkpt>
      <trkpt lat="48.66057" lon="-2.35102">
        <ele>27</ele>
        <time>2019-10-27T09:25:41Z</time>
      </trkpt>
      <trkpt lat="48.66061" lon="-2.35099">
        <ele>27</ele>
        <time>2019-10-27T09:25:45Z</time>
      </trkpt>
      <trkpt lat="48.66066" lon="-2.35097">
        <ele>25</ele>
        <time>2019-10-27T09:25:50Z</time>
      </trkpt>
      <trkpt lat="48.66072" lon="-2.35093">
        <ele>23</ele>
        <time>2019-10-27T09:25:57Z</time>
      </trkpt>
      <trkpt lat="48.66083" lon="-2.35099">
        <ele>21</ele>
        <time>2019-10-27T09:26:06Z</time>
      </trkpt>
      <trkpt lat="48.66088" lon="-2.35098">
        <ele>21</ele>
        <time>2019-10-27T09:26:15Z</time>
      </trkpt>
      <trkpt lat="48.66092" lon="-2.35102">
        <ele>21</ele>
        <time>2019-10-27T09:26:20Z</time>
      </trkpt>
      <trkpt lat="48.66095" lon="-2.35107">
        <ele>20</ele>
        <time>2019-10-27T09:26:29Z</time>
      </trkpt>
      <trkpt lat="48.661" lon="-2.35109">
        <ele>20</ele>
        <time>2019-10-27T09:26:33Z</time>
      </trkpt>
      <trkpt lat="48.66104" lon="-2.35105">
        <ele>20</ele>
        <time>2019-10-27T09:26:37Z</time>
      </trkpt>
      <trkpt lat="48.66106" lon="-2.35098">
        <ele>20</ele>
        <time>2019-10-27T09:26:41Z</time>
      </trkpt>
      <trkpt lat="48.66106" lon="-2.3508">
        <ele>19</ele>
        <time>2019-10-27T09:26:55Z</time>
      </trkpt>
      <trkpt lat="48.66104" lon="-2.35045">
        <ele>15</ele>
        <time>2019-10-27T09:27:19Z</time>
      </trkpt>
      <trkpt lat="48.66102" lon="-2.35029">
        <ele>15</ele>
        <time>2019-10-27T09:27:27Z</time>
      </trkpt>
      <trkpt lat="48.661" lon="-2.35008">
        <ele>14</ele>
        <time>2019-10-27T09:27:39Z</time>
      </trkpt>
      <trkpt lat="48.661" lon="-2.35">
        <ele>13</ele>
        <time>2019-10-27T09:27:43Z</time>
      </trkpt>
      <trkpt lat="48.66097" lon="-2.34989">
        <ele>13</ele>
        <time>2019-10-27T09:28:04Z</time>
      </trkpt>
      <trkpt lat="48.66091" lon="-2.34977">
        <ele>13</ele>
        <time>2019-10-27T09:28:12Z</time>
      </trkpt>
      <trkpt lat="48.66086" lon="-2.3496">
        <ele>14</ele>
        <time>2019-10-27T09:28:23Z</time>
      </trkpt>
      <trkpt lat="48.6608" lon="-2.34946">
        <ele>14</ele>
        <time>2019-10-27T09:28:31Z</time>
      </trkpt>
      <trkpt lat="48.66076" lon="-2.34941">
        <ele>15</ele>
        <time>2019-10-27T09:28:35Z</time>
      </trkpt>
      <trkpt lat="48.66074" lon="-2.34935">
        <ele>15</ele>
        <time>2019-10-27T09:28:39Z</time>
      </trkpt>
      <trkpt lat="48.66071" lon="-2.34929">
        <ele>15</ele>
        <time>2019-10-27T09:28:43Z</time>
      </trkpt>
      <trkpt lat="48.6606" lon="-2.34911">
        <ele>18</ele>
        <time>2019-10-27T09:28:58Z</time>
      </trkpt>
      <trkpt lat="48.66057" lon="-2.34898">
        <ele>19</ele>
        <time>2019-10-27T09:29:06Z</time>
      </trkpt>
      <trkpt lat="48.66053" lon="-2.34892">
        <ele>20</ele>
        <time>2019-10-27T09:29:11Z</time>
      </trkpt>
      <trkpt lat="48.66051" lon="-2.34885">
        <ele>21</ele>
        <time>2019-10-27T09:29:16Z</time>
      </trkpt>
      <trkpt lat="48.66051" lon="-2.34876">
        <ele>23</ele>
        <time>2019-10-27T09:29:23Z</time>
      </trkpt>
      <trkpt lat="48.66053" lon="-2.34867">
        <ele>22</ele>
        <time>2019-10-27T09:30:25Z</time>
      </trkpt>
      <trkpt lat="48.66062" lon="-2.34861">
        <ele>21</ele>
        <time>2019-10-27T09:30:31Z</time>
      </trkpt>
      <trkpt lat="48.66076" lon="-2.34852">
        <ele>21</ele>
        <time>2019-10-27T09:30:41Z</time>
      </trkpt>
      <trkpt lat="48.66105" lon="-2.34826">
        <ele>18</ele>
        <time>2019-10-27T09:31:05Z</time>
      </trkpt>
      <trkpt lat="48.66108" lon="-2.3482">
        <ele>18</ele>
        <time>2019-10-27T09:31:09Z</time>
      </trkpt>
      <trkpt lat="48.6611" lon="-2.34797">
        <ele>18</ele>
        <time>2019-10-27T09:31:21Z</time>
      </trkpt>
      <trkpt lat="48.66116" lon="-2.34792">
        <ele>17</ele>
        <time>2019-10-27T09:31:41Z</time>
      </trkpt>
      <trkpt lat="48.66123" lon="-2.34791">
        <ele>17</ele>
        <time>2019-10-27T09:31:48Z</time>
      </trkpt>
      <trkpt lat="48.66128" lon="-2.34794">
        <ele>17</ele>
        <time>2019-10-27T09:31:52Z</time>
      </trkpt>
      <trkpt lat="48.66132" lon="-2.34798">
        <ele>17</ele>
        <time>2019-10-27T09:31:56Z</time>
      </trkpt>
      <trkpt lat="48.66136" lon="-2.34802">
        <ele>17</ele>
        <time>2019-10-27T09:32:00Z</time>
      </trkpt>
      <trkpt lat="48.66146" lon="-2.34806">
        <ele>17</ele>
        <time>2019-10-27T09:32:08Z</time>
      </trkpt>
      <trkpt lat="48.6615" lon="-2.34808">
        <ele>18</ele>
        <time>2019-10-27T09:32:12Z</time>
      </trkpt>
      <trkpt lat="48.66155" lon="-2.34811">
        <ele>17</ele>
        <time>2019-10-27T09:32:16Z</time>
      </trkpt>
      <trkpt lat="48.66165" lon="-2.34816">
        <ele>18</ele>
        <time>2019-10-27T09:32:24Z</time>
      </trkpt>
      <trkpt lat="48.66179" lon="-2.34823">
        <ele>17</ele>
        <time>2019-10-27T09:32:36Z</time>
      </trkpt>
      <trkpt lat="48.66184" lon="-2.34827">
        <ele>18</ele>
        <time>2019-10-27T09:32:40Z</time>
      </trkpt>
      <trkpt lat="48.66189" lon="-2.34828">
        <ele>18</ele>
        <time>2019-10-27T09:32:44Z</time>
      </trkpt>
      <trkpt lat="48.66199" lon="-2.34832">
        <ele>18</ele>
        <time>2019-10-27T09:32:52Z</time>
      </trkpt>
      <trkpt lat="48.66205" lon="-2.34834">
        <ele>19</ele>
        <time>2019-10-27T09:32:56Z</time>
      </trkpt>
      <trkpt lat="48.66241" lon="-2.34837">
        <ele>21</ele>
        <time>2019-10-27T09:33:24Z</time>
      </trkpt>
      <trkpt lat="48.66251" lon="-2.34833">
        <ele>21</ele>
        <time>2019-10-27T09:33:32Z</time>
      </trkpt>
      <trkpt lat="48.66263" lon="-2.34827">
        <ele>22</ele>
        <time>2019-10-27T09:33:45Z</time>
      </trkpt>
      <trkpt lat="48.66268" lon="-2.34826">
        <ele>23</ele>
        <time>2019-10-27T09:34:17Z</time>
      </trkpt>
      <trkpt lat="48.66275" lon="-2.3482">
        <ele>22</ele>
        <time>2019-10-27T09:34:29Z</time>
      </trkpt>
      <trkpt lat="48.66284" lon="-2.3481">
        <ele>24</ele>
        <time>2019-10-27T09:34:43Z</time>
      </trkpt>
      <trkpt lat="48.66288" lon="-2.34805">
        <ele>24</ele>
        <time>2019-10-27T09:34:48Z</time>
      </trkpt>
      <trkpt lat="48.66309" lon="-2.34779">
        <ele>27</ele>
        <time>2019-10-27T09:35:11Z</time>
      </trkpt>
      <trkpt lat="48.66315" lon="-2.34768">
        <ele>27</ele>
        <time>2019-10-27T09:35:19Z</time>
      </trkpt>
      <trkpt lat="48.66317" lon="-2.34761">
        <ele>27</ele>
        <time>2019-10-27T09:35:23Z</time>
      </trkpt>
      <trkpt lat="48.66326" lon="-2.34735">
        <ele>28</ele>
        <time>2019-10-27T09:35:39Z</time>
      </trkpt>
      <trkpt lat="48.66327" lon="-2.34727">
        <ele>29</ele>
        <time>2019-10-27T09:35:43Z</time>
      </trkpt>
      <trkpt lat="48.66333" lon="-2.34707">
        <ele>30</ele>
        <time>2019-10-27T09:35:55Z</time>
      </trkpt>
      <trkpt lat="48.66335" lon="-2.34699">
        <ele>30</ele>
        <time>2019-10-27T09:35:59Z</time>
      </trkpt>
      <trkpt lat="48.66337" lon="-2.34685">
        <ele>31</ele>
        <time>2019-10-27T09:36:07Z</time>
      </trkpt>
      <trkpt lat="48.66338" lon="-2.34649">
        <ele>31</ele>
        <time>2019-10-27T09:36:28Z</time>
      </trkpt>
      <trkpt lat="48.66336" lon="-2.34633">
        <ele>31</ele>
        <time>2019-10-27T09:36:38Z</time>
      </trkpt>
      <trkpt lat="48.66333" lon="-2.34617">
        <ele>32</ele>
        <time>2019-10-27T09:36:48Z</time>
      </trkpt>
      <trkpt lat="48.66332" lon="-2.3461">
        <ele>32</ele>
        <time>2019-10-27T09:36:52Z</time>
      </trkpt>
      <trkpt lat="48.66325" lon="-2.34558">
        <ele>34</ele>
        <time>2019-10-27T09:37:23Z</time>
      </trkpt>
      <trkpt lat="48.66323" lon="-2.34551">
        <ele>34</ele>
        <time>2019-10-27T09:37:27Z</time>
      </trkpt>
      <trkpt lat="48.66322" lon="-2.34543">
        <ele>35</ele>
        <time>2019-10-27T09:37:32Z</time>
      </trkpt>
      <trkpt lat="48.6632" lon="-2.34535">
        <ele>35</ele>
        <time>2019-10-27T09:37:37Z</time>
      </trkpt>
      <trkpt lat="48.66318" lon="-2.3452">
        <ele>36</ele>
        <time>2019-10-27T09:37:46Z</time>
      </trkpt>
      <trkpt lat="48.66311" lon="-2.34484">
        <ele>37</ele>
        <time>2019-10-27T09:38:07Z</time>
      </trkpt>
      <trkpt lat="48.66306" lon="-2.34462">
        <ele>39</ele>
        <time>2019-10-27T09:38:19Z</time>
      </trkpt>
      <trkpt lat="48.66306" lon="-2.34455">
        <ele>39</ele>
        <time>2019-10-27T09:38:23Z</time>
      </trkpt>
      <trkpt lat="48.66303" lon="-2.34407">
        <ele>40</ele>
        <time>2019-10-27T09:38:47Z</time>
      </trkpt>
      <trkpt lat="48.66303" lon="-2.34398">
        <ele>41</ele>
        <time>2019-10-27T09:38:52Z</time>
      </trkpt>
      <trkpt lat="48.66305" lon="-2.3439">
        <ele>41</ele>
        <time>2019-10-27T09:38:56Z</time>
      </trkpt>
      <trkpt lat="48.66306" lon="-2.34383">
        <ele>41</ele>
        <time>2019-10-27T09:39:00Z</time>
      </trkpt>
      <trkpt lat="48.66312" lon="-2.34362">
        <ele>41</ele>
        <time>2019-10-27T09:39:12Z</time>
      </trkpt>
      <trkpt lat="48.66327" lon="-2.34329">
        <ele>41</ele>
        <time>2019-10-27T09:39:32Z</time>
      </trkpt>
      <trkpt lat="48.66335" lon="-2.3432">
        <ele>42</ele>
        <time>2019-10-27T09:39:39Z</time>
      </trkpt>
      <trkpt lat="48.66339" lon="-2.34316">
        <ele>42</ele>
        <time>2019-10-27T09:39:42Z</time>
      </trkpt>
      <trkpt lat="48.66344" lon="-2.34313">
        <ele>43</ele>
        <time>2019-10-27T09:39:46Z</time>
      </trkpt>
      <trkpt lat="48.66348" lon="-2.34309">
        <ele>42</ele>
        <time>2019-10-27T09:39:50Z</time>
      </trkpt>
      <trkpt lat="48.66359" lon="-2.34302">
        <ele>42</ele>
        <time>2019-10-27T09:39:58Z</time>
      </trkpt>
      <trkpt lat="48.66364" lon="-2.34299">
        <ele>42</ele>
        <time>2019-10-27T09:40:02Z</time>
      </trkpt>
      <trkpt lat="48.66379" lon="-2.34294">
        <ele>42</ele>
        <time>2019-10-27T09:40:14Z</time>
      </trkpt>
      <trkpt lat="48.66389" lon="-2.34292">
        <ele>42</ele>
        <time>2019-10-27T09:40:22Z</time>
      </trkpt>
      <trkpt lat="48.66404" lon="-2.34291">
        <ele>42</ele>
        <time>2019-10-27T09:40:34Z</time>
      </trkpt>
      <trkpt lat="48.66409" lon="-2.3429">
        <ele>42</ele>
        <time>2019-10-27T09:40:38Z</time>
      </trkpt>
      <trkpt lat="48.66414" lon="-2.34289">
        <ele>42</ele>
        <time>2019-10-27T09:40:42Z</time>
      </trkpt>
      <trkpt lat="48.66425" lon="-2.34287">
        <ele>42</ele>
        <time>2019-10-27T09:40:50Z</time>
      </trkpt>
      <trkpt lat="48.66429" lon="-2.34286">
        <ele>42</ele>
        <time>2019-10-27T09:40:54Z</time>
      </trkpt>
      <trkpt lat="48.66439" lon="-2.34285">
        <ele>42</ele>
        <time>2019-10-27T09:41:02Z</time>
      </trkpt>
      <trkpt lat="48.66449" lon="-2.34284">
        <ele>42</ele>
        <time>2019-10-27T09:41:10Z</time>
      </trkpt>
      <trkpt lat="48.66465" lon="-2.34282">
        <ele>43</ele>
        <time>2019-10-27T09:41:22Z</time>
      </trkpt>
      <trkpt lat="48.66482" lon="-2.34278">
        <ele>42</ele>
        <time>2019-10-27T09:41:34Z</time>
      </trkpt>
      <trkpt lat="48.66487" lon="-2.34277">
        <ele>43</ele>
        <time>2019-10-27T09:41:38Z</time>
      </trkpt>
      <trkpt lat="48.66502" lon="-2.34271">
        <ele>41</ele>
        <time>2019-10-27T09:41:50Z</time>
      </trkpt>
      <trkpt lat="48.66512" lon="-2.34266">
        <ele>42</ele>
        <time>2019-10-27T09:41:58Z</time>
      </trkpt>
      <trkpt lat="48.66522" lon="-2.3426">
        <ele>41</ele>
        <time>2019-10-27T09:42:06Z</time>
      </trkpt>
      <trkpt lat="48.66527" lon="-2.34256">
        <ele>41</ele>
        <time>2019-10-27T09:42:10Z</time>
      </trkpt>
      <trkpt lat="48.66531" lon="-2.34254">
        <ele>41</ele>
        <time>2019-10-27T09:42:14Z</time>
      </trkpt>
      <trkpt lat="48.6655" lon="-2.34243">
        <ele>43</ele>
        <time>2019-10-27T09:42:30Z</time>
      </trkpt>
      <trkpt lat="48.66555" lon="-2.34247">
        <ele>41</ele>
        <time>2019-10-27T09:42:35Z</time>
      </trkpt>
      <trkpt lat="48.66561" lon="-2.34257">
        <ele>40</ele>
        <time>2019-10-27T09:42:43Z</time>
      </trkpt>
      <trkpt lat="48.66565" lon="-2.3426">
        <ele>39</ele>
        <time>2019-10-27T09:42:47Z</time>
      </trkpt>
      <trkpt lat="48.66569" lon="-2.34255">
        <ele>39</ele>
        <time>2019-10-27T09:42:52Z</time>
      </trkpt>
      <trkpt lat="48.66581" lon="-2.34249">
        <ele>40</ele>
        <time>2019-10-27T09:43:03Z</time>
      </trkpt>
      <trkpt lat="48.66586" lon="-2.34248">
        <ele>41</ele>
        <time>2019-10-27T09:43:07Z</time>
      </trkpt>
      <trkpt lat="48.66591" lon="-2.34246">
        <ele>40</ele>
        <time>2019-10-27T09:43:12Z</time>
      </trkpt>
      <trkpt lat="48.66595" lon="-2.3425">
        <ele>39</ele>
        <time>2019-10-27T09:43:17Z</time>
      </trkpt>
      <trkpt lat="48.66603" lon="-2.34252">
        <ele>38</ele>
        <time>2019-10-27T09:43:27Z</time>
      </trkpt>
      <trkpt lat="48.66608" lon="-2.34248">
        <ele>38</ele>
        <time>2019-10-27T09:43:31Z</time>
      </trkpt>
      <trkpt lat="48.66611" lon="-2.34242">
        <ele>38</ele>
        <time>2019-10-27T09:43:35Z</time>
      </trkpt>
      <trkpt lat="48.66616" lon="-2.34237">
        <ele>39</ele>
        <time>2019-10-27T09:43:40Z</time>
      </trkpt>
      <trkpt lat="48.6662" lon="-2.34236">
        <ele>39</ele>
        <time>2019-10-27T09:43:44Z</time>
      </trkpt>
      <trkpt lat="48.6663" lon="-2.34233">
        <ele>40</ele>
        <time>2019-10-27T09:43:52Z</time>
      </trkpt>
      <trkpt lat="48.66639" lon="-2.34228">
        <ele>42</ele>
        <time>2019-10-27T09:44:00Z</time>
      </trkpt>
      <trkpt lat="48.66644" lon="-2.34228">
        <ele>42</ele>
        <time>2019-10-27T09:44:04Z</time>
      </trkpt>
      <trkpt lat="48.66649" lon="-2.34229">
        <ele>41</ele>
        <time>2019-10-27T09:44:08Z</time>
      </trkpt>
      <trkpt lat="48.6666" lon="-2.34225">
        <ele>42</ele>
        <time>2019-10-27T09:44:18Z</time>
      </trkpt>
      <trkpt lat="48.66665" lon="-2.34226">
        <ele>43</ele>
        <time>2019-10-27T09:44:23Z</time>
      </trkpt>
      <trkpt lat="48.66669" lon="-2.34229">
        <ele>44</ele>
        <time>2019-10-27T09:44:27Z</time>
      </trkpt>
      <trkpt lat="48.66674" lon="-2.34232">
        <ele>44</ele>
        <time>2019-10-27T09:44:32Z</time>
      </trkpt>
      <trkpt lat="48.66679" lon="-2.34232">
        <ele>44</ele>
        <time>2019-10-27T09:44:37Z</time>
      </trkpt>
      <trkpt lat="48.66683" lon="-2.34228">
        <ele>45</ele>
        <time>2019-10-27T09:44:42Z</time>
      </trkpt>
      <trkpt lat="48.6669" lon="-2.34223">
        <ele>41</ele>
        <time>2019-10-27T09:45:29Z</time>
      </trkpt>
      <trkpt lat="48.66695" lon="-2.3421">
        <ele>43</ele>
        <time>2019-10-27T09:45:37Z</time>
      </trkpt>
      <trkpt lat="48.66699" lon="-2.34204">
        <ele>43</ele>
        <time>2019-10-27T09:45:42Z</time>
      </trkpt>
      <trkpt lat="48.66703" lon="-2.34199">
        <ele>43</ele>
        <time>2019-10-27T09:45:47Z</time>
      </trkpt>
      <trkpt lat="48.66706" lon="-2.34193">
        <ele>43</ele>
        <time>2019-10-27T09:45:51Z</time>
      </trkpt>
      <trkpt lat="48.66708" lon="-2.34186">
        <ele>43</ele>
        <time>2019-10-27T09:45:55Z</time>
      </trkpt>
      <trkpt lat="48.66709" lon="-2.34178">
        <ele>43</ele>
        <time>2019-10-27T09:46:00Z</time>
      </trkpt>
      <trkpt lat="48.66711" lon="-2.34163">
        <ele>42</ele>
        <time>2019-10-27T09:46:08Z</time>
      </trkpt>
      <trkpt lat="48.66713" lon="-2.34155">
        <ele>41</ele>
        <time>2019-10-27T09:46:12Z</time>
      </trkpt>
      <trkpt lat="48.66713" lon="-2.34148">
        <ele>40</ele>
        <time>2019-10-27T09:46:16Z</time>
      </trkpt>
      <trkpt lat="48.66711" lon="-2.3414">
        <ele>39</ele>
        <time>2019-10-27T09:46:20Z</time>
      </trkpt>
      <trkpt lat="48.66709" lon="-2.34133">
        <ele>40</ele>
        <time>2019-10-27T09:46:24Z</time>
      </trkpt>
      <trkpt lat="48.66708" lon="-2.34126">
        <ele>40</ele>
        <time>2019-10-27T09:46:28Z</time>
      </trkpt>
      <trkpt lat="48.66706" lon="-2.34119">
        <ele>40</ele>
        <time>2019-10-27T09:46:33Z</time>
      </trkpt>
      <trkpt lat="48.66701" lon="-2.34107">
        <ele>40</ele>
        <time>2019-10-27T09:46:40Z</time>
      </trkpt>
      <trkpt lat="48.66699" lon="-2.341">
        <ele>40</ele>
        <time>2019-10-27T09:46:44Z</time>
      </trkpt>
      <trkpt lat="48.66699" lon="-2.34092">
        <ele>40</ele>
        <time>2019-10-27T09:46:48Z</time>
      </trkpt>
      <trkpt lat="48.66702" lon="-2.34086">
        <ele>41</ele>
        <time>2019-10-27T09:46:52Z</time>
      </trkpt>
      <trkpt lat="48.66705" lon="-2.34081">
        <ele>41</ele>
        <time>2019-10-27T09:46:56Z</time>
      </trkpt>
      <trkpt lat="48.66725" lon="-2.34065">
        <ele>44</ele>
        <time>2019-10-27T09:48:19Z</time>
      </trkpt>
      <trkpt lat="48.66729" lon="-2.34063">
        <ele>44</ele>
        <time>2019-10-27T09:48:23Z</time>
      </trkpt>
      <trkpt lat="48.66738" lon="-2.34059">
        <ele>42</ele>
        <time>2019-10-27T09:48:31Z</time>
      </trkpt>
      <trkpt lat="48.66744" lon="-2.34057">
        <ele>42</ele>
        <time>2019-10-27T09:48:35Z</time>
      </trkpt>
      <trkpt lat="48.6676" lon="-2.34052">
        <ele>40</ele>
        <time>2019-10-27T09:48:51Z</time>
      </trkpt>
      <trkpt lat="48.6677" lon="-2.34047">
        <ele>42</ele>
        <time>2019-10-27T09:49:02Z</time>
      </trkpt>
      <trkpt lat="48.66776" lon="-2.34046">
        <ele>42</ele>
        <time>2019-10-27T09:49:07Z</time>
      </trkpt>
      <trkpt lat="48.66781" lon="-2.34046">
        <ele>43</ele>
        <time>2019-10-27T09:49:12Z</time>
      </trkpt>
      <trkpt lat="48.66785" lon="-2.34045">
        <ele>43</ele>
        <time>2019-10-27T09:49:16Z</time>
      </trkpt>
      <trkpt lat="48.6679" lon="-2.34045">
        <ele>43</ele>
        <time>2019-10-27T09:49:20Z</time>
      </trkpt>
      <trkpt lat="48.66794" lon="-2.34043">
        <ele>43</ele>
        <time>2019-10-27T09:49:24Z</time>
      </trkpt>
      <trkpt lat="48.66799" lon="-2.34038">
        <ele>43</ele>
        <time>2019-10-27T09:49:29Z</time>
      </trkpt>
      <trkpt lat="48.66802" lon="-2.34031">
        <ele>43</ele>
        <time>2019-10-27T09:49:33Z</time>
      </trkpt>
      <trkpt lat="48.66806" lon="-2.34021">
        <ele>41</ele>
        <time>2019-10-27T09:50:12Z</time>
      </trkpt>
      <trkpt lat="48.66807" lon="-2.34014">
        <ele>41</ele>
        <time>2019-10-27T09:50:16Z</time>
      </trkpt>
      <trkpt lat="48.66811" lon="-2.34">
        <ele>42</ele>
        <time>2019-10-27T09:50:24Z</time>
      </trkpt>
      <trkpt lat="48.66812" lon="-2.33993">
        <ele>42</ele>
        <time>2019-10-27T09:50:28Z</time>
      </trkpt>
      <trkpt lat="48.66811" lon="-2.33986">
        <ele>41</ele>
        <time>2019-10-27T09:50:32Z</time>
      </trkpt>
      <trkpt lat="48.66812" lon="-2.33978">
        <ele>42</ele>
        <time>2019-10-27T09:50:37Z</time>
      </trkpt>
      <trkpt lat="48.66812" lon="-2.3397">
        <ele>41</ele>
        <time>2019-10-27T09:50:42Z</time>
      </trkpt>
      <trkpt lat="48.66812" lon="-2.33963">
        <ele>41</ele>
        <time>2019-10-27T09:50:46Z</time>
      </trkpt>
      <trkpt lat="48.66812" lon="-2.33956">
        <ele>40</ele>
        <time>2019-10-27T09:50:50Z</time>
      </trkpt>
      <trkpt lat="48.66812" lon="-2.33947">
        <ele>40</ele>
        <time>2019-10-27T09:50:55Z</time>
      </trkpt>
      <trkpt lat="48.66816" lon="-2.33941">
        <ele>41</ele>
        <time>2019-10-27T09:50:59Z</time>
      </trkpt>
      <trkpt lat="48.6682" lon="-2.33937">
        <ele>40</ele>
        <time>2019-10-27T09:51:03Z</time>
      </trkpt>
      <trkpt lat="48.66827" lon="-2.33926">
        <ele>40</ele>
        <time>2019-10-27T09:51:11Z</time>
      </trkpt>
      <trkpt lat="48.66829" lon="-2.33921">
        <ele>40</ele>
        <time>2019-10-27T09:51:15Z</time>
      </trkpt>
      <trkpt lat="48.66831" lon="-2.33913">
        <ele>41</ele>
        <time>2019-10-27T09:51:19Z</time>
      </trkpt>
      <trkpt lat="48.6683" lon="-2.33904">
        <ele>40</ele>
        <time>2019-10-27T09:51:24Z</time>
      </trkpt>
      <trkpt lat="48.6683" lon="-2.33897">
        <ele>40</ele>
        <time>2019-10-27T09:51:28Z</time>
      </trkpt>
      <trkpt lat="48.66826" lon="-2.33892">
        <ele>40</ele>
        <time>2019-10-27T09:51:33Z</time>
      </trkpt>
      <trkpt lat="48.66821" lon="-2.33891">
        <ele>40</ele>
        <time>2019-10-27T09:51:38Z</time>
      </trkpt>
      <trkpt lat="48.66813" lon="-2.33892">
        <ele>39</ele>
        <time>2019-10-27T09:51:46Z</time>
      </trkpt>
      <trkpt lat="48.66802" lon="-2.33892">
        <ele>39</ele>
        <time>2019-10-27T09:51:56Z</time>
      </trkpt>
      <trkpt lat="48.66797" lon="-2.33893">
        <ele>40</ele>
        <time>2019-10-27T09:52:00Z</time>
      </trkpt>
      <trkpt lat="48.66793" lon="-2.33893">
        <ele>40</ele>
        <time>2019-10-27T09:52:04Z</time>
      </trkpt>
      <trkpt lat="48.66782" lon="-2.33892">
        <ele>38</ele>
        <time>2019-10-27T09:52:13Z</time>
      </trkpt>
      <trkpt lat="48.66777" lon="-2.33892">
        <ele>39</ele>
        <time>2019-10-27T09:52:17Z</time>
      </trkpt>
      <trkpt lat="48.66773" lon="-2.3389">
        <ele>39</ele>
        <time>2019-10-27T09:52:21Z</time>
      </trkpt>
      <trkpt lat="48.66762" lon="-2.33888">
        <ele>38</ele>
        <time>2019-10-27T09:52:29Z</time>
      </trkpt>
      <trkpt lat="48.66758" lon="-2.33887">
        <ele>38</ele>
        <time>2019-10-27T09:52:33Z</time>
      </trkpt>
      <trkpt lat="48.66752" lon="-2.33887">
        <ele>37</ele>
        <time>2019-10-27T09:52:38Z</time>
      </trkpt>
      <trkpt lat="48.66743" lon="-2.33888">
        <ele>36</ele>
        <time>2019-10-27T09:52:47Z</time>
      </trkpt>
      <trkpt lat="48.66732" lon="-2.33886">
        <ele>35</ele>
        <time>2019-10-27T09:52:55Z</time>
      </trkpt>
      <trkpt lat="48.66727" lon="-2.33885">
        <ele>35</ele>
        <time>2019-10-27T09:52:59Z</time>
      </trkpt>
      <trkpt lat="48.66721" lon="-2.33871">
        <ele>35</ele>
        <time>2019-10-27T09:53:08Z</time>
      </trkpt>
      <trkpt lat="48.66718" lon="-2.33866">
        <ele>35</ele>
        <time>2019-10-27T09:53:12Z</time>
      </trkpt>
      <trkpt lat="48.66715" lon="-2.3386">
        <ele>36</ele>
        <time>2019-10-27T09:53:16Z</time>
      </trkpt>
      <trkpt lat="48.66712" lon="-2.33853">
        <ele>35</ele>
        <time>2019-10-27T09:53:20Z</time>
      </trkpt>
      <trkpt lat="48.66709" lon="-2.33848">
        <ele>36</ele>
        <time>2019-10-27T09:53:37Z</time>
      </trkpt>
      <trkpt lat="48.66707" lon="-2.33835">
        <ele>37</ele>
        <time>2019-10-27T09:53:47Z</time>
      </trkpt>
      <trkpt lat="48.66709" lon="-2.33828">
        <ele>37</ele>
        <time>2019-10-27T09:53:51Z</time>
      </trkpt>
      <trkpt lat="48.66711" lon="-2.3382">
        <ele>37</ele>
        <time>2019-10-27T09:53:55Z</time>
      </trkpt>
      <trkpt lat="48.66713" lon="-2.33813">
        <ele>37</ele>
        <time>2019-10-27T09:53:59Z</time>
      </trkpt>
      <trkpt lat="48.66714" lon="-2.33806">
        <ele>37</ele>
        <time>2019-10-27T09:54:03Z</time>
      </trkpt>
      <trkpt lat="48.66728" lon="-2.33758">
        <ele>37</ele>
        <time>2019-10-27T09:54:31Z</time>
      </trkpt>
      <trkpt lat="48.66731" lon="-2.33752">
        <ele>38</ele>
        <time>2019-10-27T09:54:36Z</time>
      </trkpt>
      <trkpt lat="48.66738" lon="-2.3375">
        <ele>37</ele>
        <time>2019-10-27T09:54:43Z</time>
      </trkpt>
      <trkpt lat="48.66743" lon="-2.33748">
        <ele>38</ele>
        <time>2019-10-27T09:54:48Z</time>
      </trkpt>
      <trkpt lat="48.66747" lon="-2.33745">
        <ele>38</ele>
        <time>2019-10-27T09:54:52Z</time>
      </trkpt>
      <trkpt lat="48.66752" lon="-2.33743">
        <ele>38</ele>
        <time>2019-10-27T09:54:57Z</time>
      </trkpt>
      <trkpt lat="48.66762" lon="-2.33742">
        <ele>39</ele>
        <time>2019-10-27T09:55:05Z</time>
      </trkpt>
      <trkpt lat="48.66772" lon="-2.33746">
        <ele>39</ele>
        <time>2019-10-27T09:55:13Z</time>
      </trkpt>
      <trkpt lat="48.66777" lon="-2.33747">
        <ele>40</ele>
        <time>2019-10-27T09:55:18Z</time>
      </trkpt>
      <trkpt lat="48.66782" lon="-2.33744">
        <ele>40</ele>
        <time>2019-10-27T09:55:23Z</time>
      </trkpt>
      <trkpt lat="48.66788" lon="-2.33736">
        <ele>39</ele>
        <time>2019-10-27T09:55:33Z</time>
      </trkpt>
      <trkpt lat="48.6679" lon="-2.33729">
        <ele>39</ele>
        <time>2019-10-27T09:55:37Z</time>
      </trkpt>
      <trkpt lat="48.66797" lon="-2.3371">
        <ele>39</ele>
        <time>2019-10-27T09:55:49Z</time>
      </trkpt>
      <trkpt lat="48.66804" lon="-2.33699">
        <ele>40</ele>
        <time>2019-10-27T09:55:57Z</time>
      </trkpt>
      <trkpt lat="48.66813" lon="-2.33679">
        <ele>40</ele>
        <time>2019-10-27T09:56:09Z</time>
      </trkpt>
      <trkpt lat="48.6682" lon="-2.33668">
        <ele>41</ele>
        <time>2019-10-27T09:56:17Z</time>
      </trkpt>
      <trkpt lat="48.66823" lon="-2.33661">
        <ele>41</ele>
        <time>2019-10-27T09:56:21Z</time>
      </trkpt>
      <trkpt lat="48.66825" lon="-2.33654">
        <ele>41</ele>
        <time>2019-10-27T09:56:25Z</time>
      </trkpt>
      <trkpt lat="48.66824" lon="-2.33647">
        <ele>41</ele>
        <time>2019-10-27T09:56:29Z</time>
      </trkpt>
      <trkpt lat="48.66827" lon="-2.3364">
        <ele>41</ele>
        <time>2019-10-27T09:56:34Z</time>
      </trkpt>
      <trkpt lat="48.66832" lon="-2.33638">
        <ele>42</ele>
        <time>2019-10-27T09:56:38Z</time>
      </trkpt>
      <trkpt lat="48.66836" lon="-2.33634">
        <ele>42</ele>
        <time>2019-10-27T09:56:42Z</time>
      </trkpt>
      <trkpt lat="48.66841" lon="-2.33622">
        <ele>42</ele>
        <time>2019-10-27T09:56:49Z</time>
      </trkpt>
      <trkpt lat="48.66846" lon="-2.33617">
        <ele>42</ele>
        <time>2019-10-27T09:56:53Z</time>
      </trkpt>
      <trkpt lat="48.66853" lon="-2.33607">
        <ele>42</ele>
        <time>2019-10-27T09:57:00Z</time>
      </trkpt>
      <trkpt lat="48.66857" lon="-2.33601">
        <ele>42</ele>
        <time>2019-10-27T09:57:04Z</time>
      </trkpt>
      <trkpt lat="48.6686" lon="-2.33595">
        <ele>42</ele>
        <time>2019-10-27T09:57:08Z</time>
      </trkpt>
      <trkpt lat="48.6688" lon="-2.33552">
        <ele>41</ele>
        <time>2019-10-27T09:57:42Z</time>
      </trkpt>
      <trkpt lat="48.66885" lon="-2.33549">
        <ele>41</ele>
        <time>2019-10-27T09:57:47Z</time>
      </trkpt>
      <trkpt lat="48.66896" lon="-2.33552">
        <ele>41</ele>
        <time>2019-10-27T09:57:55Z</time>
      </trkpt>
      <trkpt lat="48.66907" lon="-2.33556">
        <ele>42</ele>
        <time>2019-10-27T09:58:03Z</time>
      </trkpt>
      <trkpt lat="48.66912" lon="-2.33556">
        <ele>42</ele>
        <time>2019-10-27T09:58:07Z</time>
      </trkpt>
      <trkpt lat="48.66916" lon="-2.33554">
        <ele>42</ele>
        <time>2019-10-27T09:58:11Z</time>
      </trkpt>
      <trkpt lat="48.66935" lon="-2.33536">
        <ele>41</ele>
        <time>2019-10-27T09:58:31Z</time>
      </trkpt>
      <trkpt lat="48.66951" lon="-2.33518">
        <ele>42</ele>
        <time>2019-10-27T09:58:48Z</time>
      </trkpt>
      <trkpt lat="48.66964" lon="-2.33505">
        <ele>44</ele>
        <time>2019-10-27T09:59:01Z</time>
      </trkpt>
      <trkpt lat="48.66973" lon="-2.33496">
        <ele>43</ele>
        <time>2019-10-27T09:59:11Z</time>
      </trkpt>
      <trkpt lat="48.66975" lon="-2.3349">
        <ele>43</ele>
        <time>2019-10-27T09:59:15Z</time>
      </trkpt>
      <trkpt lat="48.66977" lon="-2.33482">
        <ele>43</ele>
        <time>2019-10-27T09:59:19Z</time>
      </trkpt>
      <trkpt lat="48.66979" lon="-2.3346">
        <ele>44</ele>
        <time>2019-10-27T09:59:32Z</time>
      </trkpt>
      <trkpt lat="48.6698" lon="-2.33452">
        <ele>44</ele>
        <time>2019-10-27T09:59:36Z</time>
      </trkpt>
      <trkpt lat="48.66982" lon="-2.33428">
        <ele>46</ele>
        <time>2019-10-27T09:59:48Z</time>
      </trkpt>
      <trkpt lat="48.66982" lon="-2.3342">
        <ele>46</ele>
        <time>2019-10-27T09:59:53Z</time>
      </trkpt>
      <trkpt lat="48.66987" lon="-2.33411">
        <ele>46</ele>
        <time>2019-10-27T10:00:03Z</time>
      </trkpt>
      <trkpt lat="48.66992" lon="-2.33411">
        <ele>46</ele>
        <time>2019-10-27T10:00:08Z</time>
      </trkpt>
      <trkpt lat="48.66989" lon="-2.3341">
        <ele>46</ele>
        <time>2019-10-27T10:00:55Z</time>
      </trkpt>
      <trkpt lat="48.66991" lon="-2.3341">
        <ele>45</ele>
        <time>2019-10-27T10:01:40Z</time>
      </trkpt>
      <trkpt lat="48.66998" lon="-2.33412">
        <ele>45</ele>
        <time>2019-10-27T10:02:10Z</time>
      </trkpt>
      <trkpt lat="48.66995" lon="-2.33401">
        <ele>45</ele>
        <time>2019-10-27T10:10:19Z</time>
      </trkpt>
      <trkpt lat="48.66992" lon="-2.33396">
        <ele>44</ele>
        <time>2019-10-27T10:10:24Z</time>
      </trkpt>
      <trkpt lat="48.66989" lon="-2.33389">
        <ele>45</ele>
        <time>2019-10-27T10:10:28Z</time>
      </trkpt>
      <trkpt lat="48.66987" lon="-2.33376">
        <ele>44</ele>
        <time>2019-10-27T10:10:37Z</time>
      </trkpt>
      <trkpt lat="48.66985" lon="-2.33369">
        <ele>45</ele>
        <time>2019-10-27T10:10:41Z</time>
      </trkpt>
      <trkpt lat="48.66985" lon="-2.33362">
        <ele>45</ele>
        <time>2019-10-27T10:10:45Z</time>
      </trkpt>
      <trkpt lat="48.66984" lon="-2.33354">
        <ele>45</ele>
        <time>2019-10-27T10:10:49Z</time>
      </trkpt>
      <trkpt lat="48.66981" lon="-2.33347">
        <ele>45</ele>
        <time>2019-10-27T10:10:54Z</time>
      </trkpt>
      <trkpt lat="48.66981" lon="-2.33338">
        <ele>45</ele>
        <time>2019-10-27T10:10:59Z</time>
      </trkpt>
      <trkpt lat="48.66983" lon="-2.33332">
        <ele>45</ele>
        <time>2019-10-27T10:11:03Z</time>
      </trkpt>
      <trkpt lat="48.66985" lon="-2.33324">
        <ele>46</ele>
        <time>2019-10-27T10:11:07Z</time>
      </trkpt>
      <trkpt lat="48.66985" lon="-2.33317">
        <ele>47</ele>
        <time>2019-10-27T10:11:11Z</time>
      </trkpt>
      <trkpt lat="48.66984" lon="-2.33309">
        <ele>47</ele>
        <time>2019-10-27T10:11:15Z</time>
      </trkpt>
      <trkpt lat="48.66983" lon="-2.33301">
        <ele>47</ele>
        <time>2019-10-27T10:11:19Z</time>
      </trkpt>
      <trkpt lat="48.66979" lon="-2.33286">
        <ele>48</ele>
        <time>2019-10-27T10:11:27Z</time>
      </trkpt>
      <trkpt lat="48.66978" lon="-2.33279">
        <ele>48</ele>
        <time>2019-10-27T10:11:31Z</time>
      </trkpt>
      <trkpt lat="48.66978" lon="-2.33271">
        <ele>48</ele>
        <time>2019-10-27T10:11:35Z</time>
      </trkpt>
      <trkpt lat="48.66979" lon="-2.3324">
        <ele>48</ele>
        <time>2019-10-27T10:11:51Z</time>
      </trkpt>
      <trkpt lat="48.66979" lon="-2.33233">
        <ele>48</ele>
        <time>2019-10-27T10:11:55Z</time>
      </trkpt>
      <trkpt lat="48.66979" lon="-2.33218">
        <ele>49</ele>
        <time>2019-10-27T10:12:04Z</time>
      </trkpt>
      <trkpt lat="48.66983" lon="-2.33203">
        <ele>50</ele>
        <time>2019-10-27T10:12:13Z</time>
      </trkpt>
      <trkpt lat="48.66987" lon="-2.3319">
        <ele>51</ele>
        <time>2019-10-27T10:12:21Z</time>
      </trkpt>
      <trkpt lat="48.66989" lon="-2.33183">
        <ele>51</ele>
        <time>2019-10-27T10:12:25Z</time>
      </trkpt>
      <trkpt lat="48.6699" lon="-2.33176">
        <ele>52</ele>
        <time>2019-10-27T10:12:29Z</time>
      </trkpt>
      <trkpt lat="48.66992" lon="-2.33169">
        <ele>51</ele>
        <time>2019-10-27T10:12:33Z</time>
      </trkpt>
      <trkpt lat="48.66996" lon="-2.33163">
        <ele>52</ele>
        <time>2019-10-27T10:12:38Z</time>
      </trkpt>
      <trkpt lat="48.67" lon="-2.3316">
        <ele>51</ele>
        <time>2019-10-27T10:12:42Z</time>
      </trkpt>
      <trkpt lat="48.67007" lon="-2.33157">
        <ele>50</ele>
        <time>2019-10-27T10:12:50Z</time>
      </trkpt>
      <trkpt lat="48.67015" lon="-2.33147">
        <ele>51</ele>
        <time>2019-10-27T10:12:59Z</time>
      </trkpt>
      <trkpt lat="48.67019" lon="-2.33142">
        <ele>51</ele>
        <time>2019-10-27T10:13:04Z</time>
      </trkpt>
      <trkpt lat="48.67022" lon="-2.33136">
        <ele>52</ele>
        <time>2019-10-27T10:13:08Z</time>
      </trkpt>
      <trkpt lat="48.67025" lon="-2.3313">
        <ele>52</ele>
        <time>2019-10-27T10:13:12Z</time>
      </trkpt>
      <trkpt lat="48.67032" lon="-2.33111">
        <ele>51</ele>
        <time>2019-10-27T10:13:25Z</time>
      </trkpt>
      <trkpt lat="48.67034" lon="-2.33104">
        <ele>51</ele>
        <time>2019-10-27T10:13:29Z</time>
      </trkpt>
      <trkpt lat="48.67037" lon="-2.33098">
        <ele>51</ele>
        <time>2019-10-27T10:13:33Z</time>
      </trkpt>
      <trkpt lat="48.67054" lon="-2.33086">
        <ele>50</ele>
        <time>2019-10-27T10:13:48Z</time>
      </trkpt>
      <trkpt lat="48.67059" lon="-2.33084">
        <ele>50</ele>
        <time>2019-10-27T10:13:52Z</time>
      </trkpt>
      <trkpt lat="48.67068" lon="-2.33079">
        <ele>49</ele>
        <time>2019-10-27T10:14:00Z</time>
      </trkpt>
      <trkpt lat="48.67079" lon="-2.3308">
        <ele>48</ele>
        <time>2019-10-27T10:14:08Z</time>
      </trkpt>
      <trkpt lat="48.67084" lon="-2.33081">
        <ele>48</ele>
        <time>2019-10-27T10:14:13Z</time>
      </trkpt>
      <trkpt lat="48.67089" lon="-2.33082">
        <ele>48</ele>
        <time>2019-10-27T10:14:17Z</time>
      </trkpt>
      <trkpt lat="48.67093" lon="-2.3308">
        <ele>48</ele>
        <time>2019-10-27T10:14:21Z</time>
      </trkpt>
      <trkpt lat="48.67098" lon="-2.33076">
        <ele>48</ele>
        <time>2019-10-27T10:14:25Z</time>
      </trkpt>
      <trkpt lat="48.67102" lon="-2.33073">
        <ele>47</ele>
        <time>2019-10-27T10:14:29Z</time>
      </trkpt>
      <trkpt lat="48.67107" lon="-2.33069">
        <ele>47</ele>
        <time>2019-10-27T10:14:33Z</time>
      </trkpt>
      <trkpt lat="48.67108" lon="-2.33061">
        <ele>46</ele>
        <time>2019-10-27T10:14:38Z</time>
      </trkpt>
      <trkpt lat="48.67112" lon="-2.33056">
        <ele>47</ele>
        <time>2019-10-27T10:14:43Z</time>
      </trkpt>
      <trkpt lat="48.67114" lon="-2.33048">
        <ele>47</ele>
        <time>2019-10-27T10:14:48Z</time>
      </trkpt>
      <trkpt lat="48.67115" lon="-2.3304">
        <ele>47</ele>
        <time>2019-10-27T10:14:53Z</time>
      </trkpt>
      <trkpt lat="48.67122" lon="-2.33031">
        <ele>48</ele>
        <time>2019-10-27T10:15:02Z</time>
      </trkpt>
      <trkpt lat="48.67126" lon="-2.33015">
        <ele>49</ele>
        <time>2019-10-27T10:15:11Z</time>
      </trkpt>
      <trkpt lat="48.67131" lon="-2.33001">
        <ele>49</ele>
        <time>2019-10-27T10:15:20Z</time>
      </trkpt>
      <trkpt lat="48.67138" lon="-2.32982">
        <ele>49</ele>
        <time>2019-10-27T10:15:32Z</time>
      </trkpt>
      <trkpt lat="48.6714" lon="-2.32976">
        <ele>50</ele>
        <time>2019-10-27T10:15:36Z</time>
      </trkpt>
      <trkpt lat="48.67152" lon="-2.32953">
        <ele>51</ele>
        <time>2019-10-27T10:15:52Z</time>
      </trkpt>
      <trkpt lat="48.67157" lon="-2.3294">
        <ele>52</ele>
        <time>2019-10-27T10:16:01Z</time>
      </trkpt>
      <trkpt lat="48.6716" lon="-2.32934">
        <ele>52</ele>
        <time>2019-10-27T10:16:05Z</time>
      </trkpt>
      <trkpt lat="48.67163" lon="-2.32929">
        <ele>52</ele>
        <time>2019-10-27T10:16:09Z</time>
      </trkpt>
      <trkpt lat="48.67174" lon="-2.32913">
        <ele>52</ele>
        <time>2019-10-27T10:16:21Z</time>
      </trkpt>
      <trkpt lat="48.67178" lon="-2.32908">
        <ele>53</ele>
        <time>2019-10-27T10:16:25Z</time>
      </trkpt>
      <trkpt lat="48.67193" lon="-2.32887">
        <ele>52</ele>
        <time>2019-10-27T10:16:40Z</time>
      </trkpt>
      <trkpt lat="48.67196" lon="-2.32881">
        <ele>52</ele>
        <time>2019-10-27T10:16:44Z</time>
      </trkpt>
      <trkpt lat="48.67211" lon="-2.32858">
        <ele>51</ele>
        <time>2019-10-27T10:17:00Z</time>
      </trkpt>
      <trkpt lat="48.67217" lon="-2.32845">
        <ele>51</ele>
        <time>2019-10-27T10:17:08Z</time>
      </trkpt>
      <trkpt lat="48.67223" lon="-2.32833">
        <ele>50</ele>
        <time>2019-10-27T10:17:17Z</time>
      </trkpt>
      <trkpt lat="48.67227" lon="-2.32827">
        <ele>50</ele>
        <time>2019-10-27T10:17:21Z</time>
      </trkpt>
      <trkpt lat="48.6723" lon="-2.32821">
        <ele>51</ele>
        <time>2019-10-27T10:17:26Z</time>
      </trkpt>
      <trkpt lat="48.67232" lon="-2.32814">
        <ele>51</ele>
        <time>2019-10-27T10:17:30Z</time>
      </trkpt>
      <trkpt lat="48.67234" lon="-2.32807">
        <ele>51</ele>
        <time>2019-10-27T10:17:34Z</time>
      </trkpt>
      <trkpt lat="48.67246" lon="-2.32782">
        <ele>51</ele>
        <time>2019-10-27T10:17:50Z</time>
      </trkpt>
      <trkpt lat="48.67251" lon="-2.3277">
        <ele>52</ele>
        <time>2019-10-27T10:17:58Z</time>
      </trkpt>
      <trkpt lat="48.67254" lon="-2.32764">
        <ele>52</ele>
        <time>2019-10-27T10:18:02Z</time>
      </trkpt>
      <trkpt lat="48.67258" lon="-2.32758">
        <ele>53</ele>
        <time>2019-10-27T10:18:06Z</time>
      </trkpt>
      <trkpt lat="48.67261" lon="-2.32752">
        <ele>53</ele>
        <time>2019-10-27T10:18:10Z</time>
      </trkpt>
      <trkpt lat="48.6727" lon="-2.32736">
        <ele>54</ele>
        <time>2019-10-27T10:18:22Z</time>
      </trkpt>
      <trkpt lat="48.67274" lon="-2.32731">
        <ele>54</ele>
        <time>2019-10-27T10:18:26Z</time>
      </trkpt>
      <trkpt lat="48.67283" lon="-2.32724">
        <ele>55</ele>
        <time>2019-10-27T10:18:34Z</time>
      </trkpt>
      <trkpt lat="48.67287" lon="-2.3272">
        <ele>55</ele>
        <time>2019-10-27T10:18:38Z</time>
      </trkpt>
      <trkpt lat="48.67295" lon="-2.32712">
        <ele>55</ele>
        <time>2019-10-27T10:18:46Z</time>
      </trkpt>
      <trkpt lat="48.67306" lon="-2.32695">
        <ele>56</ele>
        <time>2019-10-27T10:18:58Z</time>
      </trkpt>
      <trkpt lat="48.67311" lon="-2.32692">
        <ele>55</ele>
        <time>2019-10-27T10:19:02Z</time>
      </trkpt>
      <trkpt lat="48.67319" lon="-2.32686">
        <ele>56</ele>
        <time>2019-10-27T10:19:10Z</time>
      </trkpt>
      <trkpt lat="48.67324" lon="-2.32681">
        <ele>56</ele>
        <time>2019-10-27T10:19:15Z</time>
      </trkpt>
      <trkpt lat="48.67334" lon="-2.32673">
        <ele>58</ele>
        <time>2019-10-27T10:19:24Z</time>
      </trkpt>
      <trkpt lat="48.67338" lon="-2.32674">
        <ele>58</ele>
        <time>2019-10-27T10:19:28Z</time>
      </trkpt>
      <trkpt lat="48.6736" lon="-2.32688">
        <ele>58</ele>
        <time>2019-10-27T10:19:47Z</time>
      </trkpt>
      <trkpt lat="48.67369" lon="-2.3269">
        <ele>59</ele>
        <time>2019-10-27T10:19:55Z</time>
      </trkpt>
      <trkpt lat="48.67379" lon="-2.32692">
        <ele>60</ele>
        <time>2019-10-27T10:20:03Z</time>
      </trkpt>
      <trkpt lat="48.67384" lon="-2.32694">
        <ele>59</ele>
        <time>2019-10-27T10:20:07Z</time>
      </trkpt>
      <trkpt lat="48.6739" lon="-2.32696">
        <ele>60</ele>
        <time>2019-10-27T10:20:11Z</time>
      </trkpt>
      <trkpt lat="48.67399" lon="-2.32703">
        <ele>60</ele>
        <time>2019-10-27T10:20:18Z</time>
      </trkpt>
      <trkpt lat="48.67413" lon="-2.32709">
        <ele>59</ele>
        <time>2019-10-27T10:20:29Z</time>
      </trkpt>
      <trkpt lat="48.67417" lon="-2.32711">
        <ele>59</ele>
        <time>2019-10-27T10:20:33Z</time>
      </trkpt>
      <trkpt lat="48.67422" lon="-2.32714">
        <ele>58</ele>
        <time>2019-10-27T10:20:37Z</time>
      </trkpt>
      <trkpt lat="48.67437" lon="-2.32722">
        <ele>58</ele>
        <time>2019-10-27T10:20:48Z</time>
      </trkpt>
      <trkpt lat="48.67442" lon="-2.32723">
        <ele>58</ele>
        <time>2019-10-27T10:20:52Z</time>
      </trkpt>
      <trkpt lat="48.67447" lon="-2.32723">
        <ele>58</ele>
        <time>2019-10-27T10:20:56Z</time>
      </trkpt>
      <trkpt lat="48.67452" lon="-2.32724">
        <ele>58</ele>
        <time>2019-10-27T10:21:00Z</time>
      </trkpt>
      <trkpt lat="48.67467" lon="-2.32729">
        <ele>58</ele>
        <time>2019-10-27T10:21:12Z</time>
      </trkpt>
      <trkpt lat="48.67476" lon="-2.32736">
        <ele>59</ele>
        <time>2019-10-27T10:21:20Z</time>
      </trkpt>
      <trkpt lat="48.67481" lon="-2.32737">
        <ele>59</ele>
        <time>2019-10-27T10:21:24Z</time>
      </trkpt>
      <trkpt lat="48.6749" lon="-2.3273">
        <ele>60</ele>
        <time>2019-10-27T10:21:32Z</time>
      </trkpt>
      <trkpt lat="48.67495" lon="-2.32727">
        <ele>59</ele>
        <time>2019-10-27T10:21:36Z</time>
      </trkpt>
      <trkpt lat="48.67498" lon="-2.32721">
        <ele>58</ele>
        <time>2019-10-27T10:21:40Z</time>
      </trkpt>
      <trkpt lat="48.67502" lon="-2.32718">
        <ele>58</ele>
        <time>2019-10-27T10:21:44Z</time>
      </trkpt>
      <trkpt lat="48.67507" lon="-2.32713">
        <ele>58</ele>
        <time>2019-10-27T10:21:48Z</time>
      </trkpt>
      <trkpt lat="48.6751" lon="-2.32706">
        <ele>57</ele>
        <time>2019-10-27T10:21:52Z</time>
      </trkpt>
      <trkpt lat="48.67518" lon="-2.32694">
        <ele>56</ele>
        <time>2019-10-27T10:22:00Z</time>
      </trkpt>
      <trkpt lat="48.67521" lon="-2.32688">
        <ele>56</ele>
        <time>2019-10-27T10:22:04Z</time>
      </trkpt>
      <trkpt lat="48.67523" lon="-2.32682">
        <ele>56</ele>
        <time>2019-10-27T10:22:08Z</time>
      </trkpt>
      <trkpt lat="48.67527" lon="-2.32676">
        <ele>56</ele>
        <time>2019-10-27T10:22:12Z</time>
      </trkpt>
      <trkpt lat="48.67531" lon="-2.32673">
        <ele>55</ele>
        <time>2019-10-27T10:22:17Z</time>
      </trkpt>
      <trkpt lat="48.67535" lon="-2.32669">
        <ele>56</ele>
        <time>2019-10-27T10:22:21Z</time>
      </trkpt>
      <trkpt lat="48.67542" lon="-2.32656">
        <ele>58</ele>
        <time>2019-10-27T10:22:31Z</time>
      </trkpt>
      <trkpt lat="48.67547" lon="-2.3265">
        <ele>58</ele>
        <time>2019-10-27T10:22:40Z</time>
      </trkpt>
      <trkpt lat="48.67552" lon="-2.32646">
        <ele>57</ele>
        <time>2019-10-27T10:22:44Z</time>
      </trkpt>
      <trkpt lat="48.67559" lon="-2.32635">
        <ele>57</ele>
        <time>2019-10-27T10:22:52Z</time>
      </trkpt>
      <trkpt lat="48.67568" lon="-2.32627">
        <ele>58</ele>
        <time>2019-10-27T10:23:01Z</time>
      </trkpt>
      <trkpt lat="48.67572" lon="-2.32622">
        <ele>57</ele>
        <time>2019-10-27T10:23:06Z</time>
      </trkpt>
      <trkpt lat="48.67575" lon="-2.32616">
        <ele>57</ele>
        <time>2019-10-27T10:23:11Z</time>
      </trkpt>
      <trkpt lat="48.67579" lon="-2.32612">
        <ele>56</ele>
        <time>2019-10-27T10:23:21Z</time>
      </trkpt>
      <trkpt lat="48.67579" lon="-2.32602">
        <ele>54</ele>
        <time>2019-10-27T10:23:46Z</time>
      </trkpt>
      <trkpt lat="48.67581" lon="-2.32594">
        <ele>56</ele>
        <time>2019-10-27T10:23:51Z</time>
      </trkpt>
      <trkpt lat="48.67583" lon="-2.32587">
        <ele>56</ele>
        <time>2019-10-27T10:23:56Z</time>
      </trkpt>
      <trkpt lat="48.67586" lon="-2.32576">
        <ele>56</ele>
        <time>2019-10-27T10:24:13Z</time>
      </trkpt>
      <trkpt lat="48.67588" lon="-2.32568">
        <ele>56</ele>
        <time>2019-10-27T10:24:18Z</time>
      </trkpt>
      <trkpt lat="48.6759" lon="-2.32561">
        <ele>57</ele>
        <time>2019-10-27T10:24:23Z</time>
      </trkpt>
      <trkpt lat="48.6759" lon="-2.32553">
        <ele>55</ele>
        <time>2019-10-27T10:24:30Z</time>
      </trkpt>
      <trkpt lat="48.67589" lon="-2.32546">
        <ele>55</ele>
        <time>2019-10-27T10:24:34Z</time>
      </trkpt>
      <trkpt lat="48.67586" lon="-2.32541">
        <ele>55</ele>
        <time>2019-10-27T10:24:38Z</time>
      </trkpt>
      <trkpt lat="48.6757" lon="-2.32524">
        <ele>58</ele>
        <time>2019-10-27T10:24:54Z</time>
      </trkpt>
      <trkpt lat="48.67566" lon="-2.3252">
        <ele>58</ele>
        <time>2019-10-27T10:24:58Z</time>
      </trkpt>
      <trkpt lat="48.67562" lon="-2.32514">
        <ele>58</ele>
        <time>2019-10-27T10:25:03Z</time>
      </trkpt>
      <trkpt lat="48.67559" lon="-2.32509">
        <ele>58</ele>
        <time>2019-10-27T10:25:07Z</time>
      </trkpt>
      <trkpt lat="48.67556" lon="-2.32503">
        <ele>58</ele>
        <time>2019-10-27T10:25:11Z</time>
      </trkpt>
      <trkpt lat="48.67557" lon="-2.32507">
        <ele>58</ele>
        <time>2019-10-27T10:25:56Z</time>
      </trkpt>
      <trkpt lat="48.6756" lon="-2.32513">
        <ele>58</ele>
        <time>2019-10-27T10:26:00Z</time>
      </trkpt>
      <trkpt lat="48.67564" lon="-2.32518">
        <ele>58</ele>
        <time>2019-10-27T10:26:04Z</time>
      </trkpt>
      <trkpt lat="48.67568" lon="-2.32524">
        <ele>58</ele>
        <time>2019-10-27T10:26:08Z</time>
      </trkpt>
      <trkpt lat="48.67589" lon="-2.32547">
        <ele>56</ele>
        <time>2019-10-27T10:26:30Z</time>
      </trkpt>
      <trkpt lat="48.67591" lon="-2.32553">
        <ele>56</ele>
        <time>2019-10-27T10:26:34Z</time>
      </trkpt>
      <trkpt lat="48.67591" lon="-2.32561">
        <ele>55</ele>
        <time>2019-10-27T10:26:38Z</time>
      </trkpt>
      <trkpt lat="48.6759" lon="-2.32567">
        <ele>55</ele>
        <time>2019-10-27T10:26:42Z</time>
      </trkpt>
      <trkpt lat="48.67588" lon="-2.32575">
        <ele>56</ele>
        <time>2019-10-27T10:26:47Z</time>
      </trkpt>
      <trkpt lat="48.67585" lon="-2.32584">
        <ele>56</ele>
        <time>2019-10-27T10:26:54Z</time>
      </trkpt>
      <trkpt lat="48.67589" lon="-2.32591">
        <ele>55</ele>
        <time>2019-10-27T10:27:01Z</time>
      </trkpt>
      <trkpt lat="48.67591" lon="-2.32603">
        <ele>53</ele>
        <time>2019-10-27T10:27:12Z</time>
      </trkpt>
      <trkpt lat="48.67595" lon="-2.32613">
        <ele>51</ele>
        <time>2019-10-27T10:27:24Z</time>
      </trkpt>
      <trkpt lat="48.67596" lon="-2.32624">
        <ele>50</ele>
        <time>2019-10-27T10:27:36Z</time>
      </trkpt>
      <trkpt lat="48.67601" lon="-2.32618">
        <ele>48</ele>
        <time>2019-10-27T10:27:41Z</time>
      </trkpt>
      <trkpt lat="48.67605" lon="-2.32613">
        <ele>48</ele>
        <time>2019-10-27T10:27:45Z</time>
      </trkpt>
      <trkpt lat="48.67611" lon="-2.32614">
        <ele>48</ele>
        <time>2019-10-27T10:27:49Z</time>
      </trkpt>
      <trkpt lat="48.67615" lon="-2.32618">
        <ele>48</ele>
        <time>2019-10-27T10:27:53Z</time>
      </trkpt>
      <trkpt lat="48.67619" lon="-2.32619">
        <ele>48</ele>
        <time>2019-10-27T10:27:58Z</time>
      </trkpt>
      <trkpt lat="48.67624" lon="-2.32611">
        <ele>50</ele>
        <time>2019-10-27T10:28:08Z</time>
      </trkpt>
      <trkpt lat="48.67624" lon="-2.3262">
        <ele>51</ele>
        <time>2019-10-27T10:28:13Z</time>
      </trkpt>
      <trkpt lat="48.67623" lon="-2.32628">
        <ele>51</ele>
        <time>2019-10-27T10:28:17Z</time>
      </trkpt>
      <trkpt lat="48.67623" lon="-2.32636">
        <ele>51</ele>
        <time>2019-10-27T10:28:21Z</time>
      </trkpt>
      <trkpt lat="48.67621" lon="-2.32657">
        <ele>52</ele>
        <time>2019-10-27T10:28:33Z</time>
      </trkpt>
      <trkpt lat="48.67619" lon="-2.32664">
        <ele>53</ele>
        <time>2019-10-27T10:28:37Z</time>
      </trkpt>
      <trkpt lat="48.67615" lon="-2.32678">
        <ele>52</ele>
        <time>2019-10-27T10:28:45Z</time>
      </trkpt>
      <trkpt lat="48.67611" lon="-2.32683">
        <ele>52</ele>
        <time>2019-10-27T10:28:49Z</time>
      </trkpt>
      <trkpt lat="48.67605" lon="-2.32697">
        <ele>52</ele>
        <time>2019-10-27T10:28:57Z</time>
      </trkpt>
      <trkpt lat="48.67604" lon="-2.32703">
        <ele>51</ele>
        <time>2019-10-27T10:29:01Z</time>
      </trkpt>
      <trkpt lat="48.67602" lon="-2.3271">
        <ele>52</ele>
        <time>2019-10-27T10:29:06Z</time>
      </trkpt>
      <trkpt lat="48.67611" lon="-2.32705">
        <ele>54</ele>
        <time>2019-10-27T10:29:44Z</time>
      </trkpt>
      <trkpt lat="48.67616" lon="-2.327">
        <ele>55</ele>
        <time>2019-10-27T10:29:52Z</time>
      </trkpt>
      <trkpt lat="48.67619" lon="-2.32694">
        <ele>56</ele>
        <time>2019-10-27T10:29:56Z</time>
      </trkpt>
      <trkpt lat="48.67622" lon="-2.32687">
        <ele>57</ele>
        <time>2019-10-27T10:30:00Z</time>
      </trkpt>
      <trkpt lat="48.67624" lon="-2.32679">
        <ele>57</ele>
        <time>2019-10-27T10:30:04Z</time>
      </trkpt>
      <trkpt lat="48.67629" lon="-2.32666">
        <ele>56</ele>
        <time>2019-10-27T10:30:12Z</time>
      </trkpt>
      <trkpt lat="48.67632" lon="-2.3266">
        <ele>56</ele>
        <time>2019-10-27T10:30:16Z</time>
      </trkpt>
      <trkpt lat="48.67637" lon="-2.32646">
        <ele>57</ele>
        <time>2019-10-27T10:30:25Z</time>
      </trkpt>
      <trkpt lat="48.67638" lon="-2.32638">
        <ele>58</ele>
        <time>2019-10-27T10:30:29Z</time>
      </trkpt>
      <trkpt lat="48.67639" lon="-2.3263">
        <ele>58</ele>
        <time>2019-10-27T10:30:33Z</time>
      </trkpt>
      <trkpt lat="48.67642" lon="-2.32625">
        <ele>58</ele>
        <time>2019-10-27T10:30:37Z</time>
      </trkpt>
      <trkpt lat="48.67651" lon="-2.32615">
        <ele>58</ele>
        <time>2019-10-27T10:30:45Z</time>
      </trkpt>
      <trkpt lat="48.6766" lon="-2.32611">
        <ele>58</ele>
        <time>2019-10-27T10:30:52Z</time>
      </trkpt>
      <trkpt lat="48.67665" lon="-2.32607">
        <ele>59</ele>
        <time>2019-10-27T10:30:56Z</time>
      </trkpt>
      <trkpt lat="48.67674" lon="-2.32601">
        <ele>60</ele>
        <time>2019-10-27T10:31:04Z</time>
      </trkpt>
      <trkpt lat="48.67681" lon="-2.3259">
        <ele>60</ele>
        <time>2019-10-27T10:31:12Z</time>
      </trkpt>
      <trkpt lat="48.67681" lon="-2.32581">
        <ele>59</ele>
        <time>2019-10-27T10:31:17Z</time>
      </trkpt>
      <trkpt lat="48.67679" lon="-2.32574">
        <ele>59</ele>
        <time>2019-10-27T10:31:21Z</time>
      </trkpt>
      <trkpt lat="48.67677" lon="-2.32567">
        <ele>59</ele>
        <time>2019-10-27T10:31:25Z</time>
      </trkpt>
      <trkpt lat="48.67677" lon="-2.32559">
        <ele>58</ele>
        <time>2019-10-27T10:31:29Z</time>
      </trkpt>
      <trkpt lat="48.67678" lon="-2.32551">
        <ele>58</ele>
        <time>2019-10-27T10:31:33Z</time>
      </trkpt>
      <trkpt lat="48.6768" lon="-2.32544">
        <ele>57</ele>
        <time>2019-10-27T10:31:36Z</time>
      </trkpt>
      <trkpt lat="48.67683" lon="-2.32538">
        <ele>57</ele>
        <time>2019-10-27T10:31:40Z</time>
      </trkpt>
      <trkpt lat="48.67691" lon="-2.32529">
        <ele>57</ele>
        <time>2019-10-27T10:31:50Z</time>
      </trkpt>
      <trkpt lat="48.67696" lon="-2.32526">
        <ele>57</ele>
        <time>2019-10-27T10:31:54Z</time>
      </trkpt>
      <trkpt lat="48.6771" lon="-2.32518">
        <ele>58</ele>
        <time>2019-10-27T10:32:05Z</time>
      </trkpt>
      <trkpt lat="48.67714" lon="-2.32513">
        <ele>58</ele>
        <time>2019-10-27T10:32:09Z</time>
      </trkpt>
      <trkpt lat="48.67718" lon="-2.32507">
        <ele>58</ele>
        <time>2019-10-27T10:32:13Z</time>
      </trkpt>
      <trkpt lat="48.67721" lon="-2.32501">
        <ele>59</ele>
        <time>2019-10-27T10:32:17Z</time>
      </trkpt>
      <trkpt lat="48.67725" lon="-2.32495">
        <ele>58</ele>
        <time>2019-10-27T10:32:21Z</time>
      </trkpt>
      <trkpt lat="48.67735" lon="-2.32492">
        <ele>58</ele>
        <time>2019-10-27T10:32:29Z</time>
      </trkpt>
      <trkpt lat="48.6774" lon="-2.32489">
        <ele>59</ele>
        <time>2019-10-27T10:32:33Z</time>
      </trkpt>
      <trkpt lat="48.67745" lon="-2.32488">
        <ele>59</ele>
        <time>2019-10-27T10:32:37Z</time>
      </trkpt>
      <trkpt lat="48.67755" lon="-2.3249">
        <ele>60</ele>
        <time>2019-10-27T10:32:45Z</time>
      </trkpt>
      <trkpt lat="48.6776" lon="-2.32491">
        <ele>59</ele>
        <time>2019-10-27T10:32:50Z</time>
      </trkpt>
      <trkpt lat="48.67765" lon="-2.32489">
        <ele>60</ele>
        <time>2019-10-27T10:32:55Z</time>
      </trkpt>
      <trkpt lat="48.6777" lon="-2.32487">
        <ele>60</ele>
        <time>2019-10-27T10:32:59Z</time>
      </trkpt>
      <trkpt lat="48.67779" lon="-2.32483">
        <ele>60</ele>
        <time>2019-10-27T10:33:12Z</time>
      </trkpt>
      <trkpt lat="48.67788" lon="-2.32481">
        <ele>60</ele>
        <time>2019-10-27T10:33:33Z</time>
      </trkpt>
      <trkpt lat="48.67792" lon="-2.32482">
        <ele>60</ele>
        <time>2019-10-27T10:33:38Z</time>
      </trkpt>
      <trkpt lat="48.67797" lon="-2.32486">
        <ele>60</ele>
        <time>2019-10-27T10:33:42Z</time>
      </trkpt>
      <trkpt lat="48.67801" lon="-2.32488">
        <ele>60</ele>
        <time>2019-10-27T10:33:45Z</time>
      </trkpt>
      <trkpt lat="48.67806" lon="-2.32488">
        <ele>60</ele>
        <time>2019-10-27T10:33:49Z</time>
      </trkpt>
      <trkpt lat="48.67811" lon="-2.32487">
        <ele>60</ele>
        <time>2019-10-27T10:33:53Z</time>
      </trkpt>
      <trkpt lat="48.67822" lon="-2.32486">
        <ele>62</ele>
        <time>2019-10-27T10:34:01Z</time>
      </trkpt>
      <trkpt lat="48.67827" lon="-2.32486">
        <ele>61</ele>
        <time>2019-10-27T10:34:05Z</time>
      </trkpt>
      <trkpt lat="48.67832" lon="-2.32482">
        <ele>61</ele>
        <time>2019-10-27T10:34:09Z</time>
      </trkpt>
      <trkpt lat="48.67844" lon="-2.32467">
        <ele>60</ele>
        <time>2019-10-27T10:34:21Z</time>
      </trkpt>
      <trkpt lat="48.67849" lon="-2.32464">
        <ele>60</ele>
        <time>2019-10-27T10:34:25Z</time>
      </trkpt>
      <trkpt lat="48.67853" lon="-2.32466">
        <ele>59</ele>
        <time>2019-10-27T10:34:29Z</time>
      </trkpt>
      <trkpt lat="48.67858" lon="-2.32465">
        <ele>59</ele>
        <time>2019-10-27T10:34:33Z</time>
      </trkpt>
      <trkpt lat="48.67864" lon="-2.32467">
        <ele>59</ele>
        <time>2019-10-27T10:34:38Z</time>
      </trkpt>
      <trkpt lat="48.67867" lon="-2.32473">
        <ele>59</ele>
        <time>2019-10-27T10:34:42Z</time>
      </trkpt>
      <trkpt lat="48.67878" lon="-2.3249">
        <ele>60</ele>
        <time>2019-10-27T10:34:54Z</time>
      </trkpt>
      <trkpt lat="48.67882" lon="-2.32494">
        <ele>60</ele>
        <time>2019-10-27T10:34:58Z</time>
      </trkpt>
      <trkpt lat="48.67888" lon="-2.32493">
        <ele>61</ele>
        <time>2019-10-27T10:35:02Z</time>
      </trkpt>
      <trkpt lat="48.67892" lon="-2.32492">
        <ele>61</ele>
        <time>2019-10-27T10:35:06Z</time>
      </trkpt>
      <trkpt lat="48.67897" lon="-2.3249">
        <ele>60</ele>
        <time>2019-10-27T10:35:10Z</time>
      </trkpt>
      <trkpt lat="48.67922" lon="-2.32476">
        <ele>60</ele>
        <time>2019-10-27T10:35:30Z</time>
      </trkpt>
      <trkpt lat="48.67949" lon="-2.32456">
        <ele>60</ele>
        <time>2019-10-27T10:35:54Z</time>
      </trkpt>
      <trkpt lat="48.67959" lon="-2.3245">
        <ele>60</ele>
        <time>2019-10-27T10:36:02Z</time>
      </trkpt>
      <trkpt lat="48.67998" lon="-2.32431">
        <ele>61</ele>
        <time>2019-10-27T10:36:33Z</time>
      </trkpt>
      <trkpt lat="48.68007" lon="-2.32423">
        <ele>61</ele>
        <time>2019-10-27T10:36:42Z</time>
      </trkpt>
      <trkpt lat="48.68009" lon="-2.32417">
        <ele>61</ele>
        <time>2019-10-27T10:36:46Z</time>
      </trkpt>
      <trkpt lat="48.6801" lon="-2.3241">
        <ele>61</ele>
        <time>2019-10-27T10:36:50Z</time>
      </trkpt>
      <trkpt lat="48.68015" lon="-2.32408">
        <ele>62</ele>
        <time>2019-10-27T10:36:54Z</time>
      </trkpt>
      <trkpt lat="48.68021" lon="-2.32407">
        <ele>61</ele>
        <time>2019-10-27T10:36:59Z</time>
      </trkpt>
      <trkpt lat="48.68026" lon="-2.32408">
        <ele>62</ele>
        <time>2019-10-27T10:37:03Z</time>
      </trkpt>
      <trkpt lat="48.68031" lon="-2.32408">
        <ele>62</ele>
        <time>2019-10-27T10:37:08Z</time>
      </trkpt>
      <trkpt lat="48.68051" lon="-2.32401">
        <ele>61</ele>
        <time>2019-10-27T10:37:26Z</time>
      </trkpt>
      <trkpt lat="48.68056" lon="-2.32401">
        <ele>62</ele>
        <time>2019-10-27T10:37:30Z</time>
      </trkpt>
      <trkpt lat="48.6806" lon="-2.32402">
        <ele>63</ele>
        <time>2019-10-27T10:37:35Z</time>
      </trkpt>
      <trkpt lat="48.68066" lon="-2.32401">
        <ele>62</ele>
        <time>2019-10-27T10:37:43Z</time>
      </trkpt>
      <trkpt lat="48.68071" lon="-2.32402">
        <ele>60</ele>
        <time>2019-10-27T10:37:49Z</time>
      </trkpt>
      <trkpt lat="48.68077" lon="-2.32401">
        <ele>60</ele>
        <time>2019-10-27T10:37:54Z</time>
      </trkpt>
      <trkpt lat="48.68081" lon="-2.32397">
        <ele>61</ele>
        <time>2019-10-27T10:37:58Z</time>
      </trkpt>
      <trkpt lat="48.68087" lon="-2.32398">
        <ele>61</ele>
        <time>2019-10-27T10:38:02Z</time>
      </trkpt>
      <trkpt lat="48.68091" lon="-2.32395">
        <ele>61</ele>
        <time>2019-10-27T10:38:07Z</time>
      </trkpt>
      <trkpt lat="48.68096" lon="-2.32387">
        <ele>61</ele>
        <time>2019-10-27T10:38:15Z</time>
      </trkpt>
      <trkpt lat="48.68099" lon="-2.32383">
        <ele>62</ele>
        <time>2019-10-27T10:38:20Z</time>
      </trkpt>
      <trkpt lat="48.68104" lon="-2.32382">
        <ele>63</ele>
        <time>2019-10-27T10:38:25Z</time>
      </trkpt>
      <trkpt lat="48.68114" lon="-2.32382">
        <ele>62</ele>
        <time>2019-10-27T10:38:35Z</time>
      </trkpt>
      <trkpt lat="48.6812" lon="-2.32369">
        <ele>63</ele>
        <time>2019-10-27T10:38:43Z</time>
      </trkpt>
      <trkpt lat="48.68123" lon="-2.32363">
        <ele>64</ele>
        <time>2019-10-27T10:38:48Z</time>
      </trkpt>
      <trkpt lat="48.68126" lon="-2.32357">
        <ele>63</ele>
        <time>2019-10-27T10:38:53Z</time>
      </trkpt>
      <trkpt lat="48.68129" lon="-2.32351">
        <ele>64</ele>
        <time>2019-10-27T10:38:57Z</time>
      </trkpt>
      <trkpt lat="48.68136" lon="-2.32329">
        <ele>61</ele>
        <time>2019-10-27T10:39:15Z</time>
      </trkpt>
      <trkpt lat="48.68153" lon="-2.32291">
        <ele>56</ele>
        <time>2019-10-27T10:39:46Z</time>
      </trkpt>
      <trkpt lat="48.68156" lon="-2.32283">
        <ele>56</ele>
        <time>2019-10-27T10:39:51Z</time>
      </trkpt>
      <trkpt lat="48.68154" lon="-2.32276">
        <ele>56</ele>
        <time>2019-10-27T10:39:56Z</time>
      </trkpt>
      <trkpt lat="48.6815" lon="-2.32271">
        <ele>56</ele>
        <time>2019-10-27T10:40:00Z</time>
      </trkpt>
      <trkpt lat="48.68147" lon="-2.32266">
        <ele>55</ele>
        <time>2019-10-27T10:40:05Z</time>
      </trkpt>
      <trkpt lat="48.68144" lon="-2.3226">
        <ele>56</ele>
        <time>2019-10-27T10:40:16Z</time>
      </trkpt>
      <trkpt lat="48.6814" lon="-2.32255">
        <ele>56</ele>
        <time>2019-10-27T10:40:20Z</time>
      </trkpt>
      <trkpt lat="48.68136" lon="-2.32251">
        <ele>55</ele>
        <time>2019-10-27T10:40:24Z</time>
      </trkpt>
      <trkpt lat="48.68132" lon="-2.32245">
        <ele>56</ele>
        <time>2019-10-27T10:40:28Z</time>
      </trkpt>
      <trkpt lat="48.6813" lon="-2.32238">
        <ele>56</ele>
        <time>2019-10-27T10:40:32Z</time>
      </trkpt>
      <trkpt lat="48.68129" lon="-2.32232">
        <ele>57</ele>
        <time>2019-10-27T10:40:36Z</time>
      </trkpt>
      <trkpt lat="48.68131" lon="-2.32225">
        <ele>56</ele>
        <time>2019-10-27T10:40:40Z</time>
      </trkpt>
      <trkpt lat="48.68134" lon="-2.3222">
        <ele>56</ele>
        <time>2019-10-27T10:40:44Z</time>
      </trkpt>
      <trkpt lat="48.68138" lon="-2.32216">
        <ele>57</ele>
        <time>2019-10-27T10:40:49Z</time>
      </trkpt>
      <trkpt lat="48.68144" lon="-2.32212">
        <ele>57</ele>
        <time>2019-10-27T10:40:56Z</time>
      </trkpt>
      <trkpt lat="48.6815" lon="-2.32216">
        <ele>58</ele>
        <time>2019-10-27T10:41:03Z</time>
      </trkpt>
      <trkpt lat="48.6815" lon="-2.32207">
        <ele>58</ele>
        <time>2019-10-27T10:41:10Z</time>
      </trkpt>
      <trkpt lat="48.68148" lon="-2.32201">
        <ele>58</ele>
        <time>2019-10-27T10:41:15Z</time>
      </trkpt>
      <trkpt lat="48.68154" lon="-2.32199">
        <ele>59</ele>
        <time>2019-10-27T10:41:21Z</time>
      </trkpt>
      <trkpt lat="48.6817" lon="-2.32202">
        <ele>60</ele>
        <time>2019-10-27T10:41:35Z</time>
      </trkpt>
      <trkpt lat="48.68175" lon="-2.322">
        <ele>60</ele>
        <time>2019-10-27T10:41:39Z</time>
      </trkpt>
      <trkpt lat="48.6818" lon="-2.32201">
        <ele>61</ele>
        <time>2019-10-27T10:41:43Z</time>
      </trkpt>
      <trkpt lat="48.68188" lon="-2.32208">
        <ele>61</ele>
        <time>2019-10-27T10:41:51Z</time>
      </trkpt>
      <trkpt lat="48.68193" lon="-2.32208">
        <ele>61</ele>
        <time>2019-10-27T10:41:55Z</time>
      </trkpt>
      <trkpt lat="48.68198" lon="-2.32205">
        <ele>61</ele>
        <time>2019-10-27T10:42:00Z</time>
      </trkpt>
      <trkpt lat="48.68209" lon="-2.32197">
        <ele>62</ele>
        <time>2019-10-27T10:42:12Z</time>
      </trkpt>
      <trkpt lat="48.68222" lon="-2.32191">
        <ele>64</ele>
        <time>2019-10-27T10:42:25Z</time>
      </trkpt>
      <trkpt lat="48.68232" lon="-2.3219">
        <ele>64</ele>
        <time>2019-10-27T10:42:34Z</time>
      </trkpt>
      <trkpt lat="48.68242" lon="-2.32189">
        <ele>64</ele>
        <time>2019-10-27T10:42:43Z</time>
      </trkpt>
      <trkpt lat="48.68247" lon="-2.3219">
        <ele>64</ele>
        <time>2019-10-27T10:42:47Z</time>
      </trkpt>
      <trkpt lat="48.68257" lon="-2.32189">
        <ele>64</ele>
        <time>2019-10-27T10:42:56Z</time>
      </trkpt>
      <trkpt lat="48.68261" lon="-2.32188">
        <ele>64</ele>
        <time>2019-10-27T10:43:05Z</time>
      </trkpt>
      <trkpt lat="48.68267" lon="-2.32179">
        <ele>66</ele>
        <time>2019-10-27T10:43:17Z</time>
      </trkpt>
      <trkpt lat="48.68247" lon="-2.32168">
        <ele>67</ele>
        <time>2019-10-27T10:43:48Z</time>
      </trkpt>
      <trkpt lat="48.68243" lon="-2.32164">
        <ele>67</ele>
        <time>2019-10-27T10:43:53Z</time>
      </trkpt>
      <trkpt lat="48.68243" lon="-2.32157">
        <ele>68</ele>
        <time>2019-10-27T10:43:57Z</time>
      </trkpt>
      <trkpt lat="48.68244" lon="-2.32149">
        <ele>69</ele>
        <time>2019-10-27T10:44:01Z</time>
      </trkpt>
      <trkpt lat="48.68244" lon="-2.32142">
        <ele>69</ele>
        <time>2019-10-27T10:44:05Z</time>
      </trkpt>
      <trkpt lat="48.68242" lon="-2.32127">
        <ele>66</ele>
        <time>2019-10-27T10:44:14Z</time>
      </trkpt>
      <trkpt lat="48.6824" lon="-2.32121">
        <ele>65</ele>
        <time>2019-10-27T10:44:19Z</time>
      </trkpt>
      <trkpt lat="48.68228" lon="-2.32094">
        <ele>63</ele>
        <time>2019-10-27T10:44:35Z</time>
      </trkpt>
      <trkpt lat="48.68224" lon="-2.32089">
        <ele>63</ele>
        <time>2019-10-27T10:44:39Z</time>
      </trkpt>
      <trkpt lat="48.6822" lon="-2.32084">
        <ele>63</ele>
        <time>2019-10-27T10:44:43Z</time>
      </trkpt>
      <trkpt lat="48.68216" lon="-2.32079">
        <ele>63</ele>
        <time>2019-10-27T10:44:47Z</time>
      </trkpt>
      <trkpt lat="48.68217" lon="-2.32071">
        <ele>62</ele>
        <time>2019-10-27T10:44:52Z</time>
      </trkpt>
      <trkpt lat="48.6822" lon="-2.32064">
        <ele>62</ele>
        <time>2019-10-27T10:44:56Z</time>
      </trkpt>
      <trkpt lat="48.68234" lon="-2.32054">
        <ele>61</ele>
        <time>2019-10-27T10:45:07Z</time>
      </trkpt>
      <trkpt lat="48.6824" lon="-2.32052">
        <ele>61</ele>
        <time>2019-10-27T10:45:11Z</time>
      </trkpt>
      <trkpt lat="48.68245" lon="-2.32049">
        <ele>60</ele>
        <time>2019-10-27T10:45:15Z</time>
      </trkpt>
      <trkpt lat="48.68253" lon="-2.32028">
        <ele>60</ele>
        <time>2019-10-27T10:45:27Z</time>
      </trkpt>
      <trkpt lat="48.68256" lon="-2.32023">
        <ele>60</ele>
        <time>2019-10-27T10:45:31Z</time>
      </trkpt>
      <trkpt lat="48.68258" lon="-2.32017">
        <ele>61</ele>
        <time>2019-10-27T10:45:35Z</time>
      </trkpt>
      <trkpt lat="48.68285" lon="-2.31992">
        <ele>64</ele>
        <time>2019-10-27T10:46:05Z</time>
      </trkpt>
      <trkpt lat="48.68292" lon="-2.31983">
        <ele>64</ele>
        <time>2019-10-27T10:46:13Z</time>
      </trkpt>
      <trkpt lat="48.68303" lon="-2.31969">
        <ele>66</ele>
        <time>2019-10-27T10:46:27Z</time>
      </trkpt>
      <trkpt lat="48.6831" lon="-2.3197">
        <ele>66</ele>
        <time>2019-10-27T10:46:33Z</time>
      </trkpt>
      <trkpt lat="48.68315" lon="-2.31971">
        <ele>67</ele>
        <time>2019-10-27T10:46:37Z</time>
      </trkpt>
      <trkpt lat="48.6832" lon="-2.31972">
        <ele>67</ele>
        <time>2019-10-27T10:46:41Z</time>
      </trkpt>
      <trkpt lat="48.68324" lon="-2.31974">
        <ele>68</ele>
        <time>2019-10-27T10:46:45Z</time>
      </trkpt>
      <trkpt lat="48.6833" lon="-2.31976">
        <ele>67</ele>
        <time>2019-10-27T10:46:50Z</time>
      </trkpt>
      <trkpt lat="48.68339" lon="-2.31972">
        <ele>67</ele>
        <time>2019-10-27T10:46:59Z</time>
      </trkpt>
      <trkpt lat="48.68355" lon="-2.31972">
        <ele>68</ele>
        <time>2019-10-27T10:47:15Z</time>
      </trkpt>
      <trkpt lat="48.68361" lon="-2.31975">
        <ele>68</ele>
        <time>2019-10-27T10:47:20Z</time>
      </trkpt>
      <trkpt lat="48.68366" lon="-2.31971">
        <ele>68</ele>
        <time>2019-10-27T10:47:24Z</time>
      </trkpt>
      <trkpt lat="48.68372" lon="-2.31969">
        <ele>69</ele>
        <time>2019-10-27T10:47:51Z</time>
      </trkpt>
      <trkpt lat="48.68378" lon="-2.31967">
        <ele>69</ele>
        <time>2019-10-27T10:47:56Z</time>
      </trkpt>
      <trkpt lat="48.68387" lon="-2.31962">
        <ele>68</ele>
        <time>2019-10-27T10:48:04Z</time>
      </trkpt>
      <trkpt lat="48.68397" lon="-2.31957">
        <ele>68</ele>
        <time>2019-10-27T10:48:11Z</time>
      </trkpt>
      <trkpt lat="48.68401" lon="-2.31954">
        <ele>68</ele>
        <time>2019-10-27T10:48:15Z</time>
      </trkpt>
      <trkpt lat="48.68411" lon="-2.31947">
        <ele>70</ele>
        <time>2019-10-27T10:48:26Z</time>
      </trkpt>
      <trkpt lat="48.68416" lon="-2.31944">
        <ele>70</ele>
        <time>2019-10-27T10:48:31Z</time>
      </trkpt>
      <trkpt lat="48.68426" lon="-2.31935">
        <ele>71</ele>
        <time>2019-10-27T10:48:46Z</time>
      </trkpt>
      <trkpt lat="48.68429" lon="-2.31927">
        <ele>69</ele>
        <time>2019-10-27T10:49:15Z</time>
      </trkpt>
      <trkpt lat="48.68432" lon="-2.31919">
        <ele>69</ele>
        <time>2019-10-27T10:49:19Z</time>
      </trkpt>
      <trkpt lat="48.68433" lon="-2.31912">
        <ele>69</ele>
        <time>2019-10-27T10:49:23Z</time>
      </trkpt>
      <trkpt lat="48.68429" lon="-2.31908">
        <ele>67</ele>
        <time>2019-10-27T10:49:27Z</time>
      </trkpt>
      <trkpt lat="48.68418" lon="-2.31909">
        <ele>68</ele>
        <time>2019-10-27T10:49:36Z</time>
      </trkpt>
      <trkpt lat="48.68413" lon="-2.31908">
        <ele>70</ele>
        <time>2019-10-27T10:49:41Z</time>
      </trkpt>
      <trkpt lat="48.68405" lon="-2.31909">
        <ele>70</ele>
        <time>2019-10-27T10:50:09Z</time>
      </trkpt>
      <trkpt lat="48.68406" lon="-2.31917">
        <ele>70</ele>
        <time>2019-10-27T10:50:15Z</time>
      </trkpt>
      <trkpt lat="48.68407" lon="-2.31913">
        <ele>69</ele>
        <time>2019-10-27T10:50:44Z</time>
      </trkpt>
      <trkpt lat="48.68405" lon="-2.31911">
        <ele>69</ele>
        <time>2019-10-27T10:52:48Z</time>
      </trkpt>
      <trkpt lat="48.68396" lon="-2.31904">
        <ele>70</ele>
        <time>2019-10-27T10:52:56Z</time>
      </trkpt>
      <trkpt lat="48.68396" lon="-2.31897">
        <ele>71</ele>
        <time>2019-10-27T10:53:00Z</time>
      </trkpt>
      <trkpt lat="48.684" lon="-2.31889">
        <ele>70</ele>
        <time>2019-10-27T10:53:11Z</time>
      </trkpt>
      <trkpt lat="48.68391" lon="-2.31887">
        <ele>70</ele>
        <time>2019-10-27T10:53:57Z</time>
      </trkpt>
      <trkpt lat="48.68375" lon="-2.31887">
        <ele>69</ele>
        <time>2019-10-27T10:54:09Z</time>
      </trkpt>
      <trkpt lat="48.68371" lon="-2.31886">
        <ele>68</ele>
        <time>2019-10-27T10:54:13Z</time>
      </trkpt>
      <trkpt lat="48.68367" lon="-2.31882">
        <ele>68</ele>
        <time>2019-10-27T10:54:17Z</time>
      </trkpt>
      <trkpt lat="48.68357" lon="-2.31876">
        <ele>68</ele>
        <time>2019-10-27T10:54:26Z</time>
      </trkpt>
      <trkpt lat="48.68352" lon="-2.31874">
        <ele>67</ele>
        <time>2019-10-27T10:54:30Z</time>
      </trkpt>
      <trkpt lat="48.68347" lon="-2.31873">
        <ele>68</ele>
        <time>2019-10-27T10:54:34Z</time>
      </trkpt>
      <trkpt lat="48.68343" lon="-2.31868">
        <ele>68</ele>
        <time>2019-10-27T10:54:39Z</time>
      </trkpt>
      <trkpt lat="48.68341" lon="-2.31862">
        <ele>69</ele>
        <time>2019-10-27T10:55:12Z</time>
      </trkpt>
      <trkpt lat="48.6834" lon="-2.31854">
        <ele>68</ele>
        <time>2019-10-27T10:55:27Z</time>
      </trkpt>
      <trkpt lat="48.68339" lon="-2.31846">
        <ele>68</ele>
        <time>2019-10-27T10:55:32Z</time>
      </trkpt>
      <trkpt lat="48.68337" lon="-2.31838">
        <ele>68</ele>
        <time>2019-10-27T10:55:38Z</time>
      </trkpt>
      <trkpt lat="48.68335" lon="-2.31831">
        <ele>68</ele>
        <time>2019-10-27T10:55:42Z</time>
      </trkpt>
      <trkpt lat="48.68322" lon="-2.31806">
        <ele>66</ele>
        <time>2019-10-27T10:55:58Z</time>
      </trkpt>
      <trkpt lat="48.68314" lon="-2.31796">
        <ele>66</ele>
        <time>2019-10-27T10:56:07Z</time>
      </trkpt>
      <trkpt lat="48.6831" lon="-2.31784">
        <ele>65</ele>
        <time>2019-10-27T10:56:15Z</time>
      </trkpt>
      <trkpt lat="48.68306" lon="-2.31779">
        <ele>65</ele>
        <time>2019-10-27T10:56:19Z</time>
      </trkpt>
      <trkpt lat="48.68303" lon="-2.31772">
        <ele>65</ele>
        <time>2019-10-27T10:56:23Z</time>
      </trkpt>
      <trkpt lat="48.68301" lon="-2.31765">
        <ele>65</ele>
        <time>2019-10-27T10:56:27Z</time>
      </trkpt>
      <trkpt lat="48.68283" lon="-2.31719">
        <ele>65</ele>
        <time>2019-10-27T10:56:57Z</time>
      </trkpt>
      <trkpt lat="48.68282" lon="-2.31711">
        <ele>65</ele>
        <time>2019-10-27T10:57:01Z</time>
      </trkpt>
      <trkpt lat="48.6828" lon="-2.31704">
        <ele>65</ele>
        <time>2019-10-27T10:57:05Z</time>
      </trkpt>
      <trkpt lat="48.6828" lon="-2.31697">
        <ele>65</ele>
        <time>2019-10-27T10:57:10Z</time>
      </trkpt>
      <trkpt lat="48.68282" lon="-2.3169">
        <ele>65</ele>
        <time>2019-10-27T10:57:15Z</time>
      </trkpt>
      <trkpt lat="48.68286" lon="-2.31683">
        <ele>65</ele>
        <time>2019-10-27T10:57:33Z</time>
      </trkpt>
      <trkpt lat="48.68291" lon="-2.31671">
        <ele>65</ele>
        <time>2019-10-27T10:57:41Z</time>
      </trkpt>
      <trkpt lat="48.68294" lon="-2.31664">
        <ele>65</ele>
        <time>2019-10-27T10:57:46Z</time>
      </trkpt>
      <trkpt lat="48.68297" lon="-2.31658">
        <ele>66</ele>
        <time>2019-10-27T10:57:50Z</time>
      </trkpt>
      <trkpt lat="48.68301" lon="-2.31653">
        <ele>66</ele>
        <time>2019-10-27T10:57:54Z</time>
      </trkpt>
      <trkpt lat="48.68306" lon="-2.31649">
        <ele>66</ele>
        <time>2019-10-27T10:57:58Z</time>
      </trkpt>
      <trkpt lat="48.68309" lon="-2.31645">
        <ele>67</ele>
        <time>2019-10-27T10:58:02Z</time>
      </trkpt>
      <trkpt lat="48.68312" lon="-2.31638">
        <ele>66</ele>
        <time>2019-10-27T10:58:07Z</time>
      </trkpt>
      <trkpt lat="48.68316" lon="-2.31633">
        <ele>66</ele>
        <time>2019-10-27T10:58:11Z</time>
      </trkpt>
      <trkpt lat="48.6832" lon="-2.3162">
        <ele>67</ele>
        <time>2019-10-27T10:58:19Z</time>
      </trkpt>
      <trkpt lat="48.68321" lon="-2.31614">
        <ele>67</ele>
        <time>2019-10-27T10:58:23Z</time>
      </trkpt>
      <trkpt lat="48.6832" lon="-2.316">
        <ele>68</ele>
        <time>2019-10-27T10:58:31Z</time>
      </trkpt>
      <trkpt lat="48.68319" lon="-2.31593">
        <ele>68</ele>
        <time>2019-10-27T10:58:35Z</time>
      </trkpt>
      <trkpt lat="48.68318" lon="-2.31586">
        <ele>69</ele>
        <time>2019-10-27T10:58:39Z</time>
      </trkpt>
      <trkpt lat="48.68316" lon="-2.31563">
        <ele>69</ele>
        <time>2019-10-27T10:58:53Z</time>
      </trkpt>
      <trkpt lat="48.68314" lon="-2.31556">
        <ele>69</ele>
        <time>2019-10-27T10:58:57Z</time>
      </trkpt>
      <trkpt lat="48.68314" lon="-2.31549">
        <ele>69</ele>
        <time>2019-10-27T10:59:01Z</time>
      </trkpt>
      <trkpt lat="48.68314" lon="-2.31542">
        <ele>70</ele>
        <time>2019-10-27T10:59:05Z</time>
      </trkpt>
      <trkpt lat="48.68313" lon="-2.31533">
        <ele>71</ele>
        <time>2019-10-27T10:59:14Z</time>
      </trkpt>
      <trkpt lat="48.68309" lon="-2.31529">
        <ele>71</ele>
        <time>2019-10-27T10:59:19Z</time>
      </trkpt>
      <trkpt lat="48.68304" lon="-2.31528">
        <ele>71</ele>
        <time>2019-10-27T10:59:24Z</time>
      </trkpt>
      <trkpt lat="48.68299" lon="-2.31527">
        <ele>71</ele>
        <time>2019-10-27T10:59:29Z</time>
      </trkpt>
      <trkpt lat="48.68294" lon="-2.31525">
        <ele>70</ele>
        <time>2019-10-27T10:59:33Z</time>
      </trkpt>
      <trkpt lat="48.68284" lon="-2.31521">
        <ele>70</ele>
        <time>2019-10-27T10:59:41Z</time>
      </trkpt>
      <trkpt lat="48.68279" lon="-2.31518">
        <ele>70</ele>
        <time>2019-10-27T10:59:45Z</time>
      </trkpt>
      <trkpt lat="48.68274" lon="-2.31515">
        <ele>69</ele>
        <time>2019-10-27T10:59:49Z</time>
      </trkpt>
      <trkpt lat="48.6826" lon="-2.31505">
        <ele>70</ele>
        <time>2019-10-27T11:00:01Z</time>
      </trkpt>
      <trkpt lat="48.68256" lon="-2.31502">
        <ele>70</ele>
        <time>2019-10-27T11:00:06Z</time>
      </trkpt>
      <trkpt lat="48.68251" lon="-2.31498">
        <ele>70</ele>
        <time>2019-10-27T11:00:11Z</time>
      </trkpt>
      <trkpt lat="48.68242" lon="-2.31494">
        <ele>71</ele>
        <time>2019-10-27T11:00:21Z</time>
      </trkpt>
      <trkpt lat="48.68234" lon="-2.31485">
        <ele>68</ele>
        <time>2019-10-27T11:00:31Z</time>
      </trkpt>
      <trkpt lat="48.68229" lon="-2.31482">
        <ele>68</ele>
        <time>2019-10-27T11:00:36Z</time>
      </trkpt>
      <trkpt lat="48.68224" lon="-2.31478">
        <ele>68</ele>
        <time>2019-10-27T11:00:41Z</time>
      </trkpt>
      <trkpt lat="48.6822" lon="-2.31474">
        <ele>69</ele>
        <time>2019-10-27T11:00:46Z</time>
      </trkpt>
      <trkpt lat="48.68216" lon="-2.31471">
        <ele>68</ele>
        <time>2019-10-27T11:00:51Z</time>
      </trkpt>
      <trkpt lat="48.68211" lon="-2.3147">
        <ele>69</ele>
        <time>2019-10-27T11:00:56Z</time>
      </trkpt>
      <trkpt lat="48.68197" lon="-2.31459">
        <ele>69</ele>
        <time>2019-10-27T11:01:09Z</time>
      </trkpt>
      <trkpt lat="48.68183" lon="-2.31445">
        <ele>71</ele>
        <time>2019-10-27T11:01:26Z</time>
      </trkpt>
      <trkpt lat="48.68173" lon="-2.31441">
        <ele>75</ele>
        <time>2019-10-27T11:01:36Z</time>
      </trkpt>
      <trkpt lat="48.68168" lon="-2.31439">
        <ele>72</ele>
        <time>2019-10-27T11:01:41Z</time>
      </trkpt>
      <trkpt lat="48.68164" lon="-2.31435">
        <ele>71</ele>
        <time>2019-10-27T11:01:46Z</time>
      </trkpt>
      <trkpt lat="48.6816" lon="-2.3143">
        <ele>72</ele>
        <time>2019-10-27T11:01:50Z</time>
      </trkpt>
      <trkpt lat="48.68156" lon="-2.31426">
        <ele>72</ele>
        <time>2019-10-27T11:01:55Z</time>
      </trkpt>
      <trkpt lat="48.68152" lon="-2.31423">
        <ele>72</ele>
        <time>2019-10-27T11:02:00Z</time>
      </trkpt>
      <trkpt lat="48.68147" lon="-2.31421">
        <ele>72</ele>
        <time>2019-10-27T11:02:05Z</time>
      </trkpt>
      <trkpt lat="48.68142" lon="-2.31418">
        <ele>71</ele>
        <time>2019-10-27T11:02:09Z</time>
      </trkpt>
      <trkpt lat="48.68138" lon="-2.31418">
        <ele>70</ele>
        <time>2019-10-27T11:02:13Z</time>
      </trkpt>
      <trkpt lat="48.68133" lon="-2.31416">
        <ele>71</ele>
        <time>2019-10-27T11:02:17Z</time>
      </trkpt>
      <trkpt lat="48.68128" lon="-2.31414">
        <ele>70</ele>
        <time>2019-10-27T11:02:22Z</time>
      </trkpt>
      <trkpt lat="48.68112" lon="-2.31407">
        <ele>72</ele>
        <time>2019-10-27T11:02:35Z</time>
      </trkpt>
      <trkpt lat="48.68097" lon="-2.31401">
        <ele>71</ele>
        <time>2019-10-27T11:02:47Z</time>
      </trkpt>
      <trkpt lat="48.68092" lon="-2.314">
        <ele>71</ele>
        <time>2019-10-27T11:02:51Z</time>
      </trkpt>
      <trkpt lat="48.68087" lon="-2.31399">
        <ele>71</ele>
        <time>2019-10-27T11:02:55Z</time>
      </trkpt>
      <trkpt lat="48.68081" lon="-2.31399">
        <ele>70</ele>
        <time>2019-10-27T11:02:59Z</time>
      </trkpt>
      <trkpt lat="48.68077" lon="-2.31396">
        <ele>70</ele>
        <time>2019-10-27T11:03:03Z</time>
      </trkpt>
      <trkpt lat="48.68072" lon="-2.31395">
        <ele>70</ele>
        <time>2019-10-27T11:03:07Z</time>
      </trkpt>
      <trkpt lat="48.68067" lon="-2.31393">
        <ele>70</ele>
        <time>2019-10-27T11:03:11Z</time>
      </trkpt>
      <trkpt lat="48.68058" lon="-2.31386">
        <ele>71</ele>
        <time>2019-10-27T11:03:21Z</time>
      </trkpt>
      <trkpt lat="48.68054" lon="-2.31384">
        <ele>71</ele>
        <time>2019-10-27T11:03:25Z</time>
      </trkpt>
      <trkpt lat="48.68045" lon="-2.31377">
        <ele>72</ele>
        <time>2019-10-27T11:03:34Z</time>
      </trkpt>
      <trkpt lat="48.68037" lon="-2.31371">
        <ele>71</ele>
        <time>2019-10-27T11:03:43Z</time>
      </trkpt>
      <trkpt lat="48.68018" lon="-2.31362">
        <ele>65</ele>
        <time>2019-10-27T11:03:59Z</time>
      </trkpt>
      <trkpt lat="48.68012" lon="-2.31363">
        <ele>63</ele>
        <time>2019-10-27T11:04:04Z</time>
      </trkpt>
      <trkpt lat="48.68007" lon="-2.31361">
        <ele>64</ele>
        <time>2019-10-27T11:04:08Z</time>
      </trkpt>
      <trkpt lat="48.68003" lon="-2.31357">
        <ele>64</ele>
        <time>2019-10-27T11:04:12Z</time>
      </trkpt>
      <trkpt lat="48.67995" lon="-2.31348">
        <ele>62</ele>
        <time>2019-10-27T11:04:20Z</time>
      </trkpt>
      <trkpt lat="48.6799" lon="-2.31345">
        <ele>61</ele>
        <time>2019-10-27T11:04:24Z</time>
      </trkpt>
      <trkpt lat="48.67985" lon="-2.31344">
        <ele>61</ele>
        <time>2019-10-27T11:04:28Z</time>
      </trkpt>
      <trkpt lat="48.6798" lon="-2.31342">
        <ele>61</ele>
        <time>2019-10-27T11:04:32Z</time>
      </trkpt>
      <trkpt lat="48.67976" lon="-2.31341">
        <ele>61</ele>
        <time>2019-10-27T11:04:36Z</time>
      </trkpt>
      <trkpt lat="48.6797" lon="-2.31344">
        <ele>61</ele>
        <time>2019-10-27T11:04:40Z</time>
      </trkpt>
      <trkpt lat="48.67964" lon="-2.31356">
        <ele>60</ele>
        <time>2019-10-27T11:04:48Z</time>
      </trkpt>
      <trkpt lat="48.67957" lon="-2.31368">
        <ele>60</ele>
        <time>2019-10-27T11:04:56Z</time>
      </trkpt>
      <trkpt lat="48.67953" lon="-2.31372">
        <ele>60</ele>
        <time>2019-10-27T11:05:00Z</time>
      </trkpt>
      <trkpt lat="48.67949" lon="-2.31375">
        <ele>61</ele>
        <time>2019-10-27T11:05:04Z</time>
      </trkpt>
      <trkpt lat="48.67939" lon="-2.31382">
        <ele>60</ele>
        <time>2019-10-27T11:05:14Z</time>
      </trkpt>
      <trkpt lat="48.67934" lon="-2.31385">
        <ele>61</ele>
        <time>2019-10-27T11:05:19Z</time>
      </trkpt>
      <trkpt lat="48.67918" lon="-2.31397">
        <ele>58</ele>
        <time>2019-10-27T11:05:36Z</time>
      </trkpt>
      <trkpt lat="48.67913" lon="-2.314">
        <ele>58</ele>
        <time>2019-10-27T11:05:40Z</time>
      </trkpt>
      <trkpt lat="48.67908" lon="-2.31403">
        <ele>58</ele>
        <time>2019-10-27T11:05:44Z</time>
      </trkpt>
      <trkpt lat="48.67904" lon="-2.31406">
        <ele>58</ele>
        <time>2019-10-27T11:05:48Z</time>
      </trkpt>
      <trkpt lat="48.67899" lon="-2.31408">
        <ele>58</ele>
        <time>2019-10-27T11:05:52Z</time>
      </trkpt>
      <trkpt lat="48.67894" lon="-2.31411">
        <ele>59</ele>
        <time>2019-10-27T11:05:56Z</time>
      </trkpt>
      <trkpt lat="48.6789" lon="-2.31414">
        <ele>59</ele>
        <time>2019-10-27T11:06:01Z</time>
      </trkpt>
      <trkpt lat="48.67883" lon="-2.31418">
        <ele>61</ele>
        <time>2019-10-27T11:06:08Z</time>
      </trkpt>
      <trkpt lat="48.67879" lon="-2.31421">
        <ele>62</ele>
        <time>2019-10-27T11:06:12Z</time>
      </trkpt>
      <trkpt lat="48.67874" lon="-2.31422">
        <ele>61</ele>
        <time>2019-10-27T11:06:16Z</time>
      </trkpt>
      <trkpt lat="48.67864" lon="-2.31427">
        <ele>63</ele>
        <time>2019-10-27T11:06:26Z</time>
      </trkpt>
      <trkpt lat="48.67861" lon="-2.31432">
        <ele>62</ele>
        <time>2019-10-27T11:06:30Z</time>
      </trkpt>
      <trkpt lat="48.67856" lon="-2.31432">
        <ele>62</ele>
        <time>2019-10-27T11:06:34Z</time>
      </trkpt>
      <trkpt lat="48.67851" lon="-2.31431">
        <ele>62</ele>
        <time>2019-10-27T11:06:38Z</time>
      </trkpt>
      <trkpt lat="48.6784" lon="-2.31434">
        <ele>61</ele>
        <time>2019-10-27T11:06:46Z</time>
      </trkpt>
      <trkpt lat="48.67835" lon="-2.31436">
        <ele>62</ele>
        <time>2019-10-27T11:06:50Z</time>
      </trkpt>
      <trkpt lat="48.6783" lon="-2.31438">
        <ele>62</ele>
        <time>2019-10-27T11:06:54Z</time>
      </trkpt>
      <trkpt lat="48.67825" lon="-2.31439">
        <ele>62</ele>
        <time>2019-10-27T11:06:58Z</time>
      </trkpt>
      <trkpt lat="48.67813" lon="-2.31443">
        <ele>63</ele>
        <time>2019-10-27T11:07:06Z</time>
      </trkpt>
      <trkpt lat="48.67803" lon="-2.31449">
        <ele>63</ele>
        <time>2019-10-27T11:07:14Z</time>
      </trkpt>
      <trkpt lat="48.67799" lon="-2.3145">
        <ele>64</ele>
        <time>2019-10-27T11:07:18Z</time>
      </trkpt>
      <trkpt lat="48.67793" lon="-2.31449">
        <ele>64</ele>
        <time>2019-10-27T11:07:22Z</time>
      </trkpt>
      <trkpt lat="48.67788" lon="-2.31448">
        <ele>64</ele>
        <time>2019-10-27T11:07:26Z</time>
      </trkpt>
      <trkpt lat="48.67783" lon="-2.31449">
        <ele>63</ele>
        <time>2019-10-27T11:07:30Z</time>
      </trkpt>
      <trkpt lat="48.67779" lon="-2.31454">
        <ele>62</ele>
        <time>2019-10-27T11:07:34Z</time>
      </trkpt>
      <trkpt lat="48.67776" lon="-2.31461">
        <ele>63</ele>
        <time>2019-10-27T11:07:39Z</time>
      </trkpt>
      <trkpt lat="48.67771" lon="-2.31464">
        <ele>63</ele>
        <time>2019-10-27T11:07:43Z</time>
      </trkpt>
      <trkpt lat="48.67766" lon="-2.31469">
        <ele>63</ele>
        <time>2019-10-27T11:07:47Z</time>
      </trkpt>
      <trkpt lat="48.67765" lon="-2.31478">
        <ele>64</ele>
        <time>2019-10-27T11:07:58Z</time>
      </trkpt>
      <trkpt lat="48.6776" lon="-2.31482">
        <ele>65</ele>
        <time>2019-10-27T11:09:41Z</time>
      </trkpt>
      <trkpt lat="48.67729" lon="-2.31497">
        <ele>64</ele>
        <time>2019-10-27T11:10:17Z</time>
      </trkpt>
      <trkpt lat="48.67719" lon="-2.315">
        <ele>64</ele>
        <time>2019-10-27T11:10:25Z</time>
      </trkpt>
      <trkpt lat="48.67709" lon="-2.31506">
        <ele>65</ele>
        <time>2019-10-27T11:10:33Z</time>
      </trkpt>
      <trkpt lat="48.67684" lon="-2.31516">
        <ele>63</ele>
        <time>2019-10-27T11:10:52Z</time>
      </trkpt>
      <trkpt lat="48.67665" lon="-2.3152">
        <ele>63</ele>
        <time>2019-10-27T11:11:08Z</time>
      </trkpt>
      <trkpt lat="48.67659" lon="-2.31521">
        <ele>62</ele>
        <time>2019-10-27T11:11:13Z</time>
      </trkpt>
      <trkpt lat="48.67655" lon="-2.31523">
        <ele>62</ele>
        <time>2019-10-27T11:11:18Z</time>
      </trkpt>
      <trkpt lat="48.67648" lon="-2.31532">
        <ele>62</ele>
        <time>2019-10-27T11:11:31Z</time>
      </trkpt>
      <trkpt lat="48.67643" lon="-2.31528">
        <ele>62</ele>
        <time>2019-10-27T11:11:36Z</time>
      </trkpt>
      <trkpt lat="48.67638" lon="-2.3153">
        <ele>63</ele>
        <time>2019-10-27T11:11:41Z</time>
      </trkpt>
      <trkpt lat="48.67634" lon="-2.31534">
        <ele>64</ele>
        <time>2019-10-27T11:11:45Z</time>
      </trkpt>
      <trkpt lat="48.67628" lon="-2.31534">
        <ele>64</ele>
        <time>2019-10-27T11:11:50Z</time>
      </trkpt>
      <trkpt lat="48.67624" lon="-2.31532">
        <ele>64</ele>
        <time>2019-10-27T11:11:54Z</time>
      </trkpt>
      <trkpt lat="48.67619" lon="-2.3153">
        <ele>64</ele>
        <time>2019-10-27T11:11:58Z</time>
      </trkpt>
      <trkpt lat="48.67609" lon="-2.31536">
        <ele>65</ele>
        <time>2019-10-27T11:12:06Z</time>
      </trkpt>
      <trkpt lat="48.67599" lon="-2.31538">
        <ele>65</ele>
        <time>2019-10-27T11:12:14Z</time>
      </trkpt>
      <trkpt lat="48.67594" lon="-2.3154">
        <ele>65</ele>
        <time>2019-10-27T11:12:18Z</time>
      </trkpt>
      <trkpt lat="48.6759" lon="-2.31538">
        <ele>65</ele>
        <time>2019-10-27T11:12:22Z</time>
      </trkpt>
      <trkpt lat="48.67585" lon="-2.31536">
        <ele>66</ele>
        <time>2019-10-27T11:12:26Z</time>
      </trkpt>
      <trkpt lat="48.6758" lon="-2.31535">
        <ele>65</ele>
        <time>2019-10-27T11:12:30Z</time>
      </trkpt>
      <trkpt lat="48.67574" lon="-2.31533">
        <ele>64</ele>
        <time>2019-10-27T11:12:35Z</time>
      </trkpt>
      <trkpt lat="48.67565" lon="-2.31541">
        <ele>62</ele>
        <time>2019-10-27T11:12:44Z</time>
      </trkpt>
      <trkpt lat="48.67562" lon="-2.31547">
        <ele>60</ele>
        <time>2019-10-27T11:12:48Z</time>
      </trkpt>
      <trkpt lat="48.67551" lon="-2.31565">
        <ele>59</ele>
        <time>2019-10-27T11:13:00Z</time>
      </trkpt>
      <trkpt lat="48.67548" lon="-2.31571">
        <ele>59</ele>
        <time>2019-10-27T11:13:04Z</time>
      </trkpt>
      <trkpt lat="48.67542" lon="-2.31584">
        <ele>57</ele>
        <time>2019-10-27T11:13:12Z</time>
      </trkpt>
      <trkpt lat="48.67538" lon="-2.3159">
        <ele>57</ele>
        <time>2019-10-27T11:13:16Z</time>
      </trkpt>
      <trkpt lat="48.67537" lon="-2.31598">
        <ele>57</ele>
        <time>2019-10-27T11:13:20Z</time>
      </trkpt>
      <trkpt lat="48.67526" lon="-2.31642">
        <ele>56</ele>
        <time>2019-10-27T11:13:45Z</time>
      </trkpt>
      <trkpt lat="48.67519" lon="-2.31653">
        <ele>56</ele>
        <time>2019-10-27T11:13:53Z</time>
      </trkpt>
      <trkpt lat="48.67515" lon="-2.31658">
        <ele>55</ele>
        <time>2019-10-27T11:13:57Z</time>
      </trkpt>
      <trkpt lat="48.67509" lon="-2.3167">
        <ele>55</ele>
        <time>2019-10-27T11:14:05Z</time>
      </trkpt>
      <trkpt lat="48.67506" lon="-2.31676">
        <ele>55</ele>
        <time>2019-10-27T11:14:09Z</time>
      </trkpt>
      <trkpt lat="48.675" lon="-2.31681">
        <ele>54</ele>
        <time>2019-10-27T11:14:20Z</time>
      </trkpt>
      <trkpt lat="48.67491" lon="-2.31683">
        <ele>52</ele>
        <time>2019-10-27T11:14:28Z</time>
      </trkpt>
      <trkpt lat="48.67488" lon="-2.31677">
        <ele>52</ele>
        <time>2019-10-27T11:14:32Z</time>
      </trkpt>
      <trkpt lat="48.67484" lon="-2.31663">
        <ele>51</ele>
        <time>2019-10-27T11:14:39Z</time>
      </trkpt>
      <trkpt lat="48.67481" lon="-2.31657">
        <ele>51</ele>
        <time>2019-10-27T11:14:43Z</time>
      </trkpt>
      <trkpt lat="48.67478" lon="-2.31652">
        <ele>51</ele>
        <time>2019-10-27T11:14:47Z</time>
      </trkpt>
      <trkpt lat="48.67476" lon="-2.31644">
        <ele>52</ele>
        <time>2019-10-27T11:14:52Z</time>
      </trkpt>
      <trkpt lat="48.6748" lon="-2.3163">
        <ele>53</ele>
        <time>2019-10-27T11:15:01Z</time>
      </trkpt>
      <trkpt lat="48.67482" lon="-2.31623">
        <ele>53</ele>
        <time>2019-10-27T11:15:05Z</time>
      </trkpt>
      <trkpt lat="48.67487" lon="-2.31609">
        <ele>53</ele>
        <time>2019-10-27T11:15:14Z</time>
      </trkpt>
      <trkpt lat="48.67483" lon="-2.31593">
        <ele>55</ele>
        <time>2019-10-27T11:15:28Z</time>
      </trkpt>
      <trkpt lat="48.6748" lon="-2.316">
        <ele>57</ele>
        <time>2019-10-27T11:15:34Z</time>
      </trkpt>
      <trkpt lat="48.67477" lon="-2.31607">
        <ele>57</ele>
        <time>2019-10-27T11:15:39Z</time>
      </trkpt>
      <trkpt lat="48.67475" lon="-2.316">
        <ele>60</ele>
        <time>2019-10-27T11:15:52Z</time>
      </trkpt>
      <trkpt lat="48.6747" lon="-2.31603">
        <ele>60</ele>
        <time>2019-10-27T11:16:05Z</time>
      </trkpt>
      <trkpt lat="48.67467" lon="-2.31595">
        <ele>63</ele>
        <time>2019-10-27T11:16:20Z</time>
      </trkpt>
      <trkpt lat="48.6747" lon="-2.31588">
        <ele>63</ele>
        <time>2019-10-27T11:16:24Z</time>
      </trkpt>
      <trkpt lat="48.67471" lon="-2.31581">
        <ele>63</ele>
        <time>2019-10-27T11:16:28Z</time>
      </trkpt>
      <trkpt lat="48.6747" lon="-2.31574">
        <ele>64</ele>
        <time>2019-10-27T11:16:33Z</time>
      </trkpt>
      <trkpt lat="48.67454" lon="-2.31576">
        <ele>65</ele>
        <time>2019-10-27T11:16:46Z</time>
      </trkpt>
      <trkpt lat="48.67449" lon="-2.31576">
        <ele>65</ele>
        <time>2019-10-27T11:16:50Z</time>
      </trkpt>
      <trkpt lat="48.67439" lon="-2.31574">
        <ele>66</ele>
        <time>2019-10-27T11:17:00Z</time>
      </trkpt>
      <trkpt lat="48.67435" lon="-2.31571">
        <ele>67</ele>
        <time>2019-10-27T11:17:04Z</time>
      </trkpt>
      <trkpt lat="48.67425" lon="-2.31567">
        <ele>67</ele>
        <time>2019-10-27T11:17:12Z</time>
      </trkpt>
      <trkpt lat="48.67416" lon="-2.31566">
        <ele>67</ele>
        <time>2019-10-27T11:17:20Z</time>
      </trkpt>
      <trkpt lat="48.6741" lon="-2.31565">
        <ele>68</ele>
        <time>2019-10-27T11:17:24Z</time>
      </trkpt>
      <trkpt lat="48.67401" lon="-2.31564">
        <ele>67</ele>
        <time>2019-10-27T11:17:51Z</time>
      </trkpt>
      <trkpt lat="48.67365" lon="-2.31555">
        <ele>68</ele>
        <time>2019-10-27T11:18:19Z</time>
      </trkpt>
      <trkpt lat="48.67361" lon="-2.31556">
        <ele>68</ele>
        <time>2019-10-27T11:18:23Z</time>
      </trkpt>
      <trkpt lat="48.67355" lon="-2.31555">
        <ele>68</ele>
        <time>2019-10-27T11:18:28Z</time>
      </trkpt>
      <trkpt lat="48.6735" lon="-2.31553">
        <ele>68</ele>
        <time>2019-10-27T11:18:32Z</time>
      </trkpt>
      <trkpt lat="48.67345" lon="-2.31554">
        <ele>68</ele>
        <time>2019-10-27T11:18:36Z</time>
      </trkpt>
      <trkpt lat="48.6734" lon="-2.31552">
        <ele>68</ele>
        <time>2019-10-27T11:18:41Z</time>
      </trkpt>
      <trkpt lat="48.67326" lon="-2.31542">
        <ele>67</ele>
        <time>2019-10-27T11:18:55Z</time>
      </trkpt>
      <trkpt lat="48.67322" lon="-2.31538">
        <ele>66</ele>
        <time>2019-10-27T11:18:59Z</time>
      </trkpt>
      <trkpt lat="48.67303" lon="-2.31523">
        <ele>65</ele>
        <time>2019-10-27T11:19:16Z</time>
      </trkpt>
      <trkpt lat="48.67298" lon="-2.31522">
        <ele>65</ele>
        <time>2019-10-27T11:19:20Z</time>
      </trkpt>
      <trkpt lat="48.67293" lon="-2.3152">
        <ele>65</ele>
        <time>2019-10-27T11:19:25Z</time>
      </trkpt>
      <trkpt lat="48.67288" lon="-2.31519">
        <ele>64</ele>
        <time>2019-10-27T11:19:30Z</time>
      </trkpt>
      <trkpt lat="48.67283" lon="-2.31515">
        <ele>63</ele>
        <time>2019-10-27T11:19:35Z</time>
      </trkpt>
      <trkpt lat="48.6728" lon="-2.31508">
        <ele>63</ele>
        <time>2019-10-27T11:19:40Z</time>
      </trkpt>
      <trkpt lat="48.6728" lon="-2.31501">
        <ele>62</ele>
        <time>2019-10-27T11:19:44Z</time>
      </trkpt>
      <trkpt lat="48.67274" lon="-2.31488">
        <ele>62</ele>
        <time>2019-10-27T11:19:53Z</time>
      </trkpt>
      <trkpt lat="48.67269" lon="-2.31485">
        <ele>62</ele>
        <time>2019-10-27T11:19:57Z</time>
      </trkpt>
      <trkpt lat="48.67263" lon="-2.31484">
        <ele>62</ele>
        <time>2019-10-27T11:20:01Z</time>
      </trkpt>
      <trkpt lat="48.67259" lon="-2.31479">
        <ele>61</ele>
        <time>2019-10-27T11:20:06Z</time>
      </trkpt>
      <trkpt lat="48.67254" lon="-2.31467">
        <ele>61</ele>
        <time>2019-10-27T11:20:15Z</time>
      </trkpt>
      <trkpt lat="48.6725" lon="-2.31462">
        <ele>61</ele>
        <time>2019-10-27T11:20:20Z</time>
      </trkpt>
      <trkpt lat="48.67249" lon="-2.31455">
        <ele>62</ele>
        <time>2019-10-27T11:20:25Z</time>
      </trkpt>
      <trkpt lat="48.6725" lon="-2.31448">
        <ele>62</ele>
        <time>2019-10-27T11:20:29Z</time>
      </trkpt>
      <trkpt lat="48.67248" lon="-2.3144">
        <ele>63</ele>
        <time>2019-10-27T11:20:34Z</time>
      </trkpt>
      <trkpt lat="48.67241" lon="-2.31431">
        <ele>64</ele>
        <time>2019-10-27T11:20:43Z</time>
      </trkpt>
      <trkpt lat="48.67238" lon="-2.31421">
        <ele>64</ele>
        <time>2019-10-27T11:20:49Z</time>
      </trkpt>
      <trkpt lat="48.67235" lon="-2.31415">
        <ele>64</ele>
        <time>2019-10-27T11:20:54Z</time>
      </trkpt>
      <trkpt lat="48.67224" lon="-2.314">
        <ele>65</ele>
        <time>2019-10-27T11:21:08Z</time>
      </trkpt>
      <trkpt lat="48.67218" lon="-2.31389">
        <ele>65</ele>
        <time>2019-10-27T11:21:19Z</time>
      </trkpt>
      <trkpt lat="48.67209" lon="-2.31381">
        <ele>63</ele>
        <time>2019-10-27T11:21:30Z</time>
      </trkpt>
      <trkpt lat="48.67204" lon="-2.31376">
        <ele>64</ele>
        <time>2019-10-27T11:21:34Z</time>
      </trkpt>
      <trkpt lat="48.67194" lon="-2.31371">
        <ele>62</ele>
        <time>2019-10-27T11:21:43Z</time>
      </trkpt>
      <trkpt lat="48.6719" lon="-2.31366">
        <ele>61</ele>
        <time>2019-10-27T11:21:47Z</time>
      </trkpt>
      <trkpt lat="48.67187" lon="-2.31359">
        <ele>62</ele>
        <time>2019-10-27T11:21:52Z</time>
      </trkpt>
      <trkpt lat="48.67184" lon="-2.31354">
        <ele>62</ele>
        <time>2019-10-27T11:21:56Z</time>
      </trkpt>
      <trkpt lat="48.67172" lon="-2.31339">
        <ele>63</ele>
        <time>2019-10-27T11:22:10Z</time>
      </trkpt>
      <trkpt lat="48.67165" lon="-2.31329">
        <ele>62</ele>
        <time>2019-10-27T11:22:19Z</time>
      </trkpt>
      <trkpt lat="48.67157" lon="-2.31318">
        <ele>61</ele>
        <time>2019-10-27T11:22:28Z</time>
      </trkpt>
      <trkpt lat="48.67154" lon="-2.31312">
        <ele>60</ele>
        <time>2019-10-27T11:22:32Z</time>
      </trkpt>
      <trkpt lat="48.67151" lon="-2.31305">
        <ele>60</ele>
        <time>2019-10-27T11:22:37Z</time>
      </trkpt>
      <trkpt lat="48.67147" lon="-2.31301">
        <ele>60</ele>
        <time>2019-10-27T11:22:41Z</time>
      </trkpt>
      <trkpt lat="48.67142" lon="-2.31297">
        <ele>59</ele>
        <time>2019-10-27T11:22:46Z</time>
      </trkpt>
      <trkpt lat="48.67138" lon="-2.31296">
        <ele>59</ele>
        <time>2019-10-27T11:22:50Z</time>
      </trkpt>
      <trkpt lat="48.67133" lon="-2.31297">
        <ele>60</ele>
        <time>2019-10-27T11:22:54Z</time>
      </trkpt>
      <trkpt lat="48.67129" lon="-2.31298">
        <ele>59</ele>
        <time>2019-10-27T11:22:58Z</time>
      </trkpt>
      <trkpt lat="48.67124" lon="-2.31297">
        <ele>59</ele>
        <time>2019-10-27T11:23:02Z</time>
      </trkpt>
      <trkpt lat="48.67114" lon="-2.31293">
        <ele>59</ele>
        <time>2019-10-27T11:23:10Z</time>
      </trkpt>
      <trkpt lat="48.67109" lon="-2.3129">
        <ele>59</ele>
        <time>2019-10-27T11:23:14Z</time>
      </trkpt>
      <trkpt lat="48.67104" lon="-2.31286">
        <ele>59</ele>
        <time>2019-10-27T11:23:18Z</time>
      </trkpt>
      <trkpt lat="48.67095" lon="-2.3128">
        <ele>59</ele>
        <time>2019-10-27T11:23:26Z</time>
      </trkpt>
      <trkpt lat="48.6709" lon="-2.31276">
        <ele>59</ele>
        <time>2019-10-27T11:23:31Z</time>
      </trkpt>
      <trkpt lat="48.67087" lon="-2.3127">
        <ele>60</ele>
        <time>2019-10-27T11:23:36Z</time>
      </trkpt>
      <trkpt lat="48.67083" lon="-2.31265">
        <ele>60</ele>
        <time>2019-10-27T11:23:41Z</time>
      </trkpt>
      <trkpt lat="48.67075" lon="-2.31255">
        <ele>59</ele>
        <time>2019-10-27T11:23:50Z</time>
      </trkpt>
      <trkpt lat="48.67071" lon="-2.31249">
        <ele>60</ele>
        <time>2019-10-27T11:23:55Z</time>
      </trkpt>
      <trkpt lat="48.67068" lon="-2.31243">
        <ele>59</ele>
        <time>2019-10-27T11:24:00Z</time>
      </trkpt>
      <trkpt lat="48.6706" lon="-2.31231">
        <ele>61</ele>
        <time>2019-10-27T11:24:10Z</time>
      </trkpt>
      <trkpt lat="48.67057" lon="-2.31224">
        <ele>61</ele>
        <time>2019-10-27T11:24:15Z</time>
      </trkpt>
      <trkpt lat="48.67053" lon="-2.31208">
        <ele>63</ele>
        <time>2019-10-27T11:24:25Z</time>
      </trkpt>
      <trkpt lat="48.6705" lon="-2.31202">
        <ele>64</ele>
        <time>2019-10-27T11:24:30Z</time>
      </trkpt>
      <trkpt lat="48.67039" lon="-2.31187">
        <ele>65</ele>
        <time>2019-10-27T11:24:43Z</time>
      </trkpt>
      <trkpt lat="48.67036" lon="-2.3118">
        <ele>65</ele>
        <time>2019-10-27T11:24:48Z</time>
      </trkpt>
      <trkpt lat="48.67034" lon="-2.31174">
        <ele>64</ele>
        <time>2019-10-27T11:24:53Z</time>
      </trkpt>
      <trkpt lat="48.67032" lon="-2.31168">
        <ele>63</ele>
        <time>2019-10-27T11:24:58Z</time>
      </trkpt>
      <trkpt lat="48.67028" lon="-2.31161">
        <ele>63</ele>
        <time>2019-10-27T11:25:03Z</time>
      </trkpt>
      <trkpt lat="48.67018" lon="-2.31162">
        <ele>63</ele>
        <time>2019-10-27T11:25:12Z</time>
      </trkpt>
      <trkpt lat="48.67013" lon="-2.31165">
        <ele>62</ele>
        <time>2019-10-27T11:25:17Z</time>
      </trkpt>
      <trkpt lat="48.67003" lon="-2.31169">
        <ele>62</ele>
        <time>2019-10-27T11:25:26Z</time>
      </trkpt>
      <trkpt lat="48.66987" lon="-2.3117">
        <ele>61</ele>
        <time>2019-10-27T11:25:39Z</time>
      </trkpt>
      <trkpt lat="48.66983" lon="-2.31171">
        <ele>61</ele>
        <time>2019-10-27T11:25:43Z</time>
      </trkpt>
      <trkpt lat="48.66973" lon="-2.31169">
        <ele>60</ele>
        <time>2019-10-27T11:25:51Z</time>
      </trkpt>
      <trkpt lat="48.66963" lon="-2.31169">
        <ele>62</ele>
        <time>2019-10-27T11:25:59Z</time>
      </trkpt>
      <trkpt lat="48.66958" lon="-2.3117">
        <ele>61</ele>
        <time>2019-10-27T11:26:03Z</time>
      </trkpt>
      <trkpt lat="48.66944" lon="-2.31162">
        <ele>59</ele>
        <time>2019-10-27T11:26:16Z</time>
      </trkpt>
      <trkpt lat="48.66943" lon="-2.31146">
        <ele>58</ele>
        <time>2019-10-27T11:26:27Z</time>
      </trkpt>
      <trkpt lat="48.66951" lon="-2.31133">
        <ele>59</ele>
        <time>2019-10-27T11:26:40Z</time>
      </trkpt>
      <trkpt lat="48.66955" lon="-2.31128">
        <ele>59</ele>
        <time>2019-10-27T11:26:44Z</time>
      </trkpt>
      <trkpt lat="48.66958" lon="-2.31121">
        <ele>60</ele>
        <time>2019-10-27T11:26:49Z</time>
      </trkpt>
      <trkpt lat="48.66958" lon="-2.31114">
        <ele>62</ele>
        <time>2019-10-27T11:26:58Z</time>
      </trkpt>
      <trkpt lat="48.6696" lon="-2.31107">
        <ele>62</ele>
        <time>2019-10-27T11:27:03Z</time>
      </trkpt>
      <trkpt lat="48.66963" lon="-2.311">
        <ele>63</ele>
        <time>2019-10-27T11:27:08Z</time>
      </trkpt>
      <trkpt lat="48.66965" lon="-2.31093">
        <ele>63</ele>
        <time>2019-10-27T11:27:13Z</time>
      </trkpt>
      <trkpt lat="48.66967" lon="-2.31078">
        <ele>64</ele>
        <time>2019-10-27T11:27:21Z</time>
      </trkpt>
      <trkpt lat="48.66968" lon="-2.31071">
        <ele>64</ele>
        <time>2019-10-27T11:27:26Z</time>
      </trkpt>
      <trkpt lat="48.66969" lon="-2.31063">
        <ele>65</ele>
        <time>2019-10-27T11:27:31Z</time>
      </trkpt>
      <trkpt lat="48.66972" lon="-2.31056">
        <ele>64</ele>
        <time>2019-10-27T11:27:36Z</time>
      </trkpt>
      <trkpt lat="48.6697" lon="-2.31049">
        <ele>64</ele>
        <time>2019-10-27T11:27:40Z</time>
      </trkpt>
      <trkpt lat="48.66966" lon="-2.31044">
        <ele>64</ele>
        <time>2019-10-27T11:27:44Z</time>
      </trkpt>
      <trkpt lat="48.66963" lon="-2.31037">
        <ele>64</ele>
        <time>2019-10-27T11:27:48Z</time>
      </trkpt>
      <trkpt lat="48.6696" lon="-2.31031">
        <ele>64</ele>
        <time>2019-10-27T11:27:52Z</time>
      </trkpt>
      <trkpt lat="48.66952" lon="-2.3102">
        <ele>61</ele>
        <time>2019-10-27T11:28:00Z</time>
      </trkpt>
      <trkpt lat="48.66945" lon="-2.31011">
        <ele>60</ele>
        <time>2019-10-27T11:28:08Z</time>
      </trkpt>
      <trkpt lat="48.66942" lon="-2.31005">
        <ele>60</ele>
        <time>2019-10-27T11:28:12Z</time>
      </trkpt>
      <trkpt lat="48.66939" lon="-2.30999">
        <ele>60</ele>
        <time>2019-10-27T11:28:16Z</time>
      </trkpt>
      <trkpt lat="48.66933" lon="-2.30986">
        <ele>60</ele>
        <time>2019-10-27T11:28:24Z</time>
      </trkpt>
      <trkpt lat="48.66931" lon="-2.30979">
        <ele>59</ele>
        <time>2019-10-27T11:28:28Z</time>
      </trkpt>
      <trkpt lat="48.66927" lon="-2.30957">
        <ele>60</ele>
        <time>2019-10-27T11:28:40Z</time>
      </trkpt>
      <trkpt lat="48.66912" lon="-2.30928">
        <ele>62</ele>
        <time>2019-10-27T11:29:02Z</time>
      </trkpt>
      <trkpt lat="48.66908" lon="-2.30923">
        <ele>63</ele>
        <time>2019-10-27T11:29:07Z</time>
      </trkpt>
      <trkpt lat="48.66905" lon="-2.30916">
        <ele>64</ele>
        <time>2019-10-27T11:29:12Z</time>
      </trkpt>
      <trkpt lat="48.66901" lon="-2.30912">
        <ele>64</ele>
        <time>2019-10-27T11:29:17Z</time>
      </trkpt>
      <trkpt lat="48.66897" lon="-2.30904">
        <ele>65</ele>
        <time>2019-10-27T11:29:25Z</time>
      </trkpt>
      <trkpt lat="48.66893" lon="-2.30872">
        <ele>68</ele>
        <time>2019-10-27T11:29:46Z</time>
      </trkpt>
      <trkpt lat="48.66891" lon="-2.30864">
        <ele>68</ele>
        <time>2019-10-27T11:29:50Z</time>
      </trkpt>
      <trkpt lat="48.6689" lon="-2.30857">
        <ele>68</ele>
        <time>2019-10-27T11:29:54Z</time>
      </trkpt>
      <trkpt lat="48.66888" lon="-2.30851">
        <ele>69</ele>
        <time>2019-10-27T11:29:58Z</time>
      </trkpt>
      <trkpt lat="48.66885" lon="-2.30845">
        <ele>68</ele>
        <time>2019-10-27T11:30:02Z</time>
      </trkpt>
      <trkpt lat="48.66884" lon="-2.30838">
        <ele>67</ele>
        <time>2019-10-27T11:30:06Z</time>
      </trkpt>
      <trkpt lat="48.66883" lon="-2.30831">
        <ele>68</ele>
        <time>2019-10-27T11:30:10Z</time>
      </trkpt>
      <trkpt lat="48.6688" lon="-2.30823">
        <ele>69</ele>
        <time>2019-10-27T11:30:15Z</time>
      </trkpt>
      <trkpt lat="48.66878" lon="-2.30817">
        <ele>68</ele>
        <time>2019-10-27T11:30:19Z</time>
      </trkpt>
      <trkpt lat="48.66875" lon="-2.30811">
        <ele>67</ele>
        <time>2019-10-27T11:30:23Z</time>
      </trkpt>
      <trkpt lat="48.66871" lon="-2.30799">
        <ele>68</ele>
        <time>2019-10-27T11:30:31Z</time>
      </trkpt>
      <trkpt lat="48.66861" lon="-2.30774">
        <ele>71</ele>
        <time>2019-10-27T11:30:50Z</time>
      </trkpt>
      <trkpt lat="48.66859" lon="-2.30766">
        <ele>71</ele>
        <time>2019-10-27T11:30:55Z</time>
      </trkpt>
      <trkpt lat="48.66854" lon="-2.30754">
        <ele>72</ele>
        <time>2019-10-27T11:31:03Z</time>
      </trkpt>
      <trkpt lat="48.66851" lon="-2.30747">
        <ele>72</ele>
        <time>2019-10-27T11:31:07Z</time>
      </trkpt>
      <trkpt lat="48.66846" lon="-2.30727">
        <ele>70</ele>
        <time>2019-10-27T11:31:19Z</time>
      </trkpt>
      <trkpt lat="48.66845" lon="-2.3072">
        <ele>70</ele>
        <time>2019-10-27T11:31:23Z</time>
      </trkpt>
      <trkpt lat="48.66845" lon="-2.30682">
        <ele>72</ele>
        <time>2019-10-27T11:31:44Z</time>
      </trkpt>
      <trkpt lat="48.66843" lon="-2.30659">
        <ele>73</ele>
        <time>2019-10-27T11:31:56Z</time>
      </trkpt>
      <trkpt lat="48.6684" lon="-2.30653">
        <ele>73</ele>
        <time>2019-10-27T11:32:00Z</time>
      </trkpt>
      <trkpt lat="48.66836" lon="-2.30641">
        <ele>73</ele>
        <time>2019-10-27T11:32:08Z</time>
      </trkpt>
      <trkpt lat="48.66831" lon="-2.30638">
        <ele>72</ele>
        <time>2019-10-27T11:32:13Z</time>
      </trkpt>
      <trkpt lat="48.66827" lon="-2.30631">
        <ele>72</ele>
        <time>2019-10-27T11:32:21Z</time>
      </trkpt>
      <trkpt lat="48.66829" lon="-2.30624">
        <ele>69</ele>
        <time>2019-10-27T11:36:55Z</time>
      </trkpt>
      <trkpt lat="48.66825" lon="-2.30607">
        <ele>68</ele>
        <time>2019-10-27T11:37:18Z</time>
      </trkpt>
      <trkpt lat="48.6682" lon="-2.30594">
        <ele>67</ele>
        <time>2019-10-27T11:37:26Z</time>
      </trkpt>
      <trkpt lat="48.66819" lon="-2.30586">
        <ele>67</ele>
        <time>2019-10-27T11:37:31Z</time>
      </trkpt>
      <trkpt lat="48.66818" lon="-2.30579">
        <ele>68</ele>
        <time>2019-10-27T11:37:35Z</time>
      </trkpt>
      <trkpt lat="48.66816" lon="-2.30572">
        <ele>68</ele>
        <time>2019-10-27T11:37:39Z</time>
      </trkpt>
      <trkpt lat="48.66815" lon="-2.30564">
        <ele>68</ele>
        <time>2019-10-27T11:37:43Z</time>
      </trkpt>
      <trkpt lat="48.66811" lon="-2.3055">
        <ele>69</ele>
        <time>2019-10-27T11:37:51Z</time>
      </trkpt>
      <trkpt lat="48.66807" lon="-2.30543">
        <ele>69</ele>
        <time>2019-10-27T11:37:56Z</time>
      </trkpt>
      <trkpt lat="48.66802" lon="-2.30523">
        <ele>71</ele>
        <time>2019-10-27T11:38:09Z</time>
      </trkpt>
      <trkpt lat="48.66801" lon="-2.30516">
        <ele>72</ele>
        <time>2019-10-27T11:38:13Z</time>
      </trkpt>
      <trkpt lat="48.66799" lon="-2.30508">
        <ele>72</ele>
        <time>2019-10-27T11:38:18Z</time>
      </trkpt>
      <trkpt lat="48.66799" lon="-2.30496">
        <ele>74</ele>
        <time>2019-10-27T11:38:27Z</time>
      </trkpt>
      <trkpt lat="48.66798" lon="-2.30489">
        <ele>74</ele>
        <time>2019-10-27T11:38:32Z</time>
      </trkpt>
      <trkpt lat="48.66795" lon="-2.30474">
        <ele>76</ele>
        <time>2019-10-27T11:38:44Z</time>
      </trkpt>
      <trkpt lat="48.66783" lon="-2.30458">
        <ele>78</ele>
        <time>2019-10-27T11:38:56Z</time>
      </trkpt>
      <trkpt lat="48.66781" lon="-2.30451">
        <ele>78</ele>
        <time>2019-10-27T11:39:00Z</time>
      </trkpt>
      <trkpt lat="48.66777" lon="-2.30446">
        <ele>78</ele>
        <time>2019-10-27T11:39:04Z</time>
      </trkpt>
      <trkpt lat="48.66774" lon="-2.3044">
        <ele>79</ele>
        <time>2019-10-27T11:39:08Z</time>
      </trkpt>
      <trkpt lat="48.66773" lon="-2.30433">
        <ele>79</ele>
        <time>2019-10-27T11:39:12Z</time>
      </trkpt>
      <trkpt lat="48.66771" lon="-2.30409">
        <ele>77</ele>
        <time>2019-10-27T11:39:26Z</time>
      </trkpt>
      <trkpt lat="48.66769" lon="-2.30402">
        <ele>76</ele>
        <time>2019-10-27T11:39:30Z</time>
      </trkpt>
      <trkpt lat="48.66768" lon="-2.30395">
        <ele>76</ele>
        <time>2019-10-27T11:39:34Z</time>
      </trkpt>
      <trkpt lat="48.66766" lon="-2.30389">
        <ele>77</ele>
        <time>2019-10-27T11:39:38Z</time>
      </trkpt>
      <trkpt lat="48.6676" lon="-2.30377">
        <ele>77</ele>
        <time>2019-10-27T11:39:46Z</time>
      </trkpt>
      <trkpt lat="48.66756" lon="-2.30373">
        <ele>76</ele>
        <time>2019-10-27T11:39:50Z</time>
      </trkpt>
      <trkpt lat="48.66748" lon="-2.30366">
        <ele>76</ele>
        <time>2019-10-27T11:39:58Z</time>
      </trkpt>
      <trkpt lat="48.66744" lon="-2.30362">
        <ele>76</ele>
        <time>2019-10-27T11:40:03Z</time>
      </trkpt>
      <trkpt lat="48.66741" lon="-2.30356">
        <ele>75</ele>
        <time>2019-10-27T11:40:07Z</time>
      </trkpt>
      <trkpt lat="48.66739" lon="-2.3035">
        <ele>75</ele>
        <time>2019-10-27T11:40:12Z</time>
      </trkpt>
      <trkpt lat="48.66736" lon="-2.3034">
        <ele>72</ele>
        <time>2019-10-27T11:40:22Z</time>
      </trkpt>
      <trkpt lat="48.66734" lon="-2.30327">
        <ele>69</ele>
        <time>2019-10-27T11:40:34Z</time>
      </trkpt>
      <trkpt lat="48.6673" lon="-2.30323">
        <ele>68</ele>
        <time>2019-10-27T11:40:39Z</time>
      </trkpt>
      <trkpt lat="48.66726" lon="-2.3032">
        <ele>67</ele>
        <time>2019-10-27T11:40:43Z</time>
      </trkpt>
      <trkpt lat="48.66722" lon="-2.30315">
        <ele>67</ele>
        <time>2019-10-27T11:40:48Z</time>
      </trkpt>
      <trkpt lat="48.66715" lon="-2.30299">
        <ele>66</ele>
        <time>2019-10-27T11:41:00Z</time>
      </trkpt>
      <trkpt lat="48.66713" lon="-2.30292">
        <ele>66</ele>
        <time>2019-10-27T11:41:04Z</time>
      </trkpt>
      <trkpt lat="48.66713" lon="-2.30284">
        <ele>66</ele>
        <time>2019-10-27T11:41:09Z</time>
      </trkpt>
      <trkpt lat="48.66716" lon="-2.30277">
        <ele>65</ele>
        <time>2019-10-27T11:41:13Z</time>
      </trkpt>
      <trkpt lat="48.66717" lon="-2.3027">
        <ele>64</ele>
        <time>2019-10-27T11:41:17Z</time>
      </trkpt>
      <trkpt lat="48.66719" lon="-2.30247">
        <ele>63</ele>
        <time>2019-10-27T11:41:30Z</time>
      </trkpt>
      <trkpt lat="48.6672" lon="-2.3024">
        <ele>63</ele>
        <time>2019-10-27T11:41:34Z</time>
      </trkpt>
      <trkpt lat="48.6672" lon="-2.30233">
        <ele>62</ele>
        <time>2019-10-27T11:41:38Z</time>
      </trkpt>
      <trkpt lat="48.66719" lon="-2.30226">
        <ele>63</ele>
        <time>2019-10-27T11:41:42Z</time>
      </trkpt>
      <trkpt lat="48.66719" lon="-2.30218">
        <ele>63</ele>
        <time>2019-10-27T11:41:46Z</time>
      </trkpt>
      <trkpt lat="48.6672" lon="-2.30203">
        <ele>62</ele>
        <time>2019-10-27T11:41:54Z</time>
      </trkpt>
      <trkpt lat="48.6672" lon="-2.30197">
        <ele>62</ele>
        <time>2019-10-27T11:41:59Z</time>
      </trkpt>
      <trkpt lat="48.66725" lon="-2.3019">
        <ele>59</ele>
        <time>2019-10-27T11:42:12Z</time>
      </trkpt>
      <trkpt lat="48.66725" lon="-2.30182">
        <ele>59</ele>
        <time>2019-10-27T11:42:16Z</time>
      </trkpt>
      <trkpt lat="48.66725" lon="-2.30159">
        <ele>60</ele>
        <time>2019-10-27T11:42:27Z</time>
      </trkpt>
      <trkpt lat="48.66724" lon="-2.30152">
        <ele>60</ele>
        <time>2019-10-27T11:42:31Z</time>
      </trkpt>
      <trkpt lat="48.66724" lon="-2.30136">
        <ele>60</ele>
        <time>2019-10-27T11:42:40Z</time>
      </trkpt>
      <trkpt lat="48.66725" lon="-2.30129">
        <ele>61</ele>
        <time>2019-10-27T11:42:45Z</time>
      </trkpt>
      <trkpt lat="48.66724" lon="-2.30113">
        <ele>63</ele>
        <time>2019-10-27T11:42:58Z</time>
      </trkpt>
      <trkpt lat="48.66722" lon="-2.30105">
        <ele>64</ele>
        <time>2019-10-27T11:43:02Z</time>
      </trkpt>
      <trkpt lat="48.66718" lon="-2.30099">
        <ele>64</ele>
        <time>2019-10-27T11:43:07Z</time>
      </trkpt>
      <trkpt lat="48.66716" lon="-2.30092">
        <ele>65</ele>
        <time>2019-10-27T11:43:12Z</time>
      </trkpt>
      <trkpt lat="48.66716" lon="-2.30085">
        <ele>66</ele>
        <time>2019-10-27T11:43:16Z</time>
      </trkpt>
      <trkpt lat="48.66713" lon="-2.30077">
        <ele>65</ele>
        <time>2019-10-27T11:43:21Z</time>
      </trkpt>
      <trkpt lat="48.66711" lon="-2.30062">
        <ele>65</ele>
        <time>2019-10-27T11:43:30Z</time>
      </trkpt>
      <trkpt lat="48.66711" lon="-2.30056">
        <ele>66</ele>
        <time>2019-10-27T11:43:34Z</time>
      </trkpt>
      <trkpt lat="48.66712" lon="-2.3004">
        <ele>67</ele>
        <time>2019-10-27T11:43:43Z</time>
      </trkpt>
      <trkpt lat="48.66711" lon="-2.30033">
        <ele>67</ele>
        <time>2019-10-27T11:43:47Z</time>
      </trkpt>
      <trkpt lat="48.66709" lon="-2.30017">
        <ele>68</ele>
        <time>2019-10-27T11:43:56Z</time>
      </trkpt>
      <trkpt lat="48.66706" lon="-2.29984">
        <ele>70</ele>
        <time>2019-10-27T11:44:16Z</time>
      </trkpt>
      <trkpt lat="48.66706" lon="-2.29969">
        <ele>70</ele>
        <time>2019-10-27T11:44:25Z</time>
      </trkpt>
      <trkpt lat="48.66705" lon="-2.29953">
        <ele>71</ele>
        <time>2019-10-27T11:44:33Z</time>
      </trkpt>
      <trkpt lat="48.66704" lon="-2.29946">
        <ele>71</ele>
        <time>2019-10-27T11:44:37Z</time>
      </trkpt>
      <trkpt lat="48.66702" lon="-2.29938">
        <ele>70</ele>
        <time>2019-10-27T11:44:41Z</time>
      </trkpt>
      <trkpt lat="48.667" lon="-2.29931">
        <ele>71</ele>
        <time>2019-10-27T11:44:45Z</time>
      </trkpt>
      <trkpt lat="48.66694" lon="-2.29918">
        <ele>70</ele>
        <time>2019-10-27T11:44:53Z</time>
      </trkpt>
      <trkpt lat="48.66692" lon="-2.29911">
        <ele>70</ele>
        <time>2019-10-27T11:44:57Z</time>
      </trkpt>
      <trkpt lat="48.6669" lon="-2.29904">
        <ele>70</ele>
        <time>2019-10-27T11:45:01Z</time>
      </trkpt>
      <trkpt lat="48.6669" lon="-2.29889">
        <ele>68</ele>
        <time>2019-10-27T11:45:09Z</time>
      </trkpt>
      <trkpt lat="48.6669" lon="-2.29881">
        <ele>68</ele>
        <time>2019-10-27T11:45:14Z</time>
      </trkpt>
      <trkpt lat="48.66693" lon="-2.29834">
        <ele>61</ele>
        <time>2019-10-27T11:45:40Z</time>
      </trkpt>
      <trkpt lat="48.6669" lon="-2.29826">
        <ele>60</ele>
        <time>2019-10-27T11:45:45Z</time>
      </trkpt>
      <trkpt lat="48.66683" lon="-2.29807">
        <ele>61</ele>
        <time>2019-10-27T11:45:58Z</time>
      </trkpt>
      <trkpt lat="48.66682" lon="-2.298">
        <ele>61</ele>
        <time>2019-10-27T11:46:02Z</time>
      </trkpt>
      <trkpt lat="48.66682" lon="-2.29785">
        <ele>59</ele>
        <time>2019-10-27T11:46:11Z</time>
      </trkpt>
      <trkpt lat="48.66685" lon="-2.29774">
        <ele>57</ele>
        <time>2019-10-27T11:46:20Z</time>
      </trkpt>
      <trkpt lat="48.66687" lon="-2.29767">
        <ele>57</ele>
        <time>2019-10-27T11:46:25Z</time>
      </trkpt>
      <trkpt lat="48.66691" lon="-2.29763">
        <ele>56</ele>
        <time>2019-10-27T11:46:33Z</time>
      </trkpt>
      <trkpt lat="48.66694" lon="-2.29756">
        <ele>56</ele>
        <time>2019-10-27T11:46:38Z</time>
      </trkpt>
      <trkpt lat="48.66695" lon="-2.29749">
        <ele>56</ele>
        <time>2019-10-27T11:46:42Z</time>
      </trkpt>
      <trkpt lat="48.66694" lon="-2.29742">
        <ele>56</ele>
        <time>2019-10-27T11:46:46Z</time>
      </trkpt>
      <trkpt lat="48.66694" lon="-2.29735">
        <ele>55</ele>
        <time>2019-10-27T11:46:50Z</time>
      </trkpt>
      <trkpt lat="48.66696" lon="-2.29729">
        <ele>54</ele>
        <time>2019-10-27T11:46:54Z</time>
      </trkpt>
      <trkpt lat="48.66704" lon="-2.2973">
        <ele>54</ele>
        <time>2019-10-27T11:47:01Z</time>
      </trkpt>
      <trkpt lat="48.66707" lon="-2.29725">
        <ele>53</ele>
        <time>2019-10-27T11:47:06Z</time>
      </trkpt>
      <trkpt lat="48.66709" lon="-2.29717">
        <ele>52</ele>
        <time>2019-10-27T11:47:10Z</time>
      </trkpt>
      <trkpt lat="48.6671" lon="-2.29711">
        <ele>52</ele>
        <time>2019-10-27T11:47:14Z</time>
      </trkpt>
      <trkpt lat="48.66716" lon="-2.29699">
        <ele>50</ele>
        <time>2019-10-27T11:47:22Z</time>
      </trkpt>
      <trkpt lat="48.66717" lon="-2.29691">
        <ele>50</ele>
        <time>2019-10-27T11:47:26Z</time>
      </trkpt>
      <trkpt lat="48.66716" lon="-2.29684">
        <ele>49</ele>
        <time>2019-10-27T11:47:30Z</time>
      </trkpt>
      <trkpt lat="48.66716" lon="-2.29677">
        <ele>50</ele>
        <time>2019-10-27T11:47:35Z</time>
      </trkpt>
      <trkpt lat="48.66716" lon="-2.29662">
        <ele>50</ele>
        <time>2019-10-27T11:47:45Z</time>
      </trkpt>
      <trkpt lat="48.66716" lon="-2.29654">
        <ele>50</ele>
        <time>2019-10-27T11:47:50Z</time>
      </trkpt>
      <trkpt lat="48.66715" lon="-2.29647">
        <ele>50</ele>
        <time>2019-10-27T11:47:54Z</time>
      </trkpt>
      <trkpt lat="48.66717" lon="-2.29632">
        <ele>51</ele>
        <time>2019-10-27T11:48:02Z</time>
      </trkpt>
      <trkpt lat="48.66719" lon="-2.29625">
        <ele>51</ele>
        <time>2019-10-27T11:48:06Z</time>
      </trkpt>
      <trkpt lat="48.66721" lon="-2.29616">
        <ele>50</ele>
        <time>2019-10-27T11:48:10Z</time>
      </trkpt>
      <trkpt lat="48.6672" lon="-2.29602">
        <ele>49</ele>
        <time>2019-10-27T11:48:18Z</time>
      </trkpt>
      <trkpt lat="48.66722" lon="-2.29586">
        <ele>50</ele>
        <time>2019-10-27T11:48:26Z</time>
      </trkpt>
      <trkpt lat="48.66724" lon="-2.29579">
        <ele>50</ele>
        <time>2019-10-27T11:48:30Z</time>
      </trkpt>
      <trkpt lat="48.66728" lon="-2.29574">
        <ele>50</ele>
        <time>2019-10-27T11:48:34Z</time>
      </trkpt>
      <trkpt lat="48.66733" lon="-2.29571">
        <ele>50</ele>
        <time>2019-10-27T11:48:38Z</time>
      </trkpt>
      <trkpt lat="48.66735" lon="-2.29564">
        <ele>50</ele>
        <time>2019-10-27T11:48:42Z</time>
      </trkpt>
      <trkpt lat="48.66736" lon="-2.29557">
        <ele>51</ele>
        <time>2019-10-27T11:48:46Z</time>
      </trkpt>
      <trkpt lat="48.66738" lon="-2.29543">
        <ele>49</ele>
        <time>2019-10-27T11:48:54Z</time>
      </trkpt>
      <trkpt lat="48.6674" lon="-2.2953">
        <ele>49</ele>
        <time>2019-10-27T11:49:05Z</time>
      </trkpt>
      <trkpt lat="48.66745" lon="-2.29523">
        <ele>49</ele>
        <time>2019-10-27T11:49:22Z</time>
      </trkpt>
      <trkpt lat="48.66746" lon="-2.29514">
        <ele>49</ele>
        <time>2019-10-27T11:51:00Z</time>
      </trkpt>
      <trkpt lat="48.66747" lon="-2.29496">
        <ele>49</ele>
        <time>2019-10-27T11:51:09Z</time>
      </trkpt>
      <trkpt lat="48.66747" lon="-2.29488">
        <ele>48</ele>
        <time>2019-10-27T11:51:13Z</time>
      </trkpt>
      <trkpt lat="48.66748" lon="-2.29474">
        <ele>48</ele>
        <time>2019-10-27T11:51:22Z</time>
      </trkpt>
      <trkpt lat="48.66749" lon="-2.29466">
        <ele>47</ele>
        <time>2019-10-27T11:51:27Z</time>
      </trkpt>
      <trkpt lat="48.66752" lon="-2.2946">
        <ele>47</ele>
        <time>2019-10-27T11:51:31Z</time>
      </trkpt>
      <trkpt lat="48.66753" lon="-2.29444">
        <ele>46</ele>
        <time>2019-10-27T11:51:40Z</time>
      </trkpt>
      <trkpt lat="48.66754" lon="-2.29437">
        <ele>47</ele>
        <time>2019-10-27T11:51:44Z</time>
      </trkpt>
      <trkpt lat="48.66758" lon="-2.29422">
        <ele>47</ele>
        <time>2019-10-27T11:51:52Z</time>
      </trkpt>
      <trkpt lat="48.66759" lon="-2.29415">
        <ele>46</ele>
        <time>2019-10-27T11:51:56Z</time>
      </trkpt>
      <trkpt lat="48.66761" lon="-2.29407">
        <ele>47</ele>
        <time>2019-10-27T11:52:00Z</time>
      </trkpt>
      <trkpt lat="48.66762" lon="-2.29399">
        <ele>47</ele>
        <time>2019-10-27T11:52:04Z</time>
      </trkpt>
      <trkpt lat="48.66759" lon="-2.29393">
        <ele>47</ele>
        <time>2019-10-27T11:52:08Z</time>
      </trkpt>
      <trkpt lat="48.66757" lon="-2.29386">
        <ele>47</ele>
        <time>2019-10-27T11:52:12Z</time>
      </trkpt>
      <trkpt lat="48.66757" lon="-2.29379">
        <ele>47</ele>
        <time>2019-10-27T11:52:16Z</time>
      </trkpt>
      <trkpt lat="48.66757" lon="-2.29371">
        <ele>46</ele>
        <time>2019-10-27T11:52:20Z</time>
      </trkpt>
      <trkpt lat="48.66757" lon="-2.29363">
        <ele>46</ele>
        <time>2019-10-27T11:52:25Z</time>
      </trkpt>
      <trkpt lat="48.66757" lon="-2.29348">
        <ele>45</ele>
        <time>2019-10-27T11:52:34Z</time>
      </trkpt>
      <trkpt lat="48.66752" lon="-2.29336">
        <ele>45</ele>
        <time>2019-10-27T11:52:44Z</time>
      </trkpt>
      <trkpt lat="48.6675" lon="-2.29329">
        <ele>45</ele>
        <time>2019-10-27T11:52:49Z</time>
      </trkpt>
      <trkpt lat="48.66749" lon="-2.29322">
        <ele>45</ele>
        <time>2019-10-27T11:52:53Z</time>
      </trkpt>
      <trkpt lat="48.66751" lon="-2.29308">
        <ele>46</ele>
        <time>2019-10-27T11:53:01Z</time>
      </trkpt>
      <trkpt lat="48.66753" lon="-2.29301">
        <ele>46</ele>
        <time>2019-10-27T11:53:05Z</time>
      </trkpt>
      <trkpt lat="48.66752" lon="-2.29294">
        <ele>46</ele>
        <time>2019-10-27T11:53:09Z</time>
      </trkpt>
      <trkpt lat="48.66751" lon="-2.29287">
        <ele>46</ele>
        <time>2019-10-27T11:53:13Z</time>
      </trkpt>
      <trkpt lat="48.66749" lon="-2.29281">
        <ele>46</ele>
        <time>2019-10-27T11:53:17Z</time>
      </trkpt>
      <trkpt lat="48.66745" lon="-2.29276">
        <ele>46</ele>
        <time>2019-10-27T11:53:22Z</time>
      </trkpt>
      <trkpt lat="48.66742" lon="-2.29271">
        <ele>46</ele>
        <time>2019-10-27T11:53:27Z</time>
      </trkpt>
      <trkpt lat="48.66739" lon="-2.29265">
        <ele>46</ele>
        <time>2019-10-27T11:53:31Z</time>
      </trkpt>
      <trkpt lat="48.66738" lon="-2.29257">
        <ele>46</ele>
        <time>2019-10-27T11:53:35Z</time>
      </trkpt>
      <trkpt lat="48.66736" lon="-2.29249">
        <ele>46</ele>
        <time>2019-10-27T11:53:39Z</time>
      </trkpt>
      <trkpt lat="48.66736" lon="-2.29242">
        <ele>46</ele>
        <time>2019-10-27T11:53:44Z</time>
      </trkpt>
      <trkpt lat="48.66734" lon="-2.29234">
        <ele>46</ele>
        <time>2019-10-27T11:53:49Z</time>
      </trkpt>
      <trkpt lat="48.66727" lon="-2.29222">
        <ele>47</ele>
        <time>2019-10-27T11:53:58Z</time>
      </trkpt>
      <trkpt lat="48.66718" lon="-2.29216">
        <ele>48</ele>
        <time>2019-10-27T11:54:08Z</time>
      </trkpt>
      <trkpt lat="48.66715" lon="-2.2921">
        <ele>48</ele>
        <time>2019-10-27T11:54:12Z</time>
      </trkpt>
      <trkpt lat="48.66713" lon="-2.29203">
        <ele>48</ele>
        <time>2019-10-27T11:54:16Z</time>
      </trkpt>
      <trkpt lat="48.66709" lon="-2.29199">
        <ele>48</ele>
        <time>2019-10-27T11:54:20Z</time>
      </trkpt>
      <trkpt lat="48.66706" lon="-2.29193">
        <ele>47</ele>
        <time>2019-10-27T11:54:24Z</time>
      </trkpt>
      <trkpt lat="48.66697" lon="-2.2918">
        <ele>48</ele>
        <time>2019-10-27T11:54:34Z</time>
      </trkpt>
      <trkpt lat="48.66696" lon="-2.29173">
        <ele>48</ele>
        <time>2019-10-27T11:54:37Z</time>
      </trkpt>
      <trkpt lat="48.66697" lon="-2.29148">
        <ele>49</ele>
        <time>2019-10-27T11:54:49Z</time>
      </trkpt>
      <trkpt lat="48.66697" lon="-2.2914">
        <ele>49</ele>
        <time>2019-10-27T11:54:53Z</time>
      </trkpt>
      <trkpt lat="48.66701" lon="-2.29134">
        <ele>49</ele>
        <time>2019-10-27T11:54:57Z</time>
      </trkpt>
      <trkpt lat="48.6671" lon="-2.29114">
        <ele>49</ele>
        <time>2019-10-27T11:55:09Z</time>
      </trkpt>
      <trkpt lat="48.66712" lon="-2.29106">
        <ele>48</ele>
        <time>2019-10-27T11:55:14Z</time>
      </trkpt>
      <trkpt lat="48.66711" lon="-2.29092">
        <ele>48</ele>
        <time>2019-10-27T11:55:22Z</time>
      </trkpt>
      <trkpt lat="48.66709" lon="-2.29077">
        <ele>47</ele>
        <time>2019-10-27T11:55:32Z</time>
      </trkpt>
      <trkpt lat="48.66708" lon="-2.2907">
        <ele>46</ele>
        <time>2019-10-27T11:55:36Z</time>
      </trkpt>
      <trkpt lat="48.66706" lon="-2.29063">
        <ele>45</ele>
        <time>2019-10-27T11:55:40Z</time>
      </trkpt>
      <trkpt lat="48.66705" lon="-2.29056">
        <ele>46</ele>
        <time>2019-10-27T11:55:44Z</time>
      </trkpt>
      <trkpt lat="48.66705" lon="-2.29049">
        <ele>46</ele>
        <time>2019-10-27T11:55:48Z</time>
      </trkpt>
      <trkpt lat="48.66715" lon="-2.2903">
        <ele>43</ele>
        <time>2019-10-27T11:56:04Z</time>
      </trkpt>
      <trkpt lat="48.66717" lon="-2.29023">
        <ele>43</ele>
        <time>2019-10-27T11:56:08Z</time>
      </trkpt>
      <trkpt lat="48.66718" lon="-2.29015">
        <ele>43</ele>
        <time>2019-10-27T11:56:13Z</time>
      </trkpt>
      <trkpt lat="48.66716" lon="-2.29008">
        <ele>43</ele>
        <time>2019-10-27T11:56:18Z</time>
      </trkpt>
      <trkpt lat="48.66709" lon="-2.28997">
        <ele>43</ele>
        <time>2019-10-27T11:56:27Z</time>
      </trkpt>
      <trkpt lat="48.66706" lon="-2.28992">
        <ele>43</ele>
        <time>2019-10-27T11:56:31Z</time>
      </trkpt>
      <trkpt lat="48.66701" lon="-2.28979">
        <ele>43</ele>
        <time>2019-10-27T11:56:41Z</time>
      </trkpt>
      <trkpt lat="48.66698" lon="-2.28969">
        <ele>44</ele>
        <time>2019-10-27T11:56:47Z</time>
      </trkpt>
      <trkpt lat="48.66696" lon="-2.28963">
        <ele>43</ele>
        <time>2019-10-27T11:56:51Z</time>
      </trkpt>
      <trkpt lat="48.66688" lon="-2.28917">
        <ele>40</ele>
        <time>2019-10-27T11:57:15Z</time>
      </trkpt>
      <trkpt lat="48.66689" lon="-2.28908">
        <ele>40</ele>
        <time>2019-10-27T11:57:20Z</time>
      </trkpt>
      <trkpt lat="48.66691" lon="-2.289">
        <ele>39</ele>
        <time>2019-10-27T11:57:25Z</time>
      </trkpt>
      <trkpt lat="48.66691" lon="-2.28893">
        <ele>38</ele>
        <time>2019-10-27T11:57:29Z</time>
      </trkpt>
      <trkpt lat="48.66693" lon="-2.28877">
        <ele>37</ele>
        <time>2019-10-27T11:57:37Z</time>
      </trkpt>
      <trkpt lat="48.66694" lon="-2.2887">
        <ele>37</ele>
        <time>2019-10-27T11:57:41Z</time>
      </trkpt>
      <trkpt lat="48.66697" lon="-2.28864">
        <ele>37</ele>
        <time>2019-10-27T11:57:45Z</time>
      </trkpt>
      <trkpt lat="48.66701" lon="-2.28857">
        <ele>36</ele>
        <time>2019-10-27T11:57:51Z</time>
      </trkpt>
      <trkpt lat="48.66704" lon="-2.28843">
        <ele>35</ele>
        <time>2019-10-27T11:57:59Z</time>
      </trkpt>
      <trkpt lat="48.6671" lon="-2.28831">
        <ele>35</ele>
        <time>2019-10-27T11:58:07Z</time>
      </trkpt>
      <trkpt lat="48.66713" lon="-2.28821">
        <ele>35</ele>
        <time>2019-10-27T11:58:14Z</time>
      </trkpt>
      <trkpt lat="48.6671" lon="-2.2881">
        <ele>34</ele>
        <time>2019-10-27T11:58:28Z</time>
      </trkpt>
      <trkpt lat="48.66697" lon="-2.28795">
        <ele>33</ele>
        <time>2019-10-27T11:58:40Z</time>
      </trkpt>
      <trkpt lat="48.66694" lon="-2.28779">
        <ele>33</ele>
        <time>2019-10-27T11:58:51Z</time>
      </trkpt>
      <trkpt lat="48.66695" lon="-2.2877">
        <ele>32</ele>
        <time>2019-10-27T11:58:58Z</time>
      </trkpt>
      <trkpt lat="48.66693" lon="-2.28764">
        <ele>32</ele>
        <time>2019-10-27T11:59:03Z</time>
      </trkpt>
      <trkpt lat="48.66694" lon="-2.28754">
        <ele>32</ele>
        <time>2019-10-27T11:59:09Z</time>
      </trkpt>
      <trkpt lat="48.66695" lon="-2.28747">
        <ele>32</ele>
        <time>2019-10-27T11:59:13Z</time>
      </trkpt>
      <trkpt lat="48.66698" lon="-2.2874">
        <ele>31</ele>
        <time>2019-10-27T11:59:17Z</time>
      </trkpt>
      <trkpt lat="48.66698" lon="-2.2873">
        <ele>30</ele>
        <time>2019-10-27T11:59:26Z</time>
      </trkpt>
      <trkpt lat="48.66695" lon="-2.28723">
        <ele>30</ele>
        <time>2019-10-27T12:01:06Z</time>
      </trkpt>
      <trkpt lat="48.66691" lon="-2.28717">
        <ele>30</ele>
        <time>2019-10-27T12:01:11Z</time>
      </trkpt>
      <trkpt lat="48.66683" lon="-2.2871">
        <ele>29</ele>
        <time>2019-10-27T12:01:21Z</time>
      </trkpt>
      <trkpt lat="48.66678" lon="-2.28708">
        <ele>29</ele>
        <time>2019-10-27T12:01:26Z</time>
      </trkpt>
      <trkpt lat="48.66672" lon="-2.28708">
        <ele>29</ele>
        <time>2019-10-27T12:01:30Z</time>
      </trkpt>
      <trkpt lat="48.66668" lon="-2.28709">
        <ele>29</ele>
        <time>2019-10-27T12:01:34Z</time>
      </trkpt>
      <trkpt lat="48.66662" lon="-2.28706">
        <ele>28</ele>
        <time>2019-10-27T12:01:39Z</time>
      </trkpt>
      <trkpt lat="48.66658" lon="-2.28701">
        <ele>28</ele>
        <time>2019-10-27T12:01:43Z</time>
      </trkpt>
      <trkpt lat="48.66649" lon="-2.28693">
        <ele>27</ele>
        <time>2019-10-27T12:01:51Z</time>
      </trkpt>
      <trkpt lat="48.66636" lon="-2.28681">
        <ele>23</ele>
        <time>2019-10-27T12:02:05Z</time>
      </trkpt>
      <trkpt lat="48.66632" lon="-2.28678">
        <ele>22</ele>
        <time>2019-10-27T12:02:09Z</time>
      </trkpt>
      <trkpt lat="48.66627" lon="-2.28676">
        <ele>21</ele>
        <time>2019-10-27T12:02:13Z</time>
      </trkpt>
      <trkpt lat="48.66623" lon="-2.28681">
        <ele>20</ele>
        <time>2019-10-27T12:02:18Z</time>
      </trkpt>
      <trkpt lat="48.66617" lon="-2.28692">
        <ele>22</ele>
        <time>2019-10-27T12:02:27Z</time>
      </trkpt>
      <trkpt lat="48.66612" lon="-2.28694">
        <ele>24</ele>
        <time>2019-10-27T12:02:35Z</time>
      </trkpt>
      <trkpt lat="48.66593" lon="-2.28684">
        <ele>30</ele>
        <time>2019-10-27T12:29:51Z</time>
      </trkpt>
      <trkpt lat="48.66593" lon="-2.28684">
        <ele>30</ele>
        <time>2019-10-27T12:29:51Z</time>
      </trkpt>
      <trkpt lat="48.66585" lon="-2.28676">
        <ele>29</ele>
        <time>2019-10-27T12:30:27Z</time>
      </trkpt>
      <trkpt lat="48.66581" lon="-2.2867">
        <ele>29</ele>
        <time>2019-10-27T12:30:31Z</time>
      </trkpt>
      <trkpt lat="48.66572" lon="-2.2866">
        <ele>29</ele>
        <time>2019-10-27T12:30:45Z</time>
      </trkpt>
      <trkpt lat="48.66567" lon="-2.28658">
        <ele>28</ele>
        <time>2019-10-27T12:30:49Z</time>
      </trkpt>
      <trkpt lat="48.6656" lon="-2.28665">
        <ele>31</ele>
        <time>2019-10-27T12:31:02Z</time>
      </trkpt>
      <trkpt lat="48.66548" lon="-2.28664">
        <ele>33</ele>
        <time>2019-10-27T12:31:11Z</time>
      </trkpt>
      <trkpt lat="48.66543" lon="-2.28661">
        <ele>33</ele>
        <time>2019-10-27T12:31:14Z</time>
      </trkpt>
      <trkpt lat="48.66538" lon="-2.28658">
        <ele>32</ele>
        <time>2019-10-27T12:31:18Z</time>
      </trkpt>
      <trkpt lat="48.66534" lon="-2.28657">
        <ele>32</ele>
        <time>2019-10-27T12:31:22Z</time>
      </trkpt>
      <trkpt lat="48.66529" lon="-2.28655">
        <ele>32</ele>
        <time>2019-10-27T12:31:27Z</time>
      </trkpt>
      <trkpt lat="48.66525" lon="-2.28651">
        <ele>32</ele>
        <time>2019-10-27T12:31:31Z</time>
      </trkpt>
      <trkpt lat="48.66521" lon="-2.28646">
        <ele>32</ele>
        <time>2019-10-27T12:31:35Z</time>
      </trkpt>
      <trkpt lat="48.66513" lon="-2.28624">
        <ele>30</ele>
        <time>2019-10-27T12:31:47Z</time>
      </trkpt>
      <trkpt lat="48.66515" lon="-2.28617">
        <ele>29</ele>
        <time>2019-10-27T12:31:52Z</time>
      </trkpt>
      <trkpt lat="48.66518" lon="-2.2861">
        <ele>27</ele>
        <time>2019-10-27T12:32:30Z</time>
      </trkpt>
      <trkpt lat="48.66522" lon="-2.28594">
        <ele>24</ele>
        <time>2019-10-27T12:32:41Z</time>
      </trkpt>
      <trkpt lat="48.66522" lon="-2.28586">
        <ele>22</ele>
        <time>2019-10-27T12:32:45Z</time>
      </trkpt>
      <trkpt lat="48.66516" lon="-2.28583">
        <ele>22</ele>
        <time>2019-10-27T12:32:49Z</time>
      </trkpt>
      <trkpt lat="48.66502" lon="-2.28577">
        <ele>22</ele>
        <time>2019-10-27T12:32:58Z</time>
      </trkpt>
      <trkpt lat="48.66492" lon="-2.28574">
        <ele>22</ele>
        <time>2019-10-27T12:33:08Z</time>
      </trkpt>
      <trkpt lat="48.66487" lon="-2.28575">
        <ele>21</ele>
        <time>2019-10-27T12:33:12Z</time>
      </trkpt>
      <trkpt lat="48.66479" lon="-2.28585">
        <ele>22</ele>
        <time>2019-10-27T12:33:20Z</time>
      </trkpt>
      <trkpt lat="48.66469" lon="-2.28603">
        <ele>23</ele>
        <time>2019-10-27T12:33:34Z</time>
      </trkpt>
      <trkpt lat="48.66453" lon="-2.28622">
        <ele>27</ele>
        <time>2019-10-27T12:33:52Z</time>
      </trkpt>
      <trkpt lat="48.66448" lon="-2.28624">
        <ele>27</ele>
        <time>2019-10-27T12:33:56Z</time>
      </trkpt>
      <trkpt lat="48.66438" lon="-2.28627">
        <ele>26</ele>
        <time>2019-10-27T12:34:03Z</time>
      </trkpt>
      <trkpt lat="48.66435" lon="-2.28632">
        <ele>26</ele>
        <time>2019-10-27T12:34:07Z</time>
      </trkpt>
      <trkpt lat="48.66431" lon="-2.28638">
        <ele>26</ele>
        <time>2019-10-27T12:34:12Z</time>
      </trkpt>
      <trkpt lat="48.66426" lon="-2.28641">
        <ele>27</ele>
        <time>2019-10-27T12:34:16Z</time>
      </trkpt>
      <trkpt lat="48.66422" lon="-2.28643">
        <ele>26</ele>
        <time>2019-10-27T12:34:19Z</time>
      </trkpt>
      <trkpt lat="48.66417" lon="-2.28645">
        <ele>26</ele>
        <time>2019-10-27T12:34:23Z</time>
      </trkpt>
      <trkpt lat="48.66413" lon="-2.28649">
        <ele>26</ele>
        <time>2019-10-27T12:34:27Z</time>
      </trkpt>
      <trkpt lat="48.66405" lon="-2.28656">
        <ele>27</ele>
        <time>2019-10-27T12:34:35Z</time>
      </trkpt>
      <trkpt lat="48.664" lon="-2.28659">
        <ele>27</ele>
        <time>2019-10-27T12:34:39Z</time>
      </trkpt>
      <trkpt lat="48.66395" lon="-2.28662">
        <ele>27</ele>
        <time>2019-10-27T12:34:43Z</time>
      </trkpt>
      <trkpt lat="48.66386" lon="-2.28666">
        <ele>28</ele>
        <time>2019-10-27T12:34:51Z</time>
      </trkpt>
      <trkpt lat="48.66381" lon="-2.2867">
        <ele>28</ele>
        <time>2019-10-27T12:34:55Z</time>
      </trkpt>
      <trkpt lat="48.66376" lon="-2.2867">
        <ele>27</ele>
        <time>2019-10-27T12:34:59Z</time>
      </trkpt>
      <trkpt lat="48.66362" lon="-2.28679">
        <ele>25</ele>
        <time>2019-10-27T12:35:12Z</time>
      </trkpt>
      <trkpt lat="48.66357" lon="-2.28683">
        <ele>24</ele>
        <time>2019-10-27T12:35:16Z</time>
      </trkpt>
      <trkpt lat="48.66342" lon="-2.28689">
        <ele>22</ele>
        <time>2019-10-27T12:35:27Z</time>
      </trkpt>
      <trkpt lat="48.66337" lon="-2.28695">
        <ele>22</ele>
        <time>2019-10-27T12:35:31Z</time>
      </trkpt>
      <trkpt lat="48.66333" lon="-2.28699">
        <ele>22</ele>
        <time>2019-10-27T12:35:36Z</time>
      </trkpt>
      <trkpt lat="48.66329" lon="-2.28703">
        <ele>22</ele>
        <time>2019-10-27T12:35:40Z</time>
      </trkpt>
      <trkpt lat="48.66324" lon="-2.28714">
        <ele>21</ele>
        <time>2019-10-27T12:35:48Z</time>
      </trkpt>
      <trkpt lat="48.66322" lon="-2.28722">
        <ele>20</ele>
        <time>2019-10-27T12:35:53Z</time>
      </trkpt>
      <trkpt lat="48.66317" lon="-2.28752">
        <ele>23</ele>
        <time>2019-10-27T12:36:11Z</time>
      </trkpt>
      <trkpt lat="48.66318" lon="-2.28769">
        <ele>25</ele>
        <time>2019-10-27T12:36:22Z</time>
      </trkpt>
      <trkpt lat="48.66321" lon="-2.28775">
        <ele>25</ele>
        <time>2019-10-27T12:36:27Z</time>
      </trkpt>
      <trkpt lat="48.66324" lon="-2.28784">
        <ele>26</ele>
        <time>2019-10-27T12:36:34Z</time>
      </trkpt>
      <trkpt lat="48.66328" lon="-2.28798">
        <ele>26</ele>
        <time>2019-10-27T12:36:44Z</time>
      </trkpt>
      <trkpt lat="48.6633" lon="-2.28808">
        <ele>27</ele>
        <time>2019-10-27T12:36:51Z</time>
      </trkpt>
      <trkpt lat="48.66331" lon="-2.28815">
        <ele>28</ele>
        <time>2019-10-27T12:36:55Z</time>
      </trkpt>
      <trkpt lat="48.66331" lon="-2.28822">
        <ele>28</ele>
        <time>2019-10-27T12:36:59Z</time>
      </trkpt>
      <trkpt lat="48.66329" lon="-2.28828">
        <ele>28</ele>
        <time>2019-10-27T12:37:02Z</time>
      </trkpt>
      <trkpt lat="48.66327" lon="-2.28836">
        <ele>28</ele>
        <time>2019-10-27T12:37:06Z</time>
      </trkpt>
      <trkpt lat="48.66324" lon="-2.28852">
        <ele>26</ele>
        <time>2019-10-27T12:37:14Z</time>
      </trkpt>
      <trkpt lat="48.66322" lon="-2.28858">
        <ele>26</ele>
        <time>2019-10-27T12:37:17Z</time>
      </trkpt>
      <trkpt lat="48.66321" lon="-2.28873">
        <ele>24</ele>
        <time>2019-10-27T12:37:27Z</time>
      </trkpt>
      <trkpt lat="48.66321" lon="-2.28889">
        <ele>22</ele>
        <time>2019-10-27T12:37:41Z</time>
      </trkpt>
      <trkpt lat="48.66319" lon="-2.28912">
        <ele>18</ele>
        <time>2019-10-27T12:37:54Z</time>
      </trkpt>
      <trkpt lat="48.66319" lon="-2.28919">
        <ele>17</ele>
        <time>2019-10-27T12:37:58Z</time>
      </trkpt>
      <trkpt lat="48.66316" lon="-2.28929">
        <ele>18</ele>
        <time>2019-10-27T12:38:06Z</time>
      </trkpt>
      <trkpt lat="48.66313" lon="-2.28936">
        <ele>20</ele>
        <time>2019-10-27T12:38:13Z</time>
      </trkpt>
      <trkpt lat="48.66315" lon="-2.28943">
        <ele>22</ele>
        <time>2019-10-27T12:38:21Z</time>
      </trkpt>
      <trkpt lat="48.66321" lon="-2.28953">
        <ele>25</ele>
        <time>2019-10-27T12:38:33Z</time>
      </trkpt>
      <trkpt lat="48.66319" lon="-2.28964">
        <ele>28</ele>
        <time>2019-10-27T12:38:42Z</time>
      </trkpt>
      <trkpt lat="48.66312" lon="-2.28978">
        <ele>29</ele>
        <time>2019-10-27T12:38:50Z</time>
      </trkpt>
      <trkpt lat="48.66307" lon="-2.28983">
        <ele>29</ele>
        <time>2019-10-27T12:38:54Z</time>
      </trkpt>
      <trkpt lat="48.66304" lon="-2.28989">
        <ele>27</ele>
        <time>2019-10-27T12:38:58Z</time>
      </trkpt>
      <trkpt lat="48.66297" lon="-2.29001">
        <ele>27</ele>
        <time>2019-10-27T12:39:06Z</time>
      </trkpt>
      <trkpt lat="48.66293" lon="-2.29007">
        <ele>27</ele>
        <time>2019-10-27T12:39:10Z</time>
      </trkpt>
      <trkpt lat="48.6629" lon="-2.29015">
        <ele>26</ele>
        <time>2019-10-27T12:39:15Z</time>
      </trkpt>
      <trkpt lat="48.66288" lon="-2.29023">
        <ele>26</ele>
        <time>2019-10-27T12:39:19Z</time>
      </trkpt>
      <trkpt lat="48.66285" lon="-2.29028">
        <ele>27</ele>
        <time>2019-10-27T12:39:22Z</time>
      </trkpt>
      <trkpt lat="48.66277" lon="-2.29038">
        <ele>26</ele>
        <time>2019-10-27T12:39:30Z</time>
      </trkpt>
      <trkpt lat="48.66272" lon="-2.29043">
        <ele>25</ele>
        <time>2019-10-27T12:39:35Z</time>
      </trkpt>
      <trkpt lat="48.66262" lon="-2.29048">
        <ele>25</ele>
        <time>2019-10-27T12:39:42Z</time>
      </trkpt>
      <trkpt lat="48.66258" lon="-2.29052">
        <ele>25</ele>
        <time>2019-10-27T12:39:46Z</time>
      </trkpt>
      <trkpt lat="48.66254" lon="-2.29057">
        <ele>25</ele>
        <time>2019-10-27T12:39:51Z</time>
      </trkpt>
      <trkpt lat="48.66246" lon="-2.29066">
        <ele>26</ele>
        <time>2019-10-27T12:40:00Z</time>
      </trkpt>
      <trkpt lat="48.66242" lon="-2.2907">
        <ele>26</ele>
        <time>2019-10-27T12:40:04Z</time>
      </trkpt>
      <trkpt lat="48.66232" lon="-2.2908">
        <ele>24</ele>
        <time>2019-10-27T12:40:16Z</time>
      </trkpt>
      <trkpt lat="48.66227" lon="-2.29085">
        <ele>24</ele>
        <time>2019-10-27T12:40:21Z</time>
      </trkpt>
      <trkpt lat="48.66225" lon="-2.29108">
        <ele>29</ele>
        <time>2019-10-27T12:40:55Z</time>
      </trkpt>
      <trkpt lat="48.66223" lon="-2.29116">
        <ele>29</ele>
        <time>2019-10-27T12:41:00Z</time>
      </trkpt>
      <trkpt lat="48.66217" lon="-2.29138">
        <ele>31</ele>
        <time>2019-10-27T12:41:15Z</time>
      </trkpt>
      <trkpt lat="48.66214" lon="-2.29141">
        <ele>31</ele>
        <time>2019-10-27T12:41:18Z</time>
      </trkpt>
      <trkpt lat="48.66209" lon="-2.29149">
        <ele>30</ele>
        <time>2019-10-27T12:41:24Z</time>
      </trkpt>
      <trkpt lat="48.66205" lon="-2.29154">
        <ele>30</ele>
        <time>2019-10-27T12:41:29Z</time>
      </trkpt>
      <trkpt lat="48.66202" lon="-2.2916">
        <ele>30</ele>
        <time>2019-10-27T12:41:35Z</time>
      </trkpt>
      <trkpt lat="48.66191" lon="-2.29176">
        <ele>28</ele>
        <time>2019-10-27T12:41:47Z</time>
      </trkpt>
      <trkpt lat="48.66186" lon="-2.29181">
        <ele>28</ele>
        <time>2019-10-27T12:41:51Z</time>
      </trkpt>
      <trkpt lat="48.66176" lon="-2.29198">
        <ele>29</ele>
        <time>2019-10-27T12:42:01Z</time>
      </trkpt>
      <trkpt lat="48.66154" lon="-2.29226">
        <ele>28</ele>
        <time>2019-10-27T12:42:25Z</time>
      </trkpt>
      <trkpt lat="48.66149" lon="-2.2924">
        <ele>28</ele>
        <time>2019-10-27T12:42:32Z</time>
      </trkpt>
      <trkpt lat="48.66151" lon="-2.29254">
        <ele>29</ele>
        <time>2019-10-27T12:43:14Z</time>
      </trkpt>
      <trkpt lat="48.66161" lon="-2.29264">
        <ele>33</ele>
        <time>2019-10-27T12:43:30Z</time>
      </trkpt>
      <trkpt lat="48.66173" lon="-2.29273">
        <ele>38</ele>
        <time>2019-10-27T12:43:47Z</time>
      </trkpt>
      <trkpt lat="48.66178" lon="-2.29285">
        <ele>39</ele>
        <time>2019-10-27T12:43:57Z</time>
      </trkpt>
      <trkpt lat="48.66177" lon="-2.29305">
        <ele>38</ele>
        <time>2019-10-27T12:44:13Z</time>
      </trkpt>
      <trkpt lat="48.66166" lon="-2.29326">
        <ele>37</ele>
        <time>2019-10-27T12:44:47Z</time>
      </trkpt>
      <trkpt lat="48.66157" lon="-2.29334">
        <ele>38</ele>
        <time>2019-10-27T12:44:57Z</time>
      </trkpt>
      <trkpt lat="48.66146" lon="-2.29352">
        <ele>39</ele>
        <time>2019-10-27T12:45:11Z</time>
      </trkpt>
      <trkpt lat="48.6614" lon="-2.29359">
        <ele>38</ele>
        <time>2019-10-27T12:45:19Z</time>
      </trkpt>
      <trkpt lat="48.66129" lon="-2.2936">
        <ele>37</ele>
        <time>2019-10-27T12:45:28Z</time>
      </trkpt>
      <trkpt lat="48.66124" lon="-2.29362">
        <ele>36</ele>
        <time>2019-10-27T12:45:32Z</time>
      </trkpt>
      <trkpt lat="48.66114" lon="-2.29362">
        <ele>33</ele>
        <time>2019-10-27T12:45:40Z</time>
      </trkpt>
      <trkpt lat="48.6611" lon="-2.29364">
        <ele>32</ele>
        <time>2019-10-27T12:45:43Z</time>
      </trkpt>
      <trkpt lat="48.66107" lon="-2.29372">
        <ele>32</ele>
        <time>2019-10-27T12:45:48Z</time>
      </trkpt>
      <trkpt lat="48.66105" lon="-2.2938">
        <ele>33</ele>
        <time>2019-10-27T12:45:53Z</time>
      </trkpt>
      <trkpt lat="48.66102" lon="-2.29385">
        <ele>34</ele>
        <time>2019-10-27T12:45:57Z</time>
      </trkpt>
      <trkpt lat="48.66098" lon="-2.29388">
        <ele>34</ele>
        <time>2019-10-27T12:46:01Z</time>
      </trkpt>
      <trkpt lat="48.66095" lon="-2.29394">
        <ele>35</ele>
        <time>2019-10-27T12:46:06Z</time>
      </trkpt>
      <trkpt lat="48.66092" lon="-2.294">
        <ele>35</ele>
        <time>2019-10-27T12:46:09Z</time>
      </trkpt>
      <trkpt lat="48.66088" lon="-2.29404">
        <ele>35</ele>
        <time>2019-10-27T12:46:12Z</time>
      </trkpt>
      <trkpt lat="48.66084" lon="-2.29409">
        <ele>36</ele>
        <time>2019-10-27T12:46:16Z</time>
      </trkpt>
      <trkpt lat="48.66071" lon="-2.29422">
        <ele>35</ele>
        <time>2019-10-27T12:46:28Z</time>
      </trkpt>
      <trkpt lat="48.66066" lon="-2.29426">
        <ele>36</ele>
        <time>2019-10-27T12:46:32Z</time>
      </trkpt>
      <trkpt lat="48.66062" lon="-2.2943">
        <ele>36</ele>
        <time>2019-10-27T12:46:36Z</time>
      </trkpt>
      <trkpt lat="48.66059" lon="-2.29437">
        <ele>37</ele>
        <time>2019-10-27T12:46:41Z</time>
      </trkpt>
      <trkpt lat="48.66056" lon="-2.29443">
        <ele>39</ele>
        <time>2019-10-27T12:46:46Z</time>
      </trkpt>
      <trkpt lat="48.66051" lon="-2.29445">
        <ele>39</ele>
        <time>2019-10-27T12:46:50Z</time>
      </trkpt>
      <trkpt lat="48.66047" lon="-2.29449">
        <ele>39</ele>
        <time>2019-10-27T12:46:54Z</time>
      </trkpt>
      <trkpt lat="48.66045" lon="-2.29457">
        <ele>39</ele>
        <time>2019-10-27T12:46:59Z</time>
      </trkpt>
      <trkpt lat="48.66037" lon="-2.29482">
        <ele>44</ele>
        <time>2019-10-27T12:47:20Z</time>
      </trkpt>
      <trkpt lat="48.66033" lon="-2.29487">
        <ele>45</ele>
        <time>2019-10-27T12:47:24Z</time>
      </trkpt>
      <trkpt lat="48.66031" lon="-2.29494">
        <ele>45</ele>
        <time>2019-10-27T12:47:29Z</time>
      </trkpt>
      <trkpt lat="48.66016" lon="-2.29515">
        <ele>48</ele>
        <time>2019-10-27T12:47:48Z</time>
      </trkpt>
      <trkpt lat="48.66011" lon="-2.29518">
        <ele>48</ele>
        <time>2019-10-27T12:47:52Z</time>
      </trkpt>
      <trkpt lat="48.66007" lon="-2.29516">
        <ele>49</ele>
        <time>2019-10-27T12:47:56Z</time>
      </trkpt>
      <trkpt lat="48.66002" lon="-2.29516">
        <ele>47</ele>
        <time>2019-10-27T12:48:01Z</time>
      </trkpt>
      <trkpt lat="48.65997" lon="-2.29515">
        <ele>47</ele>
        <time>2019-10-27T12:48:05Z</time>
      </trkpt>
      <trkpt lat="48.65988" lon="-2.29514">
        <ele>48</ele>
        <time>2019-10-27T12:48:15Z</time>
      </trkpt>
      <trkpt lat="48.65975" lon="-2.29503">
        <ele>44</ele>
        <time>2019-10-27T12:48:32Z</time>
      </trkpt>
      <trkpt lat="48.6597" lon="-2.29503">
        <ele>42</ele>
        <time>2019-10-27T12:48:36Z</time>
      </trkpt>
      <trkpt lat="48.65965" lon="-2.29504">
        <ele>41</ele>
        <time>2019-10-27T12:48:40Z</time>
      </trkpt>
      <trkpt lat="48.65956" lon="-2.29502">
        <ele>42</ele>
        <time>2019-10-27T12:48:47Z</time>
      </trkpt>
      <trkpt lat="48.65951" lon="-2.29504">
        <ele>42</ele>
        <time>2019-10-27T12:48:52Z</time>
      </trkpt>
      <trkpt lat="48.65932" lon="-2.29498">
        <ele>48</ele>
        <time>2019-10-27T12:49:17Z</time>
      </trkpt>
      <trkpt lat="48.65926" lon="-2.29497">
        <ele>48</ele>
        <time>2019-10-27T12:49:21Z</time>
      </trkpt>
      <trkpt lat="48.65922" lon="-2.295">
        <ele>49</ele>
        <time>2019-10-27T12:49:31Z</time>
      </trkpt>
      <trkpt lat="48.65918" lon="-2.29494">
        <ele>48</ele>
        <time>2019-10-27T12:50:22Z</time>
      </trkpt>
      <trkpt lat="48.65898" lon="-2.29478">
        <ele>44</ele>
        <time>2019-10-27T12:50:46Z</time>
      </trkpt>
      <trkpt lat="48.65894" lon="-2.29473">
        <ele>43</ele>
        <time>2019-10-27T12:50:51Z</time>
      </trkpt>
      <trkpt lat="48.65889" lon="-2.29462">
        <ele>41</ele>
        <time>2019-10-27T12:50:59Z</time>
      </trkpt>
      <trkpt lat="48.65877" lon="-2.29448">
        <ele>39</ele>
        <time>2019-10-27T12:51:11Z</time>
      </trkpt>
      <trkpt lat="48.65875" lon="-2.29441">
        <ele>37</ele>
        <time>2019-10-27T12:51:15Z</time>
      </trkpt>
      <trkpt lat="48.65873" lon="-2.29435">
        <ele>36</ele>
        <time>2019-10-27T12:51:19Z</time>
      </trkpt>
      <trkpt lat="48.65869" lon="-2.2943">
        <ele>35</ele>
        <time>2019-10-27T12:51:24Z</time>
      </trkpt>
      <trkpt lat="48.65863" lon="-2.29426">
        <ele>35</ele>
        <time>2019-10-27T12:51:28Z</time>
      </trkpt>
      <trkpt lat="48.65854" lon="-2.29418">
        <ele>34</ele>
        <time>2019-10-27T12:51:36Z</time>
      </trkpt>
      <trkpt lat="48.65849" lon="-2.29416">
        <ele>33</ele>
        <time>2019-10-27T12:51:40Z</time>
      </trkpt>
      <trkpt lat="48.65844" lon="-2.29417">
        <ele>33</ele>
        <time>2019-10-27T12:51:45Z</time>
      </trkpt>
      <trkpt lat="48.65837" lon="-2.29416">
        <ele>31</ele>
        <time>2019-10-27T12:51:52Z</time>
      </trkpt>
      <trkpt lat="48.65829" lon="-2.29423">
        <ele>29</ele>
        <time>2019-10-27T12:52:01Z</time>
      </trkpt>
      <trkpt lat="48.65818" lon="-2.29423">
        <ele>25</ele>
        <time>2019-10-27T12:52:13Z</time>
      </trkpt>
      <trkpt lat="48.65816" lon="-2.29429">
        <ele>24</ele>
        <time>2019-10-27T12:52:17Z</time>
      </trkpt>
      <trkpt lat="48.65815" lon="-2.29437">
        <ele>23</ele>
        <time>2019-10-27T12:52:20Z</time>
      </trkpt>
      <trkpt lat="48.65816" lon="-2.29444">
        <ele>23</ele>
        <time>2019-10-27T12:52:23Z</time>
      </trkpt>
      <trkpt lat="48.65815" lon="-2.2945">
        <ele>23</ele>
        <time>2019-10-27T12:52:26Z</time>
      </trkpt>
      <trkpt lat="48.65814" lon="-2.29458">
        <ele>22</ele>
        <time>2019-10-27T12:52:31Z</time>
      </trkpt>
      <trkpt lat="48.65814" lon="-2.29466">
        <ele>21</ele>
        <time>2019-10-27T12:52:35Z</time>
      </trkpt>
      <trkpt lat="48.65819" lon="-2.29481">
        <ele>19</ele>
        <time>2019-10-27T12:52:44Z</time>
      </trkpt>
      <trkpt lat="48.65823" lon="-2.29487">
        <ele>18</ele>
        <time>2019-10-27T12:52:49Z</time>
      </trkpt>
      <trkpt lat="48.65825" lon="-2.29493">
        <ele>17</ele>
        <time>2019-10-27T12:52:53Z</time>
      </trkpt>
      <trkpt lat="48.65828" lon="-2.29498">
        <ele>18</ele>
        <time>2019-10-27T12:52:58Z</time>
      </trkpt>
      <trkpt lat="48.65829" lon="-2.29507">
        <ele>19</ele>
        <time>2019-10-27T12:53:06Z</time>
      </trkpt>
      <trkpt lat="48.65825" lon="-2.29511">
        <ele>20</ele>
        <time>2019-10-27T12:53:10Z</time>
      </trkpt>
      <trkpt lat="48.6582" lon="-2.29515">
        <ele>20</ele>
        <time>2019-10-27T12:53:14Z</time>
      </trkpt>
      <trkpt lat="48.65816" lon="-2.29519">
        <ele>20</ele>
        <time>2019-10-27T12:53:18Z</time>
      </trkpt>
      <trkpt lat="48.65813" lon="-2.29525">
        <ele>21</ele>
        <time>2019-10-27T12:53:22Z</time>
      </trkpt>
      <trkpt lat="48.6581" lon="-2.29541">
        <ele>22</ele>
        <time>2019-10-27T12:53:32Z</time>
      </trkpt>
      <trkpt lat="48.65807" lon="-2.29549">
        <ele>24</ele>
        <time>2019-10-27T12:53:37Z</time>
      </trkpt>
      <trkpt lat="48.65807" lon="-2.29556">
        <ele>24</ele>
        <time>2019-10-27T12:53:42Z</time>
      </trkpt>
      <trkpt lat="48.65805" lon="-2.29565">
        <ele>26</ele>
        <time>2019-10-27T12:53:50Z</time>
      </trkpt>
      <trkpt lat="48.65795" lon="-2.29584">
        <ele>30</ele>
        <time>2019-10-27T12:54:08Z</time>
      </trkpt>
      <trkpt lat="48.65789" lon="-2.2959">
        <ele>31</ele>
        <time>2019-10-27T12:54:15Z</time>
      </trkpt>
      <trkpt lat="48.65785" lon="-2.29593">
        <ele>31</ele>
        <time>2019-10-27T12:54:19Z</time>
      </trkpt>
      <trkpt lat="48.65775" lon="-2.296">
        <ele>29</ele>
        <time>2019-10-27T12:54:27Z</time>
      </trkpt>
      <trkpt lat="48.6577" lon="-2.29601">
        <ele>29</ele>
        <time>2019-10-27T12:54:30Z</time>
      </trkpt>
      <trkpt lat="48.65766" lon="-2.29604">
        <ele>28</ele>
        <time>2019-10-27T12:54:33Z</time>
      </trkpt>
      <trkpt lat="48.65762" lon="-2.29609">
        <ele>27</ele>
        <time>2019-10-27T12:54:38Z</time>
      </trkpt>
      <trkpt lat="48.65758" lon="-2.29613">
        <ele>28</ele>
        <time>2019-10-27T12:54:43Z</time>
      </trkpt>
      <trkpt lat="48.65745" lon="-2.29623">
        <ele>30</ele>
        <time>2019-10-27T12:54:56Z</time>
      </trkpt>
      <trkpt lat="48.65741" lon="-2.29628">
        <ele>31</ele>
        <time>2019-10-27T12:55:01Z</time>
      </trkpt>
      <trkpt lat="48.65736" lon="-2.29637">
        <ele>32</ele>
        <time>2019-10-27T12:55:09Z</time>
      </trkpt>
      <trkpt lat="48.65729" lon="-2.29645">
        <ele>34</ele>
        <time>2019-10-27T12:55:17Z</time>
      </trkpt>
      <trkpt lat="48.65724" lon="-2.29649">
        <ele>34</ele>
        <time>2019-10-27T12:55:22Z</time>
      </trkpt>
      <trkpt lat="48.65719" lon="-2.29651">
        <ele>35</ele>
        <time>2019-10-27T12:55:26Z</time>
      </trkpt>
      <trkpt lat="48.65715" lon="-2.29654">
        <ele>34</ele>
        <time>2019-10-27T12:55:30Z</time>
      </trkpt>
      <trkpt lat="48.6571" lon="-2.29655">
        <ele>34</ele>
        <time>2019-10-27T12:55:34Z</time>
      </trkpt>
      <trkpt lat="48.65705" lon="-2.29657">
        <ele>34</ele>
        <time>2019-10-27T12:55:38Z</time>
      </trkpt>
      <trkpt lat="48.657" lon="-2.29665">
        <ele>34</ele>
        <time>2019-10-27T12:55:45Z</time>
      </trkpt>
      <trkpt lat="48.65695" lon="-2.29668">
        <ele>36</ele>
        <time>2019-10-27T12:55:50Z</time>
      </trkpt>
      <trkpt lat="48.65686" lon="-2.2967">
        <ele>36</ele>
        <time>2019-10-27T12:55:59Z</time>
      </trkpt>
      <trkpt lat="48.65681" lon="-2.2967">
        <ele>36</ele>
        <time>2019-10-27T12:56:03Z</time>
      </trkpt>
      <trkpt lat="48.65672" lon="-2.29674">
        <ele>35</ele>
        <time>2019-10-27T12:56:11Z</time>
      </trkpt>
      <trkpt lat="48.65669" lon="-2.29681">
        <ele>36</ele>
        <time>2019-10-27T12:56:16Z</time>
      </trkpt>
      <trkpt lat="48.65665" lon="-2.29686">
        <ele>38</ele>
        <time>2019-10-27T12:56:21Z</time>
      </trkpt>
      <trkpt lat="48.6566" lon="-2.2969">
        <ele>37</ele>
        <time>2019-10-27T12:56:26Z</time>
      </trkpt>
      <trkpt lat="48.65656" lon="-2.29696">
        <ele>37</ele>
        <time>2019-10-27T12:56:31Z</time>
      </trkpt>
      <trkpt lat="48.65651" lon="-2.29698">
        <ele>36</ele>
        <time>2019-10-27T12:56:36Z</time>
      </trkpt>
      <trkpt lat="48.65644" lon="-2.29728">
        <ele>32</ele>
        <time>2019-10-27T12:56:56Z</time>
      </trkpt>
      <trkpt lat="48.65645" lon="-2.29735">
        <ele>31</ele>
        <time>2019-10-27T12:57:01Z</time>
      </trkpt>
      <trkpt lat="48.65643" lon="-2.29748">
        <ele>30</ele>
        <time>2019-10-27T12:57:12Z</time>
      </trkpt>
      <trkpt lat="48.65636" lon="-2.29748">
        <ele>30</ele>
        <time>2019-10-27T12:57:23Z</time>
      </trkpt>
      <trkpt lat="48.65626" lon="-2.29751">
        <ele>35</ele>
        <time>2019-10-27T12:57:48Z</time>
      </trkpt>
      <trkpt lat="48.65613" lon="-2.29754">
        <ele>37</ele>
        <time>2019-10-27T12:58:02Z</time>
      </trkpt>
      <trkpt lat="48.656" lon="-2.29757">
        <ele>35</ele>
        <time>2019-10-27T12:58:15Z</time>
      </trkpt>
      <trkpt lat="48.65592" lon="-2.29762">
        <ele>33</ele>
        <time>2019-10-27T12:58:22Z</time>
      </trkpt>
      <trkpt lat="48.65582" lon="-2.29776">
        <ele>32</ele>
        <time>2019-10-27T12:58:34Z</time>
      </trkpt>
      <trkpt lat="48.65578" lon="-2.2978">
        <ele>32</ele>
        <time>2019-10-27T12:58:38Z</time>
      </trkpt>
      <trkpt lat="48.6557" lon="-2.29796">
        <ele>32</ele>
        <time>2019-10-27T12:58:51Z</time>
      </trkpt>
      <trkpt lat="48.65569" lon="-2.29804">
        <ele>32</ele>
        <time>2019-10-27T12:58:55Z</time>
      </trkpt>
      <trkpt lat="48.65564" lon="-2.29834">
        <ele>34</ele>
        <time>2019-10-27T12:59:11Z</time>
      </trkpt>
      <trkpt lat="48.65564" lon="-2.29856">
        <ele>36</ele>
        <time>2019-10-27T12:59:24Z</time>
      </trkpt>
      <trkpt lat="48.65563" lon="-2.29871">
        <ele>38</ele>
        <time>2019-10-27T12:59:32Z</time>
      </trkpt>
      <trkpt lat="48.65562" lon="-2.29886">
        <ele>38</ele>
        <time>2019-10-27T12:59:41Z</time>
      </trkpt>
      <trkpt lat="48.65561" lon="-2.299">
        <ele>40</ele>
        <time>2019-10-27T12:59:51Z</time>
      </trkpt>
      <trkpt lat="48.65567" lon="-2.29929">
        <ele>43</ele>
        <time>2019-10-27T13:00:08Z</time>
      </trkpt>
      <trkpt lat="48.65574" lon="-2.29924">
        <ele>43</ele>
        <time>2019-10-27T13:02:52Z</time>
      </trkpt>
      <trkpt lat="48.65569" lon="-2.29942">
        <ele>44</ele>
        <time>2019-10-27T13:03:44Z</time>
      </trkpt>
      <trkpt lat="48.65561" lon="-2.29951">
        <ele>43</ele>
        <time>2019-10-27T13:03:53Z</time>
      </trkpt>
      <trkpt lat="48.65552" lon="-2.29948">
        <ele>41</ele>
        <time>2019-10-27T13:04:00Z</time>
      </trkpt>
      <trkpt lat="48.65545" lon="-2.29939">
        <ele>42</ele>
        <time>2019-10-27T13:04:15Z</time>
      </trkpt>
      <trkpt lat="48.65533" lon="-2.29931">
        <ele>48</ele>
        <time>2019-10-27T13:04:37Z</time>
      </trkpt>
      <trkpt lat="48.65523" lon="-2.29931">
        <ele>53</ele>
        <time>2019-10-27T13:04:52Z</time>
      </trkpt>
      <trkpt lat="48.65509" lon="-2.29926">
        <ele>56</ele>
        <time>2019-10-27T13:05:06Z</time>
      </trkpt>
      <trkpt lat="48.65506" lon="-2.2992">
        <ele>56</ele>
        <time>2019-10-27T13:05:11Z</time>
      </trkpt>
      <trkpt lat="48.65502" lon="-2.29916">
        <ele>56</ele>
        <time>2019-10-27T13:05:16Z</time>
      </trkpt>
      <trkpt lat="48.65498" lon="-2.2992">
        <ele>56</ele>
        <time>2019-10-27T13:05:21Z</time>
      </trkpt>
      <trkpt lat="48.65496" lon="-2.2992">
        <ele>57</ele>
        <time>2019-10-27T13:07:53Z</time>
      </trkpt>
      <trkpt lat="48.65491" lon="-2.29917">
        <ele>57</ele>
        <time>2019-10-27T13:08:09Z</time>
      </trkpt>
      <trkpt lat="48.65487" lon="-2.29913">
        <ele>56</ele>
        <time>2019-10-27T13:08:13Z</time>
      </trkpt>
      <trkpt lat="48.65483" lon="-2.29908">
        <ele>56</ele>
        <time>2019-10-27T13:08:17Z</time>
      </trkpt>
      <trkpt lat="48.65479" lon="-2.29904">
        <ele>56</ele>
        <time>2019-10-27T13:08:21Z</time>
      </trkpt>
      <trkpt lat="48.65474" lon="-2.29901">
        <ele>55</ele>
        <time>2019-10-27T13:08:25Z</time>
      </trkpt>
      <trkpt lat="48.65459" lon="-2.29881">
        <ele>53</ele>
        <time>2019-10-27T13:08:41Z</time>
      </trkpt>
      <trkpt lat="48.65448" lon="-2.29866">
        <ele>52</ele>
        <time>2019-10-27T13:08:53Z</time>
      </trkpt>
      <trkpt lat="48.65449" lon="-2.29866">
        <ele>51</ele>
        <time>2019-10-27T13:09:24Z</time>
      </trkpt>
      <trkpt lat="48.65453" lon="-2.29872">
        <ele>52</ele>
        <time>2019-10-27T13:09:29Z</time>
      </trkpt>
      <trkpt lat="48.65457" lon="-2.29876">
        <ele>52</ele>
        <time>2019-10-27T13:09:33Z</time>
      </trkpt>
      <trkpt lat="48.65463" lon="-2.29886">
        <ele>53</ele>
        <time>2019-10-27T13:09:41Z</time>
      </trkpt>
      <trkpt lat="48.6549" lon="-2.29912">
        <ele>57</ele>
        <time>2019-10-27T13:10:11Z</time>
      </trkpt>
      <trkpt lat="48.65492" lon="-2.29919">
        <ele>57</ele>
        <time>2019-10-27T13:10:15Z</time>
      </trkpt>
      <trkpt lat="48.65491" lon="-2.29927">
        <ele>57</ele>
        <time>2019-10-27T13:10:20Z</time>
      </trkpt>
      <trkpt lat="48.65484" lon="-2.2995">
        <ele>61</ele>
        <time>2019-10-27T13:10:38Z</time>
      </trkpt>
      <trkpt lat="48.65479" lon="-2.29961">
        <ele>62</ele>
        <time>2019-10-27T13:10:50Z</time>
      </trkpt>
      <trkpt lat="48.65461" lon="-2.30007">
        <ele>68</ele>
        <time>2019-10-27T13:11:24Z</time>
      </trkpt>
      <trkpt lat="48.65459" lon="-2.30014">
        <ele>69</ele>
        <time>2019-10-27T13:11:29Z</time>
      </trkpt>
      <trkpt lat="48.65456" lon="-2.3002">
        <ele>69</ele>
        <time>2019-10-27T13:11:33Z</time>
      </trkpt>
      <trkpt lat="48.65453" lon="-2.30027">
        <ele>70</ele>
        <time>2019-10-27T13:11:38Z</time>
      </trkpt>
      <trkpt lat="48.65446" lon="-2.30038">
        <ele>71</ele>
        <time>2019-10-27T13:11:47Z</time>
      </trkpt>
      <trkpt lat="48.65443" lon="-2.30044">
        <ele>71</ele>
        <time>2019-10-27T13:11:51Z</time>
      </trkpt>
      <trkpt lat="48.65441" lon="-2.30051">
        <ele>70</ele>
        <time>2019-10-27T13:11:55Z</time>
      </trkpt>
      <trkpt lat="48.65438" lon="-2.30059">
        <ele>71</ele>
        <time>2019-10-27T13:11:59Z</time>
      </trkpt>
      <trkpt lat="48.65428" lon="-2.30077">
        <ele>69</ele>
        <time>2019-10-27T13:12:10Z</time>
      </trkpt>
      <trkpt lat="48.6542" lon="-2.30086">
        <ele>68</ele>
        <time>2019-10-27T13:12:17Z</time>
      </trkpt>
      <trkpt lat="48.65407" lon="-2.30099">
        <ele>67</ele>
        <time>2019-10-27T13:12:28Z</time>
      </trkpt>
      <trkpt lat="48.65402" lon="-2.30111">
        <ele>65</ele>
        <time>2019-10-27T13:14:12Z</time>
      </trkpt>
      <trkpt lat="48.654" lon="-2.30117">
        <ele>65</ele>
        <time>2019-10-27T13:14:16Z</time>
      </trkpt>
      <trkpt lat="48.65399" lon="-2.30124">
        <ele>66</ele>
        <time>2019-10-27T13:14:21Z</time>
      </trkpt>
      <trkpt lat="48.65398" lon="-2.30134">
        <ele>66</ele>
        <time>2019-10-27T13:14:29Z</time>
      </trkpt>
      <trkpt lat="48.65396" lon="-2.30147">
        <ele>66</ele>
        <time>2019-10-27T13:14:39Z</time>
      </trkpt>
      <trkpt lat="48.65395" lon="-2.30155">
        <ele>67</ele>
        <time>2019-10-27T13:14:44Z</time>
      </trkpt>
      <trkpt lat="48.65382" lon="-2.30178">
        <ele>69</ele>
        <time>2019-10-27T13:15:04Z</time>
      </trkpt>
      <trkpt lat="48.65378" lon="-2.30181">
        <ele>69</ele>
        <time>2019-10-27T13:15:15Z</time>
      </trkpt>
      <trkpt lat="48.65376" lon="-2.30189">
        <ele>69</ele>
        <time>2019-10-27T13:15:28Z</time>
      </trkpt>
      <trkpt lat="48.65373" lon="-2.30195">
        <ele>69</ele>
        <time>2019-10-27T13:15:32Z</time>
      </trkpt>
      <trkpt lat="48.65359" lon="-2.30226">
        <ele>71</ele>
        <time>2019-10-27T13:16:04Z</time>
      </trkpt>
      <trkpt lat="48.65346" lon="-2.30241">
        <ele>72</ele>
        <time>2019-10-27T13:16:16Z</time>
      </trkpt>
      <trkpt lat="48.65347" lon="-2.3025">
        <ele>72</ele>
        <time>2019-10-27T13:16:27Z</time>
      </trkpt>
      <trkpt lat="48.65349" lon="-2.30258">
        <ele>72</ele>
        <time>2019-10-27T13:16:39Z</time>
      </trkpt>
      <trkpt lat="48.65353" lon="-2.30261">
        <ele>72</ele>
        <time>2019-10-27T13:16:44Z</time>
      </trkpt>
      <trkpt lat="48.65363" lon="-2.30281">
        <ele>71</ele>
        <time>2019-10-27T13:16:56Z</time>
      </trkpt>
      <trkpt lat="48.65368" lon="-2.30286">
        <ele>71</ele>
        <time>2019-10-27T13:17:00Z</time>
      </trkpt>
      <trkpt lat="48.65377" lon="-2.30305">
        <ele>71</ele>
        <time>2019-10-27T13:17:12Z</time>
      </trkpt>
      <trkpt lat="48.65381" lon="-2.30311">
        <ele>71</ele>
        <time>2019-10-27T13:17:16Z</time>
      </trkpt>
      <trkpt lat="48.65392" lon="-2.30327">
        <ele>71</ele>
        <time>2019-10-27T13:17:28Z</time>
      </trkpt>
      <trkpt lat="48.65397" lon="-2.30331">
        <ele>71</ele>
        <time>2019-10-27T13:17:32Z</time>
      </trkpt>
      <trkpt lat="48.65405" lon="-2.30342">
        <ele>71</ele>
        <time>2019-10-27T13:17:40Z</time>
      </trkpt>
      <trkpt lat="48.65412" lon="-2.30353">
        <ele>71</ele>
        <time>2019-10-27T13:17:48Z</time>
      </trkpt>
      <trkpt lat="48.6542" lon="-2.30363">
        <ele>71</ele>
        <time>2019-10-27T13:17:56Z</time>
      </trkpt>
      <trkpt lat="48.65424" lon="-2.30369">
        <ele>72</ele>
        <time>2019-10-27T13:18:00Z</time>
      </trkpt>
      <trkpt lat="48.65428" lon="-2.30375">
        <ele>72</ele>
        <time>2019-10-27T13:18:04Z</time>
      </trkpt>
      <trkpt lat="48.65432" lon="-2.3038">
        <ele>72</ele>
        <time>2019-10-27T13:18:08Z</time>
      </trkpt>
      <trkpt lat="48.65437" lon="-2.30385">
        <ele>72</ele>
        <time>2019-10-27T13:18:15Z</time>
      </trkpt>
      <trkpt lat="48.65453" lon="-2.30439">
        <ele>74</ele>
        <time>2019-10-27T13:18:48Z</time>
      </trkpt>
      <trkpt lat="48.65454" lon="-2.30446">
        <ele>73</ele>
        <time>2019-10-27T13:18:52Z</time>
      </trkpt>
      <trkpt lat="48.65455" lon="-2.30454">
        <ele>73</ele>
        <time>2019-10-27T13:18:56Z</time>
      </trkpt>
      <trkpt lat="48.65458" lon="-2.30476">
        <ele>73</ele>
        <time>2019-10-27T13:19:08Z</time>
      </trkpt>
      <trkpt lat="48.65459" lon="-2.30484">
        <ele>73</ele>
        <time>2019-10-27T13:19:12Z</time>
      </trkpt>
      <trkpt lat="48.65467" lon="-2.30536">
        <ele>72</ele>
        <time>2019-10-27T13:19:40Z</time>
      </trkpt>
      <trkpt lat="48.65481" lon="-2.30567">
        <ele>72</ele>
        <time>2019-10-27T13:20:00Z</time>
      </trkpt>
      <trkpt lat="48.65484" lon="-2.30572">
        <ele>72</ele>
        <time>2019-10-27T13:20:04Z</time>
      </trkpt>
      <trkpt lat="48.65498" lon="-2.30593">
        <ele>72</ele>
        <time>2019-10-27T13:20:20Z</time>
      </trkpt>
      <trkpt lat="48.65506" lon="-2.30622">
        <ele>72</ele>
        <time>2019-10-27T13:20:35Z</time>
      </trkpt>
      <trkpt lat="48.65506" lon="-2.30638">
        <ele>73</ele>
        <time>2019-10-27T13:20:43Z</time>
      </trkpt>
      <trkpt lat="48.65506" lon="-2.30647">
        <ele>73</ele>
        <time>2019-10-27T13:22:10Z</time>
      </trkpt>
      <trkpt lat="48.65505" lon="-2.30655">
        <ele>73</ele>
        <time>2019-10-27T13:22:14Z</time>
      </trkpt>
      <trkpt lat="48.65506" lon="-2.30663">
        <ele>73</ele>
        <time>2019-10-27T13:22:18Z</time>
      </trkpt>
      <trkpt lat="48.65508" lon="-2.3067">
        <ele>73</ele>
        <time>2019-10-27T13:22:22Z</time>
      </trkpt>
      <trkpt lat="48.65512" lon="-2.30703">
        <ele>74</ele>
        <time>2019-10-27T13:22:38Z</time>
      </trkpt>
      <trkpt lat="48.6551" lon="-2.30719">
        <ele>74</ele>
        <time>2019-10-27T13:22:46Z</time>
      </trkpt>
      <trkpt lat="48.65508" lon="-2.30726">
        <ele>74</ele>
        <time>2019-10-27T13:22:50Z</time>
      </trkpt>
      <trkpt lat="48.6549" lon="-2.30747">
        <ele>75</ele>
        <time>2019-10-27T13:23:06Z</time>
      </trkpt>
      <trkpt lat="48.65478" lon="-2.30761">
        <ele>76</ele>
        <time>2019-10-27T13:23:18Z</time>
      </trkpt>
      <trkpt lat="48.65466" lon="-2.30775">
        <ele>75</ele>
        <time>2019-10-27T13:23:30Z</time>
      </trkpt>
      <trkpt lat="48.65454" lon="-2.30791">
        <ele>76</ele>
        <time>2019-10-27T13:23:42Z</time>
      </trkpt>
      <trkpt lat="48.65451" lon="-2.30798">
        <ele>76</ele>
        <time>2019-10-27T13:23:46Z</time>
      </trkpt>
      <trkpt lat="48.65447" lon="-2.30821">
        <ele>76</ele>
        <time>2019-10-27T13:23:58Z</time>
      </trkpt>
      <trkpt lat="48.65448" lon="-2.30829">
        <ele>76</ele>
        <time>2019-10-27T13:24:02Z</time>
      </trkpt>
      <trkpt lat="48.65446" lon="-2.30843">
        <ele>77</ele>
        <time>2019-10-27T13:24:10Z</time>
      </trkpt>
      <trkpt lat="48.65443" lon="-2.30867">
        <ele>76</ele>
        <time>2019-10-27T13:24:23Z</time>
      </trkpt>
      <trkpt lat="48.65435" lon="-2.30895">
        <ele>74</ele>
        <time>2019-10-27T13:24:38Z</time>
      </trkpt>
      <trkpt lat="48.65432" lon="-2.30903">
        <ele>74</ele>
        <time>2019-10-27T13:24:42Z</time>
      </trkpt>
      <trkpt lat="48.65431" lon="-2.3091">
        <ele>74</ele>
        <time>2019-10-27T13:24:45Z</time>
      </trkpt>
      <trkpt lat="48.6543" lon="-2.30919">
        <ele>74</ele>
        <time>2019-10-27T13:24:49Z</time>
      </trkpt>
      <trkpt lat="48.65427" lon="-2.30943">
        <ele>73</ele>
        <time>2019-10-27T13:25:00Z</time>
      </trkpt>
      <trkpt lat="48.65426" lon="-2.30974">
        <ele>71</ele>
        <time>2019-10-27T13:25:16Z</time>
      </trkpt>
      <trkpt lat="48.65425" lon="-2.31004">
        <ele>71</ele>
        <time>2019-10-27T13:25:32Z</time>
      </trkpt>
      <trkpt lat="48.65424" lon="-2.31011">
        <ele>70</ele>
        <time>2019-10-27T13:25:37Z</time>
      </trkpt>
      <trkpt lat="48.65424" lon="-2.31027">
        <ele>70</ele>
        <time>2019-10-27T13:25:46Z</time>
      </trkpt>
      <trkpt lat="48.65419" lon="-2.3105">
        <ele>70</ele>
        <time>2019-10-27T13:25:58Z</time>
      </trkpt>
      <trkpt lat="48.65412" lon="-2.31071">
        <ele>70</ele>
        <time>2019-10-27T13:26:10Z</time>
      </trkpt>
      <trkpt lat="48.6541" lon="-2.31086">
        <ele>70</ele>
        <time>2019-10-27T13:26:18Z</time>
      </trkpt>
      <trkpt lat="48.65406" lon="-2.31097">
        <ele>69</ele>
        <time>2019-10-27T13:26:49Z</time>
      </trkpt>
      <trkpt lat="48.6539" lon="-2.31105">
        <ele>68</ele>
        <time>2019-10-27T13:27:01Z</time>
      </trkpt>
      <trkpt lat="48.65364" lon="-2.31131">
        <ele>66</ele>
        <time>2019-10-27T13:27:26Z</time>
      </trkpt>
      <trkpt lat="48.6536" lon="-2.31137">
        <ele>66</ele>
        <time>2019-10-27T13:27:30Z</time>
      </trkpt>
      <trkpt lat="48.65352" lon="-2.31148">
        <ele>66</ele>
        <time>2019-10-27T13:27:38Z</time>
      </trkpt>
      <trkpt lat="48.65321" lon="-2.31191">
        <ele>65</ele>
        <time>2019-10-27T13:28:10Z</time>
      </trkpt>
      <trkpt lat="48.65312" lon="-2.31203">
        <ele>66</ele>
        <time>2019-10-27T13:28:22Z</time>
      </trkpt>
      <trkpt lat="48.65307" lon="-2.31211">
        <ele>66</ele>
        <time>2019-10-27T13:28:31Z</time>
      </trkpt>
      <trkpt lat="48.6529" lon="-2.31228">
        <ele>65</ele>
        <time>2019-10-27T13:28:48Z</time>
      </trkpt>
      <trkpt lat="48.65287" lon="-2.31233">
        <ele>64</ele>
        <time>2019-10-27T13:28:52Z</time>
      </trkpt>
      <trkpt lat="48.65262" lon="-2.31259">
        <ele>63</ele>
        <time>2019-10-27T13:29:16Z</time>
      </trkpt>
      <trkpt lat="48.65258" lon="-2.31265">
        <ele>64</ele>
        <time>2019-10-27T13:29:21Z</time>
      </trkpt>
      <trkpt lat="48.65254" lon="-2.31269">
        <ele>63</ele>
        <time>2019-10-27T13:29:25Z</time>
      </trkpt>
      <trkpt lat="48.65234" lon="-2.3129">
        <ele>62</ele>
        <time>2019-10-27T13:29:46Z</time>
      </trkpt>
      <trkpt lat="48.65231" lon="-2.31297">
        <ele>62</ele>
        <time>2019-10-27T13:29:50Z</time>
      </trkpt>
      <trkpt lat="48.65218" lon="-2.31315">
        <ele>62</ele>
        <time>2019-10-27T13:30:02Z</time>
      </trkpt>
      <trkpt lat="48.65216" lon="-2.31321">
        <ele>62</ele>
        <time>2019-10-27T13:30:06Z</time>
      </trkpt>
      <trkpt lat="48.65208" lon="-2.31331">
        <ele>62</ele>
        <time>2019-10-27T13:30:15Z</time>
      </trkpt>
      <trkpt lat="48.65197" lon="-2.31342">
        <ele>62</ele>
        <time>2019-10-27T13:30:30Z</time>
      </trkpt>
      <trkpt lat="48.65175" lon="-2.31373">
        <ele>62</ele>
        <time>2019-10-27T13:30:52Z</time>
      </trkpt>
      <trkpt lat="48.65171" lon="-2.31375">
        <ele>62</ele>
        <time>2019-10-27T13:30:56Z</time>
      </trkpt>
      <trkpt lat="48.65167" lon="-2.31381">
        <ele>62</ele>
        <time>2019-10-27T13:31:01Z</time>
      </trkpt>
      <trkpt lat="48.65161" lon="-2.31389">
        <ele>62</ele>
        <time>2019-10-27T13:31:09Z</time>
      </trkpt>
      <trkpt lat="48.65152" lon="-2.31406">
        <ele>62</ele>
        <time>2019-10-27T13:31:19Z</time>
      </trkpt>
      <trkpt lat="48.65133" lon="-2.31433">
        <ele>62</ele>
        <time>2019-10-27T13:31:39Z</time>
      </trkpt>
      <trkpt lat="48.65109" lon="-2.31458">
        <ele>62</ele>
        <time>2019-10-27T13:32:02Z</time>
      </trkpt>
      <trkpt lat="48.65096" lon="-2.31484">
        <ele>62</ele>
        <time>2019-10-27T13:32:20Z</time>
      </trkpt>
      <trkpt lat="48.65094" lon="-2.31491">
        <ele>62</ele>
        <time>2019-10-27T13:32:25Z</time>
      </trkpt>
      <trkpt lat="48.65091" lon="-2.31497">
        <ele>63</ele>
        <time>2019-10-27T13:32:30Z</time>
      </trkpt>
      <trkpt lat="48.65085" lon="-2.31509">
        <ele>62</ele>
        <time>2019-10-27T13:32:39Z</time>
      </trkpt>
      <trkpt lat="48.65081" lon="-2.31515">
        <ele>62</ele>
        <time>2019-10-27T13:32:43Z</time>
      </trkpt>
      <trkpt lat="48.65079" lon="-2.31521">
        <ele>62</ele>
        <time>2019-10-27T13:32:47Z</time>
      </trkpt>
      <trkpt lat="48.65079" lon="-2.31529">
        <ele>62</ele>
        <time>2019-10-27T13:32:52Z</time>
      </trkpt>
      <trkpt lat="48.65066" lon="-2.31546">
        <ele>63</ele>
        <time>2019-10-27T13:33:07Z</time>
      </trkpt>
      <trkpt lat="48.65063" lon="-2.31554">
        <ele>62</ele>
        <time>2019-10-27T13:33:14Z</time>
      </trkpt>
      <trkpt lat="48.65042" lon="-2.31605">
        <ele>63</ele>
        <time>2019-10-27T13:33:44Z</time>
      </trkpt>
      <trkpt lat="48.65028" lon="-2.31635">
        <ele>64</ele>
        <time>2019-10-27T13:34:11Z</time>
      </trkpt>
      <trkpt lat="48.6503" lon="-2.31643">
        <ele>64</ele>
        <time>2019-10-27T13:34:19Z</time>
      </trkpt>
      <trkpt lat="48.65026" lon="-2.31651">
        <ele>65</ele>
        <time>2019-10-27T13:34:55Z</time>
      </trkpt>
      <trkpt lat="48.65018" lon="-2.31657">
        <ele>65</ele>
        <time>2019-10-27T13:36:36Z</time>
      </trkpt>
      <trkpt lat="48.65017" lon="-2.31664">
        <ele>65</ele>
        <time>2019-10-27T13:36:45Z</time>
      </trkpt>
      <trkpt lat="48.6501" lon="-2.31667">
        <ele>64</ele>
        <time>2019-10-27T13:37:44Z</time>
      </trkpt>
      <trkpt lat="48.65003" lon="-2.31671">
        <ele>64</ele>
        <time>2019-10-27T13:37:53Z</time>
      </trkpt>
      <trkpt lat="48.65" lon="-2.31676">
        <ele>64</ele>
        <time>2019-10-27T13:37:58Z</time>
      </trkpt>
      <trkpt lat="48.64995" lon="-2.31682">
        <ele>63</ele>
        <time>2019-10-27T13:38:05Z</time>
      </trkpt>
      <trkpt lat="48.64988" lon="-2.31693">
        <ele>62</ele>
        <time>2019-10-27T13:38:12Z</time>
      </trkpt>
      <trkpt lat="48.64984" lon="-2.31699">
        <ele>62</ele>
        <time>2019-10-27T13:38:17Z</time>
      </trkpt>
      <trkpt lat="48.64981" lon="-2.31706">
        <ele>62</ele>
        <time>2019-10-27T13:38:21Z</time>
      </trkpt>
      <trkpt lat="48.64979" lon="-2.31713">
        <ele>62</ele>
        <time>2019-10-27T13:38:25Z</time>
      </trkpt>
      <trkpt lat="48.6497" lon="-2.31732">
        <ele>62</ele>
        <time>2019-10-27T13:38:37Z</time>
      </trkpt>
      <trkpt lat="48.64965" lon="-2.31737">
        <ele>62</ele>
        <time>2019-10-27T13:38:41Z</time>
      </trkpt>
      <trkpt lat="48.64957" lon="-2.31757">
        <ele>61</ele>
        <time>2019-10-27T13:38:53Z</time>
      </trkpt>
      <trkpt lat="48.64949" lon="-2.31771">
        <ele>60</ele>
        <time>2019-10-27T13:39:01Z</time>
      </trkpt>
      <trkpt lat="48.64943" lon="-2.31782">
        <ele>60</ele>
        <time>2019-10-27T13:39:08Z</time>
      </trkpt>
      <trkpt lat="48.64936" lon="-2.31795">
        <ele>60</ele>
        <time>2019-10-27T13:39:16Z</time>
      </trkpt>
      <trkpt lat="48.64932" lon="-2.31801">
        <ele>60</ele>
        <time>2019-10-27T13:39:21Z</time>
      </trkpt>
      <trkpt lat="48.64905" lon="-2.31848">
        <ele>59</ele>
        <time>2019-10-27T13:39:55Z</time>
      </trkpt>
      <trkpt lat="48.6489" lon="-2.3187">
        <ele>59</ele>
        <time>2019-10-27T13:40:11Z</time>
      </trkpt>
      <trkpt lat="48.64889" lon="-2.31877">
        <ele>58</ele>
        <time>2019-10-27T13:40:15Z</time>
      </trkpt>
      <trkpt lat="48.64886" lon="-2.31884">
        <ele>58</ele>
        <time>2019-10-27T13:40:19Z</time>
      </trkpt>
      <trkpt lat="48.64882" lon="-2.31889">
        <ele>59</ele>
        <time>2019-10-27T13:40:23Z</time>
      </trkpt>
      <trkpt lat="48.64878" lon="-2.31892">
        <ele>59</ele>
        <time>2019-10-27T13:40:26Z</time>
      </trkpt>
      <trkpt lat="48.6487" lon="-2.31901">
        <ele>59</ele>
        <time>2019-10-27T13:40:33Z</time>
      </trkpt>
      <trkpt lat="48.64865" lon="-2.31903">
        <ele>59</ele>
        <time>2019-10-27T13:40:37Z</time>
      </trkpt>
      <trkpt lat="48.6483" lon="-2.31931">
        <ele>59</ele>
        <time>2019-10-27T13:41:08Z</time>
      </trkpt>
      <trkpt lat="48.64826" lon="-2.31934">
        <ele>59</ele>
        <time>2019-10-27T13:41:12Z</time>
      </trkpt>
      <trkpt lat="48.64821" lon="-2.31937">
        <ele>59</ele>
        <time>2019-10-27T13:41:16Z</time>
      </trkpt>
      <trkpt lat="48.64809" lon="-2.31943">
        <ele>59</ele>
        <time>2019-10-27T13:41:26Z</time>
      </trkpt>
      <trkpt lat="48.64805" lon="-2.31948">
        <ele>60</ele>
        <time>2019-10-27T13:41:30Z</time>
      </trkpt>
      <trkpt lat="48.64781" lon="-2.31969">
        <ele>60</ele>
        <time>2019-10-27T13:42:01Z</time>
      </trkpt>
      <trkpt lat="48.64758" lon="-2.31987">
        <ele>59</ele>
        <time>2019-10-27T13:42:23Z</time>
      </trkpt>
      <trkpt lat="48.64755" lon="-2.31991">
        <ele>59</ele>
        <time>2019-10-27T13:42:27Z</time>
      </trkpt>
      <trkpt lat="48.64735" lon="-2.32001">
        <ele>60</ele>
        <time>2019-10-27T13:42:44Z</time>
      </trkpt>
      <trkpt lat="48.64727" lon="-2.3201">
        <ele>60</ele>
        <time>2019-10-27T13:42:52Z</time>
      </trkpt>
      <trkpt lat="48.64712" lon="-2.32031">
        <ele>60</ele>
        <time>2019-10-27T13:43:08Z</time>
      </trkpt>
      <trkpt lat="48.64707" lon="-2.32036">
        <ele>60</ele>
        <time>2019-10-27T13:43:12Z</time>
      </trkpt>
      <trkpt lat="48.64701" lon="-2.32045">
        <ele>60</ele>
        <time>2019-10-27T13:43:22Z</time>
      </trkpt>
      <trkpt lat="48.64699" lon="-2.3205">
        <ele>60</ele>
        <time>2019-10-27T13:44:02Z</time>
      </trkpt>
      <trkpt lat="48.64696" lon="-2.32056">
        <ele>59</ele>
        <time>2019-10-27T13:44:09Z</time>
      </trkpt>
      <trkpt lat="48.64692" lon="-2.32062">
        <ele>60</ele>
        <time>2019-10-27T13:44:13Z</time>
      </trkpt>
      <trkpt lat="48.64671" lon="-2.32086">
        <ele>59</ele>
        <time>2019-10-27T13:44:32Z</time>
      </trkpt>
      <trkpt lat="48.64668" lon="-2.32092">
        <ele>59</ele>
        <time>2019-10-27T13:44:36Z</time>
      </trkpt>
      <trkpt lat="48.64643" lon="-2.32129">
        <ele>59</ele>
        <time>2019-10-27T13:45:09Z</time>
      </trkpt>
      <trkpt lat="48.64615" lon="-2.3217">
        <ele>58</ele>
        <time>2019-10-27T13:45:42Z</time>
      </trkpt>
      <trkpt lat="48.64587" lon="-2.32214">
        <ele>58</ele>
        <time>2019-10-27T13:46:16Z</time>
      </trkpt>
      <trkpt lat="48.64565" lon="-2.32267">
        <ele>57</ele>
        <time>2019-10-27T13:46:48Z</time>
      </trkpt>
      <trkpt lat="48.64559" lon="-2.32279">
        <ele>57</ele>
        <time>2019-10-27T13:46:56Z</time>
      </trkpt>
      <trkpt lat="48.64554" lon="-2.32293">
        <ele>58</ele>
        <time>2019-10-27T13:47:04Z</time>
      </trkpt>
      <trkpt lat="48.64547" lon="-2.32307">
        <ele>57</ele>
        <time>2019-10-27T13:47:14Z</time>
      </trkpt>
      <trkpt lat="48.64544" lon="-2.32313">
        <ele>58</ele>
        <time>2019-10-27T13:47:19Z</time>
      </trkpt>
      <trkpt lat="48.64537" lon="-2.32325">
        <ele>57</ele>
        <time>2019-10-27T13:47:27Z</time>
      </trkpt>
      <trkpt lat="48.64534" lon="-2.32334">
        <ele>58</ele>
        <time>2019-10-27T13:47:34Z</time>
      </trkpt>
      <trkpt lat="48.64527" lon="-2.32352">
        <ele>58</ele>
        <time>2019-10-27T13:47:51Z</time>
      </trkpt>
      <trkpt lat="48.64525" lon="-2.32359">
        <ele>57</ele>
        <time>2019-10-27T13:47:56Z</time>
      </trkpt>
      <trkpt lat="48.64524" lon="-2.32374">
        <ele>58</ele>
        <time>2019-10-27T13:48:04Z</time>
      </trkpt>
      <trkpt lat="48.64523" lon="-2.32382">
        <ele>58</ele>
        <time>2019-10-27T13:48:08Z</time>
      </trkpt>
      <trkpt lat="48.64522" lon="-2.32399">
        <ele>57</ele>
        <time>2019-10-27T13:48:16Z</time>
      </trkpt>
      <trkpt lat="48.64519" lon="-2.32415">
        <ele>58</ele>
        <time>2019-10-27T13:48:24Z</time>
      </trkpt>
      <trkpt lat="48.64515" lon="-2.32438">
        <ele>57</ele>
        <time>2019-10-27T13:48:35Z</time>
      </trkpt>
      <trkpt lat="48.64515" lon="-2.32446">
        <ele>56</ele>
        <time>2019-10-27T13:48:39Z</time>
      </trkpt>
      <trkpt lat="48.64522" lon="-2.32468">
        <ele>56</ele>
        <time>2019-10-27T13:48:51Z</time>
      </trkpt>
      <trkpt lat="48.64524" lon="-2.32475">
        <ele>57</ele>
        <time>2019-10-27T13:48:55Z</time>
      </trkpt>
      <trkpt lat="48.64535" lon="-2.32502">
        <ele>57</ele>
        <time>2019-10-27T13:49:11Z</time>
      </trkpt>
      <trkpt lat="48.64541" lon="-2.32531">
        <ele>57</ele>
        <time>2019-10-27T13:49:28Z</time>
      </trkpt>
      <trkpt lat="48.64544" lon="-2.32537">
        <ele>56</ele>
        <time>2019-10-27T13:49:32Z</time>
      </trkpt>
      <trkpt lat="48.64558" lon="-2.32594">
        <ele>54</ele>
        <time>2019-10-27T13:50:07Z</time>
      </trkpt>
      <trkpt lat="48.64559" lon="-2.32601">
        <ele>54</ele>
        <time>2019-10-27T13:50:11Z</time>
      </trkpt>
      <trkpt lat="48.64561" lon="-2.32608">
        <ele>54</ele>
        <time>2019-10-27T13:50:15Z</time>
      </trkpt>
      <trkpt lat="48.64562" lon="-2.32622">
        <ele>54</ele>
        <time>2019-10-27T13:50:23Z</time>
      </trkpt>
      <trkpt lat="48.64564" lon="-2.3267">
        <ele>54</ele>
        <time>2019-10-27T13:50:47Z</time>
      </trkpt>
      <trkpt lat="48.64563" lon="-2.32685">
        <ele>54</ele>
        <time>2019-10-27T13:50:54Z</time>
      </trkpt>
      <trkpt lat="48.64564" lon="-2.32692">
        <ele>54</ele>
        <time>2019-10-27T13:50:58Z</time>
      </trkpt>
      <trkpt lat="48.64565" lon="-2.32714">
        <ele>54</ele>
        <time>2019-10-27T13:51:11Z</time>
      </trkpt>
      <trkpt lat="48.64565" lon="-2.32721">
        <ele>54</ele>
        <time>2019-10-27T13:51:14Z</time>
      </trkpt>
      <trkpt lat="48.64566" lon="-2.32745">
        <ele>54</ele>
        <time>2019-10-27T13:51:27Z</time>
      </trkpt>
      <trkpt lat="48.64566" lon="-2.32752">
        <ele>53</ele>
        <time>2019-10-27T13:51:31Z</time>
      </trkpt>
      <trkpt lat="48.64566" lon="-2.32768">
        <ele>53</ele>
        <time>2019-10-27T13:51:39Z</time>
      </trkpt>
      <trkpt lat="48.64567" lon="-2.32783">
        <ele>54</ele>
        <time>2019-10-27T13:51:47Z</time>
      </trkpt>
      <trkpt lat="48.64567" lon="-2.32806">
        <ele>54</ele>
        <time>2019-10-27T13:51:59Z</time>
      </trkpt>
      <trkpt lat="48.64567" lon="-2.32813">
        <ele>54</ele>
        <time>2019-10-27T13:52:03Z</time>
      </trkpt>
      <trkpt lat="48.64568" lon="-2.32821">
        <ele>53</ele>
        <time>2019-10-27T13:52:07Z</time>
      </trkpt>
      <trkpt lat="48.64566" lon="-2.32842">
        <ele>53</ele>
        <time>2019-10-27T13:52:16Z</time>
      </trkpt>
      <trkpt lat="48.64566" lon="-2.3285">
        <ele>53</ele>
        <time>2019-10-27T13:52:20Z</time>
      </trkpt>
      <trkpt lat="48.64567" lon="-2.32873">
        <ele>53</ele>
        <time>2019-10-27T13:52:53Z</time>
      </trkpt>
      <trkpt lat="48.64567" lon="-2.32887">
        <ele>52</ele>
        <time>2019-10-27T13:52:59Z</time>
      </trkpt>
      <trkpt lat="48.64567" lon="-2.32895">
        <ele>52</ele>
        <time>2019-10-27T13:53:03Z</time>
      </trkpt>
      <trkpt lat="48.64568" lon="-2.32903">
        <ele>52</ele>
        <time>2019-10-27T13:53:07Z</time>
      </trkpt>
      <trkpt lat="48.64569" lon="-2.3292">
        <ele>52</ele>
        <time>2019-10-27T13:53:15Z</time>
      </trkpt>
      <trkpt lat="48.6457" lon="-2.32944">
        <ele>52</ele>
        <time>2019-10-27T13:53:27Z</time>
      </trkpt>
      <trkpt lat="48.64571" lon="-2.32983">
        <ele>51</ele>
        <time>2019-10-27T13:53:48Z</time>
      </trkpt>
      <trkpt lat="48.64563" lon="-2.33044">
        <ele>51</ele>
        <time>2019-10-27T13:54:21Z</time>
      </trkpt>
      <trkpt lat="48.64562" lon="-2.33052">
        <ele>52</ele>
        <time>2019-10-27T13:54:25Z</time>
      </trkpt>
      <trkpt lat="48.64548" lon="-2.3311">
        <ele>52</ele>
        <time>2019-10-27T13:54:55Z</time>
      </trkpt>
      <trkpt lat="48.6454" lon="-2.33131">
        <ele>52</ele>
        <time>2019-10-27T13:55:07Z</time>
      </trkpt>
      <trkpt lat="48.64513" lon="-2.33179">
        <ele>53</ele>
        <time>2019-10-27T13:55:39Z</time>
      </trkpt>
      <trkpt lat="48.64488" lon="-2.33228">
        <ele>53</ele>
        <time>2019-10-27T13:56:12Z</time>
      </trkpt>
      <trkpt lat="48.64481" lon="-2.3324">
        <ele>53</ele>
        <time>2019-10-27T13:56:20Z</time>
      </trkpt>
      <trkpt lat="48.64479" lon="-2.33248">
        <ele>52</ele>
        <time>2019-10-27T13:56:24Z</time>
      </trkpt>
      <trkpt lat="48.64479" lon="-2.33255">
        <ele>52</ele>
        <time>2019-10-27T13:56:28Z</time>
      </trkpt>
      <trkpt lat="48.64481" lon="-2.33262">
        <ele>52</ele>
        <time>2019-10-27T13:56:32Z</time>
      </trkpt>
      <trkpt lat="48.64497" lon="-2.33299">
        <ele>54</ele>
        <time>2019-10-27T13:57:03Z</time>
      </trkpt>
      <trkpt lat="48.64513" lon="-2.33329">
        <ele>54</ele>
        <time>2019-10-27T13:57:23Z</time>
      </trkpt>
      <trkpt lat="48.64519" lon="-2.33341">
        <ele>54</ele>
        <time>2019-10-27T13:57:31Z</time>
      </trkpt>
      <trkpt lat="48.64527" lon="-2.33352">
        <ele>54</ele>
        <time>2019-10-27T13:57:40Z</time>
      </trkpt>
      <trkpt lat="48.64532" lon="-2.33356">
        <ele>54</ele>
        <time>2019-10-27T13:57:44Z</time>
      </trkpt>
      <trkpt lat="48.64536" lon="-2.3336">
        <ele>53</ele>
        <time>2019-10-27T13:57:48Z</time>
      </trkpt>
      <trkpt lat="48.64541" lon="-2.33363">
        <ele>53</ele>
        <time>2019-10-27T13:57:52Z</time>
      </trkpt>
      <trkpt lat="48.64553" lon="-2.33377">
        <ele>53</ele>
        <time>2019-10-27T13:58:04Z</time>
      </trkpt>
      <trkpt lat="48.64578" lon="-2.33403">
        <ele>53</ele>
        <time>2019-10-27T13:58:28Z</time>
      </trkpt>
      <trkpt lat="48.64582" lon="-2.33409">
        <ele>53</ele>
        <time>2019-10-27T13:58:32Z</time>
      </trkpt>
      <trkpt lat="48.64585" lon="-2.33415">
        <ele>53</ele>
        <time>2019-10-27T13:58:36Z</time>
      </trkpt>
      <trkpt lat="48.64597" lon="-2.3343">
        <ele>52</ele>
        <time>2019-10-27T13:58:48Z</time>
      </trkpt>
      <trkpt lat="48.64601" lon="-2.33435">
        <ele>53</ele>
        <time>2019-10-27T13:58:52Z</time>
      </trkpt>
      <trkpt lat="48.64613" lon="-2.3345">
        <ele>53</ele>
        <time>2019-10-27T13:59:04Z</time>
      </trkpt>
      <trkpt lat="48.64616" lon="-2.33456">
        <ele>53</ele>
        <time>2019-10-27T13:59:08Z</time>
      </trkpt>
      <trkpt lat="48.64637" lon="-2.33481">
        <ele>53</ele>
        <time>2019-10-27T14:00:01Z</time>
      </trkpt>
      <trkpt lat="48.64645" lon="-2.33485">
        <ele>53</ele>
        <time>2019-10-27T14:00:37Z</time>
      </trkpt>
      <trkpt lat="48.64649" lon="-2.33491">
        <ele>53</ele>
        <time>2019-10-27T14:00:41Z</time>
      </trkpt>
      <trkpt lat="48.64657" lon="-2.33501">
        <ele>53</ele>
        <time>2019-10-27T14:00:50Z</time>
      </trkpt>
      <trkpt lat="48.64689" lon="-2.33528">
        <ele>53</ele>
        <time>2019-10-27T14:01:20Z</time>
      </trkpt>
      <trkpt lat="48.64693" lon="-2.3353">
        <ele>53</ele>
        <time>2019-10-27T14:01:24Z</time>
      </trkpt>
      <trkpt lat="48.64703" lon="-2.33536">
        <ele>52</ele>
        <time>2019-10-27T14:01:33Z</time>
      </trkpt>
      <trkpt lat="48.64721" lon="-2.33545">
        <ele>52</ele>
        <time>2019-10-27T14:01:49Z</time>
      </trkpt>
      <trkpt lat="48.64726" lon="-2.33546">
        <ele>52</ele>
        <time>2019-10-27T14:01:53Z</time>
      </trkpt>
      <trkpt lat="48.64746" lon="-2.33547">
        <ele>51</ele>
        <time>2019-10-27T14:02:10Z</time>
      </trkpt>
      <trkpt lat="48.64756" lon="-2.33552">
        <ele>52</ele>
        <time>2019-10-27T14:02:18Z</time>
      </trkpt>
      <trkpt lat="48.6477" lon="-2.33557">
        <ele>50</ele>
        <time>2019-10-27T14:02:29Z</time>
      </trkpt>
      <trkpt lat="48.64776" lon="-2.3356">
        <ele>50</ele>
        <time>2019-10-27T14:02:34Z</time>
      </trkpt>
      <trkpt lat="48.64784" lon="-2.33566">
        <ele>50</ele>
        <time>2019-10-27T14:02:42Z</time>
      </trkpt>
      <trkpt lat="48.64789" lon="-2.3357">
        <ele>50</ele>
        <time>2019-10-27T14:02:46Z</time>
      </trkpt>
      <trkpt lat="48.64794" lon="-2.33574">
        <ele>50</ele>
        <time>2019-10-27T14:02:50Z</time>
      </trkpt>
      <trkpt lat="48.64812" lon="-2.33588">
        <ele>50</ele>
        <time>2019-10-27T14:03:07Z</time>
      </trkpt>
      <trkpt lat="48.64846" lon="-2.33623">
        <ele>49</ele>
        <time>2019-10-27T14:03:39Z</time>
      </trkpt>
      <trkpt lat="48.6486" lon="-2.33635">
        <ele>48</ele>
        <time>2019-10-27T14:03:51Z</time>
      </trkpt>
      <trkpt lat="48.64864" lon="-2.33637">
        <ele>48</ele>
        <time>2019-10-27T14:03:55Z</time>
      </trkpt>
      <trkpt lat="48.64869" lon="-2.33636">
        <ele>48</ele>
        <time>2019-10-27T14:03:59Z</time>
      </trkpt>
      <trkpt lat="48.64875" lon="-2.33633">
        <ele>48</ele>
        <time>2019-10-27T14:04:03Z</time>
      </trkpt>
      <trkpt lat="48.64887" lon="-2.33623">
        <ele>47</ele>
        <time>2019-10-27T14:04:17Z</time>
      </trkpt>
      <trkpt lat="48.64893" lon="-2.33621">
        <ele>47</ele>
        <time>2019-10-27T14:04:21Z</time>
      </trkpt>
      <trkpt lat="48.64902" lon="-2.33615">
        <ele>46</ele>
        <time>2019-10-27T14:04:29Z</time>
      </trkpt>
      <trkpt lat="48.64906" lon="-2.33612">
        <ele>46</ele>
        <time>2019-10-27T14:04:33Z</time>
      </trkpt>
      <trkpt lat="48.64917" lon="-2.33608">
        <ele>45</ele>
        <time>2019-10-27T14:04:41Z</time>
      </trkpt>
      <trkpt lat="48.64927" lon="-2.33609">
        <ele>45</ele>
        <time>2019-10-27T14:04:48Z</time>
      </trkpt>
      <trkpt lat="48.64936" lon="-2.33617">
        <ele>45</ele>
        <time>2019-10-27T14:04:56Z</time>
      </trkpt>
      <trkpt lat="48.6495" lon="-2.33638">
        <ele>44</ele>
        <time>2019-10-27T14:05:12Z</time>
      </trkpt>
      <trkpt lat="48.64981" lon="-2.33678">
        <ele>44</ele>
        <time>2019-10-27T14:05:43Z</time>
      </trkpt>
      <trkpt lat="48.64989" lon="-2.33686">
        <ele>44</ele>
        <time>2019-10-27T14:05:51Z</time>
      </trkpt>
      <trkpt lat="48.65002" lon="-2.33699">
        <ele>43</ele>
        <time>2019-10-27T14:06:03Z</time>
      </trkpt>
      <trkpt lat="48.65007" lon="-2.33708">
        <ele>43</ele>
        <time>2019-10-27T14:06:29Z</time>
      </trkpt>
      <trkpt lat="48.65006" lon="-2.33726">
        <ele>42</ele>
        <time>2019-10-27T14:06:37Z</time>
      </trkpt>
      <trkpt lat="48.65004" lon="-2.33789">
        <ele>41</ele>
        <time>2019-10-27T14:07:10Z</time>
      </trkpt>
      <trkpt lat="48.65001" lon="-2.33804">
        <ele>41</ele>
        <time>2019-10-27T14:07:18Z</time>
      </trkpt>
      <trkpt lat="48.64997" lon="-2.33827">
        <ele>41</ele>
        <time>2019-10-27T14:07:30Z</time>
      </trkpt>
      <trkpt lat="48.64995" lon="-2.33834">
        <ele>40</ele>
        <time>2019-10-27T14:07:34Z</time>
      </trkpt>
      <trkpt lat="48.64992" lon="-2.33849">
        <ele>40</ele>
        <time>2019-10-27T14:07:42Z</time>
      </trkpt>
      <trkpt lat="48.6498" lon="-2.33909">
        <ele>38</ele>
        <time>2019-10-27T14:08:14Z</time>
      </trkpt>
      <trkpt lat="48.64973" lon="-2.33929">
        <ele>38</ele>
        <time>2019-10-27T14:08:26Z</time>
      </trkpt>
      <trkpt lat="48.6497" lon="-2.33936">
        <ele>38</ele>
        <time>2019-10-27T14:08:30Z</time>
      </trkpt>
      <trkpt lat="48.64966" lon="-2.33941">
        <ele>38</ele>
        <time>2019-10-27T14:08:34Z</time>
      </trkpt>
      <trkpt lat="48.64962" lon="-2.33946">
        <ele>38</ele>
        <time>2019-10-27T14:08:38Z</time>
      </trkpt>
      <trkpt lat="48.64957" lon="-2.3395">
        <ele>38</ele>
        <time>2019-10-27T14:08:42Z</time>
      </trkpt>
      <trkpt lat="48.64953" lon="-2.33954">
        <ele>38</ele>
        <time>2019-10-27T14:08:46Z</time>
      </trkpt>
      <trkpt lat="48.6495" lon="-2.3396">
        <ele>38</ele>
        <time>2019-10-27T14:08:50Z</time>
      </trkpt>
      <trkpt lat="48.64948" lon="-2.33967">
        <ele>38</ele>
        <time>2019-10-27T14:08:54Z</time>
      </trkpt>
      <trkpt lat="48.64947" lon="-2.33974">
        <ele>38</ele>
        <time>2019-10-27T14:08:58Z</time>
      </trkpt>
      <trkpt lat="48.64951" lon="-2.33981">
        <ele>38</ele>
        <time>2019-10-27T14:09:02Z</time>
      </trkpt>
      <trkpt lat="48.64958" lon="-2.33991">
        <ele>38</ele>
        <time>2019-10-27T14:09:10Z</time>
      </trkpt>
      <trkpt lat="48.64979" lon="-2.34014">
        <ele>38</ele>
        <time>2019-10-27T14:09:30Z</time>
      </trkpt>
      <trkpt lat="48.64983" lon="-2.34019">
        <ele>39</ele>
        <time>2019-10-27T14:09:34Z</time>
      </trkpt>
      <trkpt lat="48.64995" lon="-2.34033">
        <ele>39</ele>
        <time>2019-10-27T14:09:46Z</time>
      </trkpt>
      <trkpt lat="48.65029" lon="-2.3407">
        <ele>39</ele>
        <time>2019-10-27T14:10:18Z</time>
      </trkpt>
      <trkpt lat="48.65036" lon="-2.34081">
        <ele>39</ele>
        <time>2019-10-27T14:10:26Z</time>
      </trkpt>
      <trkpt lat="48.65037" lon="-2.34088">
        <ele>39</ele>
        <time>2019-10-27T14:10:30Z</time>
      </trkpt>
      <trkpt lat="48.65036" lon="-2.34094">
        <ele>39</ele>
        <time>2019-10-27T14:10:34Z</time>
      </trkpt>
      <trkpt lat="48.6503" lon="-2.34115">
        <ele>40</ele>
        <time>2019-10-27T14:10:46Z</time>
      </trkpt>
      <trkpt lat="48.65028" lon="-2.34123">
        <ele>39</ele>
        <time>2019-10-27T14:10:50Z</time>
      </trkpt>
      <trkpt lat="48.65027" lon="-2.3413">
        <ele>39</ele>
        <time>2019-10-27T14:10:54Z</time>
      </trkpt>
      <trkpt lat="48.65023" lon="-2.34152">
        <ele>39</ele>
        <time>2019-10-27T14:11:06Z</time>
      </trkpt>
      <trkpt lat="48.65021" lon="-2.34159">
        <ele>39</ele>
        <time>2019-10-27T14:11:10Z</time>
      </trkpt>
      <trkpt lat="48.65015" lon="-2.34186">
        <ele>40</ele>
        <time>2019-10-27T14:11:26Z</time>
      </trkpt>
      <trkpt lat="48.65013" lon="-2.34193">
        <ele>39</ele>
        <time>2019-10-27T14:11:30Z</time>
      </trkpt>
      <trkpt lat="48.65011" lon="-2.342">
        <ele>40</ele>
        <time>2019-10-27T14:11:34Z</time>
      </trkpt>
      <trkpt lat="48.65009" lon="-2.34207">
        <ele>39</ele>
        <time>2019-10-27T14:11:38Z</time>
      </trkpt>
      <trkpt lat="48.65008" lon="-2.34214">
        <ele>40</ele>
        <time>2019-10-27T14:11:42Z</time>
      </trkpt>
      <trkpt lat="48.64992" lon="-2.34273">
        <ele>40</ele>
        <time>2019-10-27T14:12:14Z</time>
      </trkpt>
      <trkpt lat="48.64975" lon="-2.34331">
        <ele>39</ele>
        <time>2019-10-27T14:12:46Z</time>
      </trkpt>
      <trkpt lat="48.64967" lon="-2.34367">
        <ele>40</ele>
        <time>2019-10-27T14:13:06Z</time>
      </trkpt>
      <trkpt lat="48.64965" lon="-2.34373">
        <ele>39</ele>
        <time>2019-10-27T14:13:09Z</time>
      </trkpt>
      <trkpt lat="48.64959" lon="-2.34395">
        <ele>39</ele>
        <time>2019-10-27T14:13:21Z</time>
      </trkpt>
      <trkpt lat="48.64956" lon="-2.34403">
        <ele>39</ele>
        <time>2019-10-27T14:13:25Z</time>
      </trkpt>
      <trkpt lat="48.64941" lon="-2.34463">
        <ele>39</ele>
        <time>2019-10-27T14:13:57Z</time>
      </trkpt>
      <trkpt lat="48.64924" lon="-2.34522">
        <ele>38</ele>
        <time>2019-10-27T14:14:29Z</time>
      </trkpt>
      <trkpt lat="48.64916" lon="-2.34551">
        <ele>38</ele>
        <time>2019-10-27T14:14:45Z</time>
      </trkpt>
      <trkpt lat="48.64899" lon="-2.34611">
        <ele>37</ele>
        <time>2019-10-27T14:15:16Z</time>
      </trkpt>
      <trkpt lat="48.64883" lon="-2.34668">
        <ele>37</ele>
        <time>2019-10-27T14:15:47Z</time>
      </trkpt>
      <trkpt lat="48.64881" lon="-2.34675">
        <ele>37</ele>
        <time>2019-10-27T14:15:51Z</time>
      </trkpt>
      <trkpt lat="48.64879" lon="-2.34683">
        <ele>37</ele>
        <time>2019-10-27T14:15:55Z</time>
      </trkpt>
      <trkpt lat="48.64863" lon="-2.34739">
        <ele>37</ele>
        <time>2019-10-27T14:16:26Z</time>
      </trkpt>
      <trkpt lat="48.64861" lon="-2.34746">
        <ele>37</ele>
        <time>2019-10-27T14:16:30Z</time>
      </trkpt>
      <trkpt lat="48.64858" lon="-2.34761">
        <ele>37</ele>
        <time>2019-10-27T14:16:38Z</time>
      </trkpt>
      <trkpt lat="48.64852" lon="-2.34784">
        <ele>37</ele>
        <time>2019-10-27T14:16:50Z</time>
      </trkpt>
      <trkpt lat="48.6485" lon="-2.34791">
        <ele>36</ele>
        <time>2019-10-27T14:16:54Z</time>
      </trkpt>
      <trkpt lat="48.64831" lon="-2.34854">
        <ele>36</ele>
        <time>2019-10-27T14:17:28Z</time>
      </trkpt>
      <trkpt lat="48.64829" lon="-2.34861">
        <ele>36</ele>
        <time>2019-10-27T14:17:32Z</time>
      </trkpt>
      <trkpt lat="48.64812" lon="-2.34919">
        <ele>35</ele>
        <time>2019-10-27T14:18:04Z</time>
      </trkpt>
      <trkpt lat="48.64811" lon="-2.34926">
        <ele>35</ele>
        <time>2019-10-27T14:18:08Z</time>
      </trkpt>
      <trkpt lat="48.64813" lon="-2.34934">
        <ele>34</ele>
        <time>2019-10-27T14:18:12Z</time>
      </trkpt>
      <trkpt lat="48.64817" lon="-2.34938">
        <ele>35</ele>
        <time>2019-10-27T14:18:16Z</time>
      </trkpt>
      <trkpt lat="48.64822" lon="-2.34941">
        <ele>35</ele>
        <time>2019-10-27T14:18:20Z</time>
      </trkpt>
      <trkpt lat="48.64827" lon="-2.34942">
        <ele>35</ele>
        <time>2019-10-27T14:18:25Z</time>
      </trkpt>
      <trkpt lat="48.64851" lon="-2.34956">
        <ele>34</ele>
        <time>2019-10-27T14:18:46Z</time>
      </trkpt>
      <trkpt lat="48.64869" lon="-2.34964">
        <ele>34</ele>
        <time>2019-10-27T14:19:02Z</time>
      </trkpt>
      <trkpt lat="48.64874" lon="-2.34968">
        <ele>34</ele>
        <time>2019-10-27T14:19:07Z</time>
      </trkpt>
      <trkpt lat="48.64878" lon="-2.34974">
        <ele>34</ele>
        <time>2019-10-27T14:19:15Z</time>
      </trkpt>
      <trkpt lat="48.64882" lon="-2.34989">
        <ele>34</ele>
        <time>2019-10-27T14:19:24Z</time>
      </trkpt>
      <trkpt lat="48.64882" lon="-2.35004">
        <ele>34</ele>
        <time>2019-10-27T14:19:33Z</time>
      </trkpt>
      <trkpt lat="48.64881" lon="-2.35011">
        <ele>34</ele>
        <time>2019-10-27T14:19:37Z</time>
      </trkpt>
      <trkpt lat="48.64883" lon="-2.35028">
        <ele>33</ele>
        <time>2019-10-27T14:19:46Z</time>
      </trkpt>
      <trkpt lat="48.64886" lon="-2.35034">
        <ele>33</ele>
        <time>2019-10-27T14:19:50Z</time>
      </trkpt>
      <trkpt lat="48.64893" lon="-2.35045">
        <ele>33</ele>
        <time>2019-10-27T14:19:58Z</time>
      </trkpt>
      <trkpt lat="48.64894" lon="-2.35051">
        <ele>33</ele>
        <time>2019-10-27T14:20:03Z</time>
      </trkpt>
      <trkpt lat="48.64898" lon="-2.35056">
        <ele>33</ele>
        <time>2019-10-27T14:20:46Z</time>
      </trkpt>
      <trkpt lat="48.64909" lon="-2.35062">
        <ele>33</ele>
        <time>2019-10-27T14:21:49Z</time>
      </trkpt>
      <trkpt lat="48.64928" lon="-2.35072">
        <ele>33</ele>
        <time>2019-10-27T14:22:07Z</time>
      </trkpt>
      <trkpt lat="48.64954" lon="-2.3507">
        <ele>32</ele>
        <time>2019-10-27T14:22:28Z</time>
      </trkpt>
      <trkpt lat="48.64964" lon="-2.35067">
        <ele>33</ele>
        <time>2019-10-27T14:22:36Z</time>
      </trkpt>
      <trkpt lat="48.6497" lon="-2.35068">
        <ele>32</ele>
        <time>2019-10-27T14:22:41Z</time>
      </trkpt>
      <trkpt lat="48.64974" lon="-2.3507">
        <ele>32</ele>
        <time>2019-10-27T14:22:45Z</time>
      </trkpt>
      <trkpt lat="48.64977" lon="-2.35076">
        <ele>32</ele>
        <time>2019-10-27T14:22:49Z</time>
      </trkpt>
      <trkpt lat="48.64986" lon="-2.35121">
        <ele>31</ele>
        <time>2019-10-27T14:23:13Z</time>
      </trkpt>
      <trkpt lat="48.65006" lon="-2.35176">
        <ele>29</ele>
        <time>2019-10-27T14:23:45Z</time>
      </trkpt>
      <trkpt lat="48.65009" lon="-2.35182">
        <ele>29</ele>
        <time>2019-10-27T14:23:49Z</time>
      </trkpt>
      <trkpt lat="48.65011" lon="-2.3519">
        <ele>30</ele>
        <time>2019-10-27T14:23:53Z</time>
      </trkpt>
      <trkpt lat="48.65024" lon="-2.35232">
        <ele>29</ele>
        <time>2019-10-27T14:24:18Z</time>
      </trkpt>
      <trkpt lat="48.65026" lon="-2.35254">
        <ele>29</ele>
        <time>2019-10-27T14:24:30Z</time>
      </trkpt>
      <trkpt lat="48.65025" lon="-2.35262">
        <ele>29</ele>
        <time>2019-10-27T14:24:35Z</time>
      </trkpt>
      <trkpt lat="48.65026" lon="-2.35278">
        <ele>29</ele>
        <time>2019-10-27T14:24:44Z</time>
      </trkpt>
      <trkpt lat="48.65031" lon="-2.35301">
        <ele>29</ele>
        <time>2019-10-27T14:24:56Z</time>
      </trkpt>
      <trkpt lat="48.65032" lon="-2.35309">
        <ele>29</ele>
        <time>2019-10-27T14:25:00Z</time>
      </trkpt>
      <trkpt lat="48.65041" lon="-2.35369">
        <ele>29</ele>
        <time>2019-10-27T14:25:32Z</time>
      </trkpt>
      <trkpt lat="48.65043" lon="-2.35383">
        <ele>29</ele>
        <time>2019-10-27T14:25:39Z</time>
      </trkpt>
      <trkpt lat="48.65046" lon="-2.35389">
        <ele>28</ele>
        <time>2019-10-27T14:25:43Z</time>
      </trkpt>
      <trkpt lat="48.65053" lon="-2.35418">
        <ele>29</ele>
        <time>2019-10-27T14:25:59Z</time>
      </trkpt>
      <trkpt lat="48.65053" lon="-2.35425">
        <ele>28</ele>
        <time>2019-10-27T14:26:03Z</time>
      </trkpt>
      <trkpt lat="48.65052" lon="-2.35432">
        <ele>28</ele>
        <time>2019-10-27T14:26:07Z</time>
      </trkpt>
      <trkpt lat="48.65045" lon="-2.3545">
        <ele>29</ele>
        <time>2019-10-27T14:26:38Z</time>
      </trkpt>
      <trkpt lat="48.65034" lon="-2.35468">
        <ele>29</ele>
        <time>2019-10-27T14:26:55Z</time>
      </trkpt>
      <trkpt lat="48.65029" lon="-2.3547">
        <ele>29</ele>
        <time>2019-10-27T14:26:59Z</time>
      </trkpt>
      <trkpt lat="48.65012" lon="-2.35489">
        <ele>30</ele>
        <time>2019-10-27T14:27:18Z</time>
      </trkpt>
      <trkpt lat="48.65005" lon="-2.355">
        <ele>30</ele>
        <time>2019-10-27T14:27:26Z</time>
      </trkpt>
      <trkpt lat="48.65001" lon="-2.35505">
        <ele>30</ele>
        <time>2019-10-27T14:27:30Z</time>
      </trkpt>
      <trkpt lat="48.64998" lon="-2.35511">
        <ele>30</ele>
        <time>2019-10-27T14:27:34Z</time>
      </trkpt>
      <trkpt lat="48.64989" lon="-2.3552">
        <ele>32</ele>
        <time>2019-10-27T14:27:43Z</time>
      </trkpt>
      <trkpt lat="48.64983" lon="-2.35531">
        <ele>32</ele>
        <time>2019-10-27T14:27:52Z</time>
      </trkpt>
      <trkpt lat="48.64985" lon="-2.35534">
        <ele>31</ele>
        <time>2019-10-27T14:28:29Z</time>
      </trkpt>
      <trkpt lat="48.64988" lon="-2.35529">
        <ele>31</ele>
        <time>2019-10-27T14:28:33Z</time>
      </trkpt>
      <trkpt lat="48.64991" lon="-2.35523">
        <ele>31</ele>
        <time>2019-10-27T14:28:37Z</time>
      </trkpt>
      <trkpt lat="48.64995" lon="-2.35518">
        <ele>31</ele>
        <time>2019-10-27T14:28:42Z</time>
      </trkpt>
      <trkpt lat="48.65001" lon="-2.35517">
        <ele>31</ele>
        <time>2019-10-27T14:28:49Z</time>
      </trkpt>
      <trkpt lat="48.65005" lon="-2.35516">
        <ele>31</ele>
        <time>2019-10-27T14:28:53Z</time>
      </trkpt>
      <trkpt lat="48.6501" lon="-2.35512">
        <ele>31</ele>
        <time>2019-10-27T14:28:58Z</time>
      </trkpt>
      <trkpt lat="48.65023" lon="-2.355">
        <ele>30</ele>
        <time>2019-10-27T14:29:12Z</time>
      </trkpt>
      <trkpt lat="48.6504" lon="-2.35484">
        <ele>30</ele>
        <time>2019-10-27T14:29:29Z</time>
      </trkpt>
      <trkpt lat="48.6505" lon="-2.35482">
        <ele>30</ele>
        <time>2019-10-27T14:29:37Z</time>
      </trkpt>
      <trkpt lat="48.65055" lon="-2.35482">
        <ele>30</ele>
        <time>2019-10-27T14:29:41Z</time>
      </trkpt>
      <trkpt lat="48.6506" lon="-2.35485">
        <ele>30</ele>
        <time>2019-10-27T14:29:45Z</time>
      </trkpt>
      <trkpt lat="48.65086" lon="-2.35513">
        <ele>31</ele>
        <time>2019-10-27T14:30:09Z</time>
      </trkpt>
      <trkpt lat="48.6509" lon="-2.35519">
        <ele>32</ele>
        <time>2019-10-27T14:30:13Z</time>
      </trkpt>
      <trkpt lat="48.65098" lon="-2.35528">
        <ele>32</ele>
        <time>2019-10-27T14:30:23Z</time>
      </trkpt>
      <trkpt lat="48.65113" lon="-2.35549">
        <ele>32</ele>
        <time>2019-10-27T14:30:39Z</time>
      </trkpt>
      <trkpt lat="48.65126" lon="-2.35562">
        <ele>32</ele>
        <time>2019-10-27T14:30:51Z</time>
      </trkpt>
      <trkpt lat="48.65145" lon="-2.35587">
        <ele>32</ele>
        <time>2019-10-27T14:31:11Z</time>
      </trkpt>
      <trkpt lat="48.65149" lon="-2.35602">
        <ele>32</ele>
        <time>2019-10-27T14:31:18Z</time>
      </trkpt>
      <trkpt lat="48.65153" lon="-2.35616">
        <ele>33</ele>
        <time>2019-10-27T14:31:26Z</time>
      </trkpt>
      <trkpt lat="48.65153" lon="-2.35623">
        <ele>33</ele>
        <time>2019-10-27T14:31:30Z</time>
      </trkpt>
      <trkpt lat="48.65138" lon="-2.35679">
        <ele>34</ele>
        <time>2019-10-27T14:32:04Z</time>
      </trkpt>
      <trkpt lat="48.65131" lon="-2.35734">
        <ele>34</ele>
        <time>2019-10-27T14:32:36Z</time>
      </trkpt>
      <trkpt lat="48.6513" lon="-2.35748">
        <ele>34</ele>
        <time>2019-10-27T14:32:44Z</time>
      </trkpt>
      <trkpt lat="48.65129" lon="-2.3578">
        <ele>35</ele>
        <time>2019-10-27T14:33:01Z</time>
      </trkpt>
      <trkpt lat="48.65132" lon="-2.35816">
        <ele>36</ele>
        <time>2019-10-27T14:33:22Z</time>
      </trkpt>
      <trkpt lat="48.65135" lon="-2.3583">
        <ele>37</ele>
        <time>2019-10-27T14:33:31Z</time>
      </trkpt>
      <trkpt lat="48.65141" lon="-2.35867">
        <ele>37</ele>
        <time>2019-10-27T14:33:51Z</time>
      </trkpt>
      <trkpt lat="48.65144" lon="-2.3589">
        <ele>39</ele>
        <time>2019-10-27T14:34:03Z</time>
      </trkpt>
      <trkpt lat="48.65149" lon="-2.35927">
        <ele>39</ele>
        <time>2019-10-27T14:34:25Z</time>
      </trkpt>
      <trkpt lat="48.65158" lon="-2.35984">
        <ele>41</ele>
        <time>2019-10-27T14:34:57Z</time>
      </trkpt>
      <trkpt lat="48.65166" lon="-2.36044">
        <ele>42</ele>
        <time>2019-10-27T14:35:29Z</time>
      </trkpt>
      <trkpt lat="48.65171" lon="-2.36074">
        <ele>43</ele>
        <time>2019-10-27T14:35:45Z</time>
      </trkpt>
      <trkpt lat="48.65174" lon="-2.36089">
        <ele>43</ele>
        <time>2019-10-27T14:35:53Z</time>
      </trkpt>
      <trkpt lat="48.65181" lon="-2.36117">
        <ele>43</ele>
        <time>2019-10-27T14:36:09Z</time>
      </trkpt>
      <trkpt lat="48.65183" lon="-2.36124">
        <ele>43</ele>
        <time>2019-10-27T14:36:13Z</time>
      </trkpt>
      <trkpt lat="48.652" lon="-2.36179">
        <ele>44</ele>
        <time>2019-10-27T14:36:46Z</time>
      </trkpt>
      <trkpt lat="48.65204" lon="-2.36195">
        <ele>44</ele>
        <time>2019-10-27T14:36:54Z</time>
      </trkpt>
      <trkpt lat="48.6521" lon="-2.36216">
        <ele>44</ele>
        <time>2019-10-27T14:37:06Z</time>
      </trkpt>
      <trkpt lat="48.6522" lon="-2.36252">
        <ele>43</ele>
        <time>2019-10-27T14:37:27Z</time>
      </trkpt>
      <trkpt lat="48.65224" lon="-2.36267">
        <ele>43</ele>
        <time>2019-10-27T14:37:35Z</time>
      </trkpt>
      <trkpt lat="48.65234" lon="-2.36295">
        <ele>43</ele>
        <time>2019-10-27T14:37:51Z</time>
      </trkpt>
      <trkpt lat="48.65248" lon="-2.36353">
        <ele>42</ele>
        <time>2019-10-27T14:38:22Z</time>
      </trkpt>
      <trkpt lat="48.65255" lon="-2.36373">
        <ele>41</ele>
        <time>2019-10-27T14:38:34Z</time>
      </trkpt>
      <trkpt lat="48.65259" lon="-2.36385">
        <ele>42</ele>
        <time>2019-10-27T14:39:06Z</time>
      </trkpt>
      <trkpt lat="48.65265" lon="-2.36397">
        <ele>41</ele>
        <time>2019-10-27T14:39:14Z</time>
      </trkpt>
      <trkpt lat="48.65268" lon="-2.36404">
        <ele>41</ele>
        <time>2019-10-27T14:39:19Z</time>
      </trkpt>
      <trkpt lat="48.65287" lon="-2.36456">
        <ele>39</ele>
        <time>2019-10-27T14:39:52Z</time>
      </trkpt>
      <trkpt lat="48.65294" lon="-2.3646">
        <ele>39</ele>
        <time>2019-10-27T14:40:01Z</time>
      </trkpt>
      <trkpt lat="48.65298" lon="-2.36458">
        <ele>40</ele>
        <time>2019-10-27T14:40:05Z</time>
      </trkpt>
      <trkpt lat="48.65302" lon="-2.36469">
        <ele>40</ele>
        <time>2019-10-27T14:40:35Z</time>
      </trkpt>
      <trkpt lat="48.65305" lon="-2.36476">
        <ele>40</ele>
        <time>2019-10-27T14:40:39Z</time>
      </trkpt>
      <trkpt lat="48.65304" lon="-2.36483">
        <ele>39</ele>
        <time>2019-10-27T14:40:43Z</time>
      </trkpt>
      <trkpt lat="48.65303" lon="-2.36492">
        <ele>39</ele>
        <time>2019-10-27T14:40:47Z</time>
      </trkpt>
      <trkpt lat="48.65303" lon="-2.36499">
        <ele>40</ele>
        <time>2019-10-27T14:40:51Z</time>
      </trkpt>
      <trkpt lat="48.65306" lon="-2.36508">
        <ele>39</ele>
        <time>2019-10-27T14:40:55Z</time>
      </trkpt>
      <trkpt lat="48.65311" lon="-2.3652">
        <ele>39</ele>
        <time>2019-10-27T14:41:03Z</time>
      </trkpt>
      <trkpt lat="48.65325" lon="-2.36563">
        <ele>39</ele>
        <time>2019-10-27T14:41:28Z</time>
      </trkpt>
      <trkpt lat="48.65328" lon="-2.3657">
        <ele>39</ele>
        <time>2019-10-27T14:41:32Z</time>
      </trkpt>
      <trkpt lat="48.6533" lon="-2.36576">
        <ele>39</ele>
        <time>2019-10-27T14:41:36Z</time>
      </trkpt>
      <trkpt lat="48.65344" lon="-2.36601">
        <ele>39</ele>
        <time>2019-10-27T14:41:53Z</time>
      </trkpt>
      <trkpt lat="48.65351" lon="-2.36621">
        <ele>39</ele>
        <time>2019-10-27T14:42:05Z</time>
      </trkpt>
      <trkpt lat="48.65355" lon="-2.36635">
        <ele>39</ele>
        <time>2019-10-27T14:42:13Z</time>
      </trkpt>
      <trkpt lat="48.65357" lon="-2.3665">
        <ele>40</ele>
        <time>2019-10-27T14:42:21Z</time>
      </trkpt>
      <trkpt lat="48.65354" lon="-2.36664">
        <ele>41</ele>
        <time>2019-10-27T14:42:29Z</time>
      </trkpt>
      <trkpt lat="48.65354" lon="-2.36672">
        <ele>42</ele>
        <time>2019-10-27T14:42:33Z</time>
      </trkpt>
      <trkpt lat="48.65356" lon="-2.36687">
        <ele>42</ele>
        <time>2019-10-27T14:42:41Z</time>
      </trkpt>
      <trkpt lat="48.65356" lon="-2.36695">
        <ele>42</ele>
        <time>2019-10-27T14:42:46Z</time>
      </trkpt>
      <trkpt lat="48.65356" lon="-2.36701">
        <ele>42</ele>
        <time>2019-10-27T14:42:55Z</time>
      </trkpt>
      <trkpt lat="48.65362" lon="-2.36738">
        <ele>42</ele>
        <time>2019-10-27T14:43:18Z</time>
      </trkpt>
      <trkpt lat="48.65358" lon="-2.3674">
        <ele>41</ele>
        <time>2019-10-27T14:43:41Z</time>
      </trkpt>
      <trkpt lat="48.65353" lon="-2.36736">
        <ele>41</ele>
        <time>2019-10-27T14:43:45Z</time>
      </trkpt>
      <trkpt lat="48.65341" lon="-2.36743">
        <ele>43</ele>
        <time>2019-10-27T14:43:57Z</time>
      </trkpt>
      <trkpt lat="48.65336" lon="-2.36746">
        <ele>43</ele>
        <time>2019-10-27T14:44:02Z</time>
      </trkpt>
      <trkpt lat="48.65299" lon="-2.36764">
        <ele>46</ele>
        <time>2019-10-27T14:44:36Z</time>
      </trkpt>
      <trkpt lat="48.65285" lon="-2.36769">
        <ele>47</ele>
        <time>2019-10-27T14:44:48Z</time>
      </trkpt>
      <trkpt lat="48.6528" lon="-2.3677">
        <ele>47</ele>
        <time>2019-10-27T14:44:52Z</time>
      </trkpt>
      <trkpt lat="48.65238" lon="-2.36771">
        <ele>49</ele>
        <time>2019-10-27T14:45:26Z</time>
      </trkpt>
      <trkpt lat="48.65229" lon="-2.36773">
        <ele>50</ele>
        <time>2019-10-27T14:45:34Z</time>
      </trkpt>
      <trkpt lat="48.65223" lon="-2.36772">
        <ele>50</ele>
        <time>2019-10-27T14:45:39Z</time>
      </trkpt>
      <trkpt lat="48.65207" lon="-2.36777">
        <ele>51</ele>
        <time>2019-10-27T14:45:54Z</time>
      </trkpt>
      <trkpt lat="48.65203" lon="-2.36779">
        <ele>52</ele>
        <time>2019-10-27T14:45:58Z</time>
      </trkpt>
      <trkpt lat="48.65198" lon="-2.36781">
        <ele>52</ele>
        <time>2019-10-27T14:46:02Z</time>
      </trkpt>
      <trkpt lat="48.65193" lon="-2.36781">
        <ele>53</ele>
        <time>2019-10-27T14:46:06Z</time>
      </trkpt>
      <trkpt lat="48.65189" lon="-2.3678">
        <ele>53</ele>
        <time>2019-10-27T14:46:11Z</time>
      </trkpt>
      <trkpt lat="48.65184" lon="-2.3678">
        <ele>53</ele>
        <time>2019-10-27T14:46:16Z</time>
      </trkpt>
      <trkpt lat="48.65159" lon="-2.36789">
        <ele>54</ele>
        <time>2019-10-27T14:46:37Z</time>
      </trkpt>
      <trkpt lat="48.65157" lon="-2.36797">
        <ele>55</ele>
        <time>2019-10-27T14:46:46Z</time>
      </trkpt>
      <trkpt lat="48.65156" lon="-2.36856">
        <ele>54</ele>
        <time>2019-10-27T14:47:20Z</time>
      </trkpt>
      <trkpt lat="48.65157" lon="-2.36871">
        <ele>54</ele>
        <time>2019-10-27T14:47:28Z</time>
      </trkpt>
    </trkseg>
  </trk>
</gpx>